[[{"header":{"parameterUnit":"m.s-1","parameterCategory":1,"la1":30.6,"la2":28.766,"lo1":-90.7593,"lo2":-88.6598,"dy":0.0162,"dx":0.0183,"nx":116,"ny":114,"refTime":"2023-11-04T18:00:00:Z","depth":0,"parameterNumber":2,"parameterNumberName":"U-component_of_WINDS"},"data":[0.0,0.0,0.0,0.0,0.0,0.0,0.0,0.0,0.0,0.0,0.0,0.0,0.0,0.0,0.0,0.0,0.0,0.0,0.0,0.0,0.0,0.0,0.0,0.0,0.0,0.0,0.0,0.0,0.0,0.0,0.0,0.0,0.0,0.0,0.0,0.0,0.0,0.0,0.0,0.0,0.0,0.0,0.0,0.0,0.0,0.0,0.0,0.0,0.0,0.0,0.0,0.0,0.0,0.0,0.0,0.0,0.0,0.0,0.0,0.0,0.0,0.0,0.0,0.0,0.0,0.0,0.0,0.0,0.0,0.0,0.0,0.0,0.0,0.0,0.0,0.0,0.0,0.0,0.0,0.0,0.0,0.0,0.0,0.0,0.0,0.0,0.0,0.0,0.0,0.0,0.0,0.0,0.0,0.0,0.0,0.0,0.0,0.0,0.0,0.0,0.0,0.0,0.0,0.0,0.0,0.0,0.0,0.0,0.0,0.0,0.0,0.0,0.0,0.0,0.0,0.0,0.0,0.0,0.0,0.0,0.0,0.0,0.0,0.0,0.0,0.0,0.0,0.0,0.0,0.0,0.0,0.0,0.0,0.0,0.0,0.0,0.0,0.0,0.0,0.0,0.0,0.0,0.0,0.0,0.0,0.0,0.0,0.0,0.0,0.0,0.0,0.0,0.0,0.0,0.0,0.0,0.0,0.0,0.0,0.0,0.0,0.0,0.0,0.0,0.0,0.0,0.0,0.0,0.0,0.0,0.0,0.0,0.0,0.0,0.0,0.0,0.0,0.0,0.0,0.0,0.0,0.0,0.0,0.0,0.0,0.0,0.0,0.0,0.0,0.0,0.0,0.0,0.0,0.0,0.0,0.0,0.0,0.0,0.0,0.0,0.0,0.0,0.0,0.0,0.0,0.0,0.0,0.0,0.0,0.0,0.0,0.0,0.0,0.0,0.0,0.0,0.0,0.0,0.0,0.0,0.0,0.0,0.0,0.0,0.0,0.0,0.0,0.0,0.0,0.0,0.0,0.0,0.0,0.0,0.0,0.0,0.0,0.0,0.0,0.0,0.0,0.0,0.0,0.0,0.0,0.0,0.0,0.0,0.0,0.0,0.0,0.0,0.0,0.0,0.0,0.0,0.0,0.0,0.0,0.0,0.0,0.0,0.0,0.0,0.0,0.0,0.0,0.0,0.0,0.0,0.0,0.0,0.0,0.0,0.0,0.0,0.0,0.0,0.0,0.0,0.0,0.0,0.0,0.0,0.0,0.0,0.0,0.0,0.0,0.0,0.0,0.0,0.0,0.0,0.0,0.0,0.0,0.0,0.0,0.0,0.0,0.0,0.0,0.0,0.0,0.0,0.0,0.0,0.0,0.0,0.0,0.0,0.0,0.0,0.0,0.0,0.0,0.0,0.0,0.0,0.0,0.0,0.0,0.0,0.0,0.0,0.0,0.0,0.0,0.0,0.0,0.0,0.0,0.0,0.0,0.0,0.0,0.0,0.0,0.0,0.0,0.0,0.0,0.0,0.0,0.0,0.0,0.0,0.0,0.0,0.0,0.0,0.0,0.0,0.0,0.0,0.0,0.0,0.0,0.0,0.0,0.0,0.0,0.0,0.0,0.0,0.0,0.0,0.0,0.0,0.0,0.0,0.0,0.0,0.0,0.0,0.0,0.0,0.0,0.0,0.0,0.0,0.0,0.0,0.0,0.0,0.0,0.0,0.0,0.0,0.0,0.0,0.0,0.0,0.0,0.0,0.0,0.0,0.0,0.0,0.0,0.0,0.0,0.0,0.0,0.0,0.0,0.0,0.0,0.0,0.0,0.0,0.0,0.0,0.0,0.0,0.0,0.0,0.0,0.0,0.0,0.0,0.0,0.0,0.0,0.0,0.0,0.0,0.0,0.0,0.0,0.0,0.0,0.0,0.0,0.0,0.0,0.0,0.0,0.0,0.0,0.0,0.0,0.0,0.0,0.0,0.0,0.0,0.0,0.0,0.0,0.0,0.0,0.0,0.0,0.0,0.0,0.0,0.0,0.0,0.0,0.0,0.0,0.0,0.0,0.0,0.0,0.0,0.0,0.0,0.0,0.0,0.0,0.0,0.0,0.0,0.0,0.0,0.0,0.0,0.0,0.0,0.0,0.0,0.0,0.0,0.0,0.0,0.0,0.0,0.0,0.0,0.0,0.0,0.0,0.0,0.0,0.0,0.0,0.0,0.0,0.0,0.0,0.0,0.0,0.0,0.0,0.0,0.0,0.0,0.0,0.0,0.0,0.0,0.0,0.0,0.0,0.0,0.0,0.0,0.0,0.0,0.0,0.0,0.0,0.0,0.0,0.0,0.0,0.0,0.0,0.0,0.0,0.0,0.0,0.0,0.0,0.0,0.0,0.0,0.0,0.0,0.0,0.0,0.0,0.0,0.0,0.0,0.0,0.0,0.0,0.0,0.0,0.0,0.0,0.0,0.0,0.0,0.0,0.0,0.0,0.0,0.0,0.0,0.0,0.0,0.0,0.0,0.0,0.0,0.0,0.0,0.0,0.0,0.0,0.0,0.0,0.0,0.0,0.0,0.0,0.0,0.0,0.0,0.0,0.0,0.0,0.0,0.0,0.0,0.0,0.0,0.0,0.0,0.0,0.0,0.0,0.0,0.0,0.0,0.0,0.0,0.0,0.0,0.0,0.0,0.0,0.0,0.0,0.0,0.0,0.0,0.0,0.0,0.0,0.0,0.0,0.0,0.0,0.0,0.0,0.0,0.0,0.0,0.0,0.0,0.0,0.0,0.0,0.0,0.0,0.0,0.0,0.0,0.0,0.0,0.0,0.0,0.0,0.0,0.0,0.0,0.0,0.0,0.0,0.0,0.0,0.0,0.0,0.0,0.0,0.0,0.0,0.0,0.0,0.0,0.0,0.0,0.0,0.0,0.0,0.0,0.0,0.0,0.0,0.0,0.0,0.0,0.0,0.0,0.0,0.0,0.0,0.0,0.0,0.0,0.0,0.0,0.0,0.0,0.0,0.0,0.0,0.0,0.0,0.0,0.0,0.0,0.0,0.0,0.0,0.0,0.0,0.0,0.0,0.0,0.0,0.0,0.0,0.0,0.0,0.0,0.0,0.0,0.0,0.0,0.0,0.0,0.0,0.0,0.0,0.0,0.0,0.0,0.0,0.0,0.0,0.0,0.0,0.0,0.0,0.0,0.0,0.0,0.0,0.0,0.0,0.0,0.0,0.0,0.0,0.0,0.0,0.0,0.0,0.0,0.0,0.0,0.0,0.0,0.0,0.0,0.0,0.0,0.0,0.0,0.0,0.0,0.0,0.0,0.0,0.0,0.0,0.0,0.0,0.0,0.0,0.0,0.0,0.0,0.0,0.0,0.0,0.0,0.0,0.0,0.0,0.0,0.0,0.0,0.0,0.0,0.0,0.0,0.0,0.0,0.0,0.0,0.0,0.0,0.0,0.0,0.0,0.0,0.0,0.0,0.0,0.0,0.0,0.0,0.0,0.0,0.0,0.0,0.0,0.0,0.0,0.0,0.0,0.0,0.0,0.0,0.0,0.0,0.0,0.0,0.0,0.0,0.0,0.0,0.0,0.0,0.0,0.0,0.0,0.0,0.0,0.0,0.0,0.0,0.0,0.0,0.0,0.0,0.0,0.0,0.0,0.0,0.0,0.0,0.0,0.0,0.0,0.0,0.0,0.0,0.0,0.0,0.0,0.0,0.0,0.0,0.0,0.0,0.0,0.0,0.0,0.0,0.0,0.0,0.0,0.0,0.0,0.0,0.0,0.0,0.0,0.0,0.0,0.0,0.0,0.0,0.0,0.0,0.0,0.0,0.0,0.0,0.0,0.0,0.0,0.0,0.0,0.0,0.0,0.0,0.0,0.0,0.0,0.0,0.0,0.0,0.0,0.0,0.0,0.0,0.0,0.0,0.0,0.0,0.0,0.0,0.0,0.0,0.0,0.0,0.0,0.0,0.0,0.0,0.0,0.0,0.0,0.0,0.0,0.0,0.0,0.0,0.0,0.0,0.0,0.0,0.0,0.0,0.0,0.0,0.0,0.0,0.0,0.0,0.0,0.0,0.0,0.0,0.0,0.0,0.0,0.0,0.0,0.0,0.0,0.0,0.0,0.0,0.0,0.0,0.0,0.0,0.0,0.0,0.0,0.0,0.0,0.0,0.0,0.0,0.0,0.0,0.0,0.0,0.0,0.0,0.0,0.0,0.0,0.0,0.0,0.0,0.0,0.0,0.0,0.0,0.0,0.0,0.0,0.0,0.0,0.0,0.0,0.0,0.0,0.0,0.0,0.0,0.0,0.0,0.0,0.0,0.0,0.0,0.0,0.0,0.0,0.0,0.0,0.0,0.0,0.0,0.0,0.0,0.0,0.0,0.0,0.0,0.0,0.0,0.0,0.0,0.0,0.0,0.0,0.0,0.0,0.0,0.0,0.0,0.0,0.0,0.0,0.0,0.0,0.0,0.0,0.0,0.0,0.0,0.0,0.0,0.0,0.0,0.0,0.0,0.0,0.0,0.0,0.0,0.0,0.0,0.0,0.0,0.0,0.0,0.0,0.0,0.0,0.0,0.0,0.0,0.0,0.0,0.0,0.0,0.0,0.0,0.0,0.0,0.0,0.0,0.0,0.0,0.0,0.0,0.0,0.0,0.0,0.0,0.0,0.0,0.0,0.0,0.0,0.0,0.0,0.0,0.0,0.0,0.0,0.0,0.0,0.0,0.0,0.0,0.0,0.0,0.0,0.0,0.0,0.0,0.0,0.0,0.0,0.0,0.0,0.0,0.0,0.0,0.0,0.0,0.0,0.0,0.0,0.0,0.0,0.0,0.0,0.0,0.0,0.0,0.0,0.0,0.0,0.0,0.0,0.0,0.0,0.0,0.0,0.0,0.0,0.0,0.0,0.0,0.0,0.0,0.0,0.0,0.0,0.0,0.0,0.0,0.0,0.0,0.0,0.0,0.0,0.0,0.0,0.0,0.0,0.0,0.0,0.0,0.0,0.0,0.0,0.0,0.0,0.0,0.0,0.0,0.0,0.0,0.0,0.0,0.0,0.0,0.0,0.0,0.0,0.0,0.0,0.0,0.0,0.0,0.0,0.0,0.0,0.0,0.0,0.0,0.0,0.0,0.0,0.0,0.0,0.0,0.0,0.0,0.0,0.0,0.0,0.0,0.0,0.0,0.0,0.0,0.0,0.0,0.0,0.0,0.0,0.0,0.0,0.0,0.0,0.0,0.0,0.0,0.0,0.0,0.0,0.0,0.0,0.0,0.0,0.0,0.0,0.0,0.0,0.0,0.0,0.0,0.0,0.0,0.0,0.0,0.0,0.0,0.0,0.0,0.0,0.0,0.0,0.0,0.0,0.0,0.0,0.0,0.0,0.0,0.0,0.0,0.0,0.0,0.0,0.0,0.0,0.0,0.0,0.0,0.0,0.0,0.0,0.0,0.0,0.0,0.0,0.0,0.0,0.0,0.0,0.0,0.0,0.0,0.0,0.0,0.0,0.0,0.0,0.0,0.0,0.0,0.0,0.0,0.0,0.0,0.0,0.0,0.0,0.0,0.0,0.0,0.0,0.0,0.0,0.0,0.0,0.0,0.0,0.0,0.0,0.0,0.0,0.0,0.0,0.0,0.0,0.0,0.0,0.0,0.0,0.0,0.0,0.0,0.0,0.0,0.0,0.0,0.0,0.0,0.0,0.0,0.0,0.0,0.0,0.0,0.0,0.0,0.0,0.0,0.0,0.0,0.0,0.0,0.0,0.0,0.0,0.0,0.0,0.0,0.0,0.0,0.0,0.0,0.0,0.0,0.0,0.0,0.0,0.0,0.0,0.0,0.0,0.0,0.0,0.0,0.0,0.0,0.0,0.0,0.0,0.0,0.0,0.0,0.0,0.0,0.0,0.0,0.0,0.0,0.0,0.0,0.0,0.0,0.0,0.0,0.0,0.0,0.0,0.0,0.0,0.0,0.0,0.0,0.0,0.0,0.0,0.0,0.0,0.0,0.0,0.0,0.0,0.0,0.0,0.0,0.0,0.0,0.0,0.0,0.0,0.0,0.0,0.0,0.0,0.0,0.0,0.0,0.0,0.0,-1.7007,0.0,0.0,0.0,0.0,0.0,0.0,0.0,0.0,0.0,0.0,0.0,0.0,0.0,0.0,0.0,0.0,0.0,0.0,0.0,0.0,0.0,0.0,0.0,0.0,0.0,0.0,0.0,0.0,0.0,0.0,0.0,0.0,0.0,0.0,0.0,0.0,0.0,0.0,0.0,-2.4419,-2.4403,-2.4556,-2.4668,-2.4389,-2.3737,0.0,0.0,0.0,0.0,0.0,0.0,0.0,0.0,0.0,0.0,0.0,0.0,0.0,0.0,0.0,0.0,0.0,0.0,0.0,0.0,0.0,0.0,0.0,0.0,0.0,0.0,0.0,0.0,0.0,0.0,0.0,0.0,0.0,0.0,0.0,0.0,0.0,0.0,0.0,0.0,0.0,0.0,0.0,0.0,0.0,0.0,0.0,0.0,0.0,0.0,0.0,0.0,0.0,0.0,0.0,0.0,0.0,0.0,0.0,0.0,0.0,0.0,0.0,0.0,0.0,0.0,0.0,0.0,0.0,0.0,0.0,-1.8205,0.0,0.0,0.0,0.0,0.0,0.0,0.0,0.0,0.0,0.0,0.0,0.0,0.0,0.0,0.0,0.0,0.0,0.0,0.0,0.0,0.0,0.0,0.0,0.0,0.0,0.0,0.0,0.0,0.0,0.0,0.0,0.0,0.0,0.0,0.0,0.0,0.0,0.0,-2.4982,-2.5031,-2.5212,-2.5289,-2.4836,-2.4034,-2.3495,0.0,0.0,0.0,0.0,0.0,0.0,0.0,0.0,0.0,0.0,0.0,0.0,0.0,0.0,0.0,0.0,0.0,0.0,0.0,0.0,0.0,0.0,0.0,0.0,0.0,0.0,0.0,0.0,0.0,0.0,0.0,0.0,0.0,0.0,0.0,0.0,0.0,0.0,0.0,0.0,0.0,0.0,0.0,0.0,0.0,0.0,0.0,0.0,0.0,0.0,0.0,0.0,0.0,0.0,0.0,0.0,0.0,0.0,0.0,0.0,0.0,0.0,0.0,-2.5783,-2.5819,-2.5738,-2.4862,-2.4219,-2.3667,-2.1389,-2.0184,-1.9785,0.0,0.0,0.0,0.0,0.0,0.0,0.0,0.0,0.0,0.0,0.0,0.0,0.0,0.0,0.0,0.0,0.0,0.0,0.0,0.0,0.0,0.0,-2.5052,-2.5057,-2.5038,-2.4918,-2.4878,0.0,0.0,0.0,0.0,0.0,0.0,0.0,-2.529,-2.5114,-2.4862,-2.5226,-2.5923,-2.6866,-2.6597,-2.6417,-2.619,-2.4249,-2.3498,-2.3658,0.0,0.0,0.0,0.0,0.0,0.0,0.0,0.0,0.0,0.0,0.0,0.0,0.0,0.0,0.0,0.0,0.0,0.0,0.0,0.0,0.0,0.0,0.0,0.0,0.0,0.0,0.0,0.0,0.0,0.0,0.0,0.0,0.0,0.0,0.0,0.0,0.0,0.0,0.0,0.0,0.0,-2.8188,-2.7827,0.0,0.0,0.0,0.0,0.0,0.0,0.0,0.0,0.0,0.0,0.0,0.0,0.0,-2.7304,-2.7261,-2.8233,-2.8088,-2.698,-2.7784,-2.7565,-2.6431,-2.5638,-2.5161,-2.49,-2.3354,0.0,-1.9745,-1.9278,0.0,0.0,0.0,0.0,0.0,0.0,0.0,0.0,0.0,0.0,0.0,0.0,0.0,0.0,0.0,0.0,0.0,0.0,0.0,0.0,0.0,-2.6009,-2.6568,-2.6047,-2.7319,-2.7549,-2.6102,0.0,0.0,0.0,0.0,0.0,0.0,-2.527,-2.5318,-2.5593,-2.6849,-2.7799,-2.8454,-2.856,-2.8659,-2.8703,-2.6861,-2.5254,-2.3821,-2.2914,0.0,0.0,0.0,0.0,0.0,0.0,0.0,0.0,0.0,0.0,0.0,0.0,0.0,0.0,0.0,0.0,0.0,0.0,0.0,0.0,0.0,0.0,0.0,0.0,0.0,0.0,0.0,0.0,0.0,0.0,0.0,0.0,0.0,0.0,0.0,0.0,0.0,0.0,0.0,-2.7447,-2.8272,-2.6097,-2.7306,-2.731,0.0,0.0,0.0,0.0,0.0,0.0,0.0,0.0,0.0,-2.8124,-2.8624,-2.9011,-2.9363,-3.0091,-3.0377,-3.015,-3.0243,-3.0101,-2.9849,-2.8175,-2.7061,-2.634,-2.514,-2.3618,-2.1811,-2.1135,-2.0541,-1.9984,0.0,0.0,0.0,0.0,-1.922,-1.8505,0.0,0.0,0.0,0.0,0.0,0.0,0.0,0.0,0.0,0.0,0.0,0.0,-2.4774,-2.7052,-2.8281,-2.8106,-2.9418,-2.9438,-2.7445,-2.7248,0.0,0.0,0.0,0.0,-2.5377,-2.5593,-2.6162,-2.7082,-2.8566,-2.9548,-3.0024,-3.0279,-3.0359,-3.0327,-2.9173,-2.7339,-2.5005,-2.341,-2.1852,-2.0315,0.0,0.0,0.0,0.0,0.0,0.0,0.0,0.0,0.0,0.0,0.0,0.0,0.0,0.0,0.0,0.0,0.0,0.0,0.0,0.0,0.0,0.0,0.0,0.0,0.0,0.0,0.0,0.0,0.0,0.0,0.0,0.0,0.0,0.0,0.0,0.0,0.0,-2.8127,-2.882,-2.5541,-2.8254,-2.8826,0.0,0.0,0.0,0.0,0.0,0.0,-2.8796,-2.8324,-2.8712,-3.0273,-3.0669,-3.1091,-3.1513,-3.2004,-3.2452,-3.2766,-3.2093,-3.2048,-3.2422,-3.0049,-2.8677,-2.798,-2.6679,-2.5574,-2.4533,-2.342,-2.2408,-2.1577,-2.187,-2.1748,-2.1439,-2.1706,-2.1145,-2.025,0.0,0.0,0.0,0.0,0.0,0.0,0.0,0.0,0.0,0.0,0.0,-2.1493,-2.576,-2.7904,-2.9801,-3.1665,-3.0311,-2.9262,-2.9006,-2.6745,-2.531,-2.5022,-2.5328,-2.5444,-2.5312,-2.6484,-2.7865,-2.944,-2.984,-3.0618,-3.1668,-3.1304,-3.0845,-3.0293,-3.0227,-2.9523,-2.8062,-2.3508,-2.2043,-2.2439,-1.8822,0.0,0.0,0.0,0.0,0.0,0.0,0.0,0.0,0.0,0.0,0.0,0.0,0.0,0.0,0.0,0.0,0.0,0.0,0.0,0.0,0.0,0.0,0.0,0.0,0.0,0.0,0.0,0.0,0.0,0.0,0.0,0.0,0.0,0.0,0.0,0.0,0.0,0.0,-2.8558,-3.2521,0.0,0.0,0.0,0.0,-2.8813,-2.8381,-2.8719,-3.0068,-3.028,-3.1249,-3.3186,-3.3922,-3.4256,-3.4312,-3.433,-3.4038,-3.344,-3.2781,-3.2482,-3.2422,-3.0049,-2.9414,-3.0004,-2.78,-2.7265,-2.7751,-2.5374,-2.4038,-2.3533,-2.3035,-2.2847,-2.2743,-2.2275,-2.1574,-2.0779,0.0,0.0,0.0,0.0,0.0,0.0,0.0,0.0,0.0,-1.6772,-1.9342,-2.2372,-2.5914,-2.8905,-3.0989,-3.1838,-3.2156,-3.138,-2.9178,-2.7975,-2.6643,-2.5068,-2.52,-2.5554,-2.6062,-2.7834,-2.9076,-2.978,-3.1028,-3.1967,-3.255,-3.2105,-3.1834,-3.166,-3.0815,-2.997,-2.8962,-2.5134,-2.2584,-2.0923,-1.8758,-1.7457,0.0,0.0,0.0,0.0,0.0,0.0,0.0,0.0,0.0,0.0,0.0,0.0,0.0,0.0,0.0,0.0,0.0,0.0,0.0,0.0,0.0,0.0,0.0,0.0,0.0,0.0,0.0,0.0,0.0,0.0,0.0,0.0,0.0,0.0,0.0,0.0,0.0,-3.0773,-3.3927,0.0,-2.99,-3.0791,-3.129,-3.0443,-3.1114,-3.1971,-3.2927,-3.3051,-3.3576,-3.473,-3.5045,-3.5126,-3.5165,-3.5604,-3.5472,-3.4799,-3.4167,-3.3608,-3.305,-3.0817,-2.9783,-2.968,-2.8796,-2.8201,-2.774,-2.7287,-2.6491,-2.5423,-2.4879,-2.4667,-2.4606,-2.4405,-2.4149,-2.3722,0.0,0.0,0.0,0.0,0.0,0.0,0.0,0.0,0.0,-1.8271,-2.0791,-2.3685,-2.667,-3.0138,-3.2566,-3.3355,-3.3258,-3.2153,-2.9756,-2.816,-2.6617,-2.5,-2.541,-2.6053,-2.6889,-2.8954,-3.0071,-3.0143,-3.1476,-3.2086,-3.2056,-3.1244,-3.0967,-3.105,-2.998,-2.9014,-2.808,-2.5616,-2.3213,-2.0862,-1.8985,-1.7657,-1.6748,0.0,0.0,0.0,0.0,0.0,0.0,0.0,0.0,0.0,0.0,0.0,0.0,0.0,0.0,0.0,0.0,0.0,0.0,0.0,0.0,0.0,0.0,0.0,0.0,0.0,0.0,0.0,0.0,0.0,0.0,0.0,0.0,0.0,0.0,0.0,-3.3574,-3.2248,-3.5656,-3.6358,-3.1971,-3.3319,-3.4121,-3.3131,-3.371,-3.4334,-3.4838,-3.482,-3.506,-3.5489,-3.5504,-3.5644,-3.5859,-3.634,-3.632,-3.5849,-3.5105,-3.4254,-3.341,-3.1043,-2.9885,-2.9753,-2.9204,-2.8654,-2.8217,-2.8471,-2.8062,-2.7164,-2.6495,-2.6273,-2.6273,-2.6273,-2.5938,-2.525,0.0,0.0,0.0,0.0,0.0,0.0,0.0,-1.893,-1.9631,-1.9453,-2.2225,-2.5288,-2.8101,-3.1569,-3.4447,-3.6336,-3.3429,-3.1258,-3.075,-2.7143,-2.4962,-2.4851,-2.598,-2.6958,-2.7735,-2.9791,-3.077,-3.0605,-3.1127,-3.0956,-3.0168,-2.8822,-2.8241,-2.8275,-2.7684,-2.6741,-2.5539,-2.4787,-2.3844,-2.2595,-1.9499,-1.7903,-1.7325,0.0,0.0,0.0,0.0,0.0,0.0,0.0,0.0,0.0,0.0,0.0,0.0,0.0,0.0,0.0,0.0,0.0,0.0,0.0,0.0,0.0,0.0,0.0,0.0,0.0,0.0,0.0,0.0,0.0,0.0,0.0,0.0,0.0,-3.0724,-3.3245,-3.4599,-3.3283,-3.7899,-3.9462,-3.5081,-3.7196,-3.828,-3.6781,-3.5953,-3.5519,-3.5504,-3.5504,-3.5554,-3.5539,-3.5554,-3.5894,-3.6641,-3.6626,-3.6646,-3.6542,-3.5298,-3.426,-3.3367,-3.0616,-2.9812,-3.0447,-2.8997,-2.8861,-2.9505,-2.8861,-2.8592,-2.8502,-2.7829,-2.7625,-2.7625,-2.7595,-2.6665,-2.5056,0.0,0.0,0.0,0.0,0.0,0.0,0.0,-1.9263,-1.9797,-1.9826,-2.2764,-2.58,-2.8223,-3.1294,-3.3506,-3.4213,-3.2179,-3.03,-2.8988,-2.6793,-2.5665,-2.6015,-2.6409,-2.7303,-2.8826,-2.9589,-3.0246,-3.081,-3.0613,-3.0411,-3.0168,-2.8822,-2.798,-2.754,-2.7024,-2.6106,-2.4889,-2.4133,-2.3176,-2.1931,-2.0092,-1.8568,-1.74,0.0,0.0,0.0,0.0,0.0,0.0,0.0,0.0,0.0,0.0,0.0,0.0,0.0,0.0,0.0,0.0,0.0,0.0,0.0,0.0,0.0,0.0,0.0,0.0,0.0,0.0,0.0,0.0,0.0,0.0,0.0,0.0,-3.4082,-3.4329,-3.5475,-3.6751,-3.8006,-3.9476,-3.9665,-3.7803,-3.833,-3.8219,-3.6646,-3.6322,-3.5999,-3.5519,-3.6026,-3.6291,-3.6269,-3.6867,-3.7254,-3.75,-3.8012,-3.7497,-3.5946,-3.5639,-3.4549,-3.2786,-3.1504,-3.072,-3.0487,-3.0075,-2.9507,-2.8861,-2.8682,-2.8308,-2.7844,-2.7685,-2.7625,-2.7565,-2.7036,-2.5475,-2.3447,0.0,0.0,0.0,0.0,0.0,0.0,0.0,-1.9798,-2.0186,-2.0484,-2.3317,-2.5896,-2.7305,-3.0154,-3.1918,-3.1749,-3.0112,-2.8648,-2.7602,-2.6132,-2.5709,-2.6592,-2.696,-2.7813,-2.9271,-2.986,-3.0244,-3.0413,-2.9642,-2.9113,-2.8735,-2.7209,-2.6458,-2.6349,-2.5892,-2.5014,-2.3822,-2.339,-2.2339,-2.0888,-1.9889,-1.8907,-1.8078,-1.8179,-1.8131,-1.8133,-1.9014,-1.9711,-2.0248,-2.0632,0.0,0.0,0.0,0.0,0.0,0.0,0.0,0.0,0.0,0.0,0.0,0.0,0.0,0.0,0.0,0.0,0.0,0.0,0.0,0.0,0.0,0.0,0.0,0.0,-3.5005,-3.7226,-3.8026,-3.8095,-3.8654,-4.0238,-4.0493,-4.0223,-3.9425,-3.9342,-3.8813,-3.7561,-3.6914,-3.6501,-3.6383,-3.6508,-3.6726,-3.707,-3.7546,-3.7953,-3.8262,-3.8381,-3.7801,-3.6589,-3.5727,-3.4508,-3.2949,-3.1374,-3.0524,0.0,-2.9553,-2.8867,-2.8173,-2.8173,-2.7934,0.0,0.0,0.0,0.0,0.0,-2.4376,-2.2335,0.0,0.0,0.0,0.0,0.0,0.0,0.0,-2.017,-2.0442,-2.1003,-2.3604,-2.5557,-2.593,-2.8622,-3.0106,-2.9297,-2.7829,-2.6821,-2.6507,-2.5512,-2.5562,-2.6979,-2.7684,-2.8481,-2.9424,-3.0322,-3.0374,-2.9563,-2.8403,-2.7467,-2.6605,-2.4812,-2.4292,-2.4837,-2.4374,-2.3514,-2.2394,-2.2346,-2.1246,-1.947,-1.9071,-1.897,-1.8933,-1.848,-1.8571,-1.8957,-1.9146,-1.9476,-1.9894,-2.0387,0.0,0.0,0.0,0.0,0.0,0.0,0.0,0.0,0.0,0.0,0.0,0.0,0.0,0.0,0.0,0.0,0.0,0.0,0.0,0.0,0.0,0.0,0.0,0.0,-3.8107,-3.991,-4.1415,-4.0706,-4.0259,-4.0813,-4.1052,-4.0866,-4.0172,-4.0051,-3.965,-3.877,-3.7546,-3.7026,-3.7435,0.0,0.0,0.0,0.0,-3.8383,-3.9046,-3.8327,-3.7849,-3.766,-3.5649,-3.425,-3.3297,-3.0907,-2.9696,-2.9539,-2.8333,-2.774,-2.7625,-2.7625,-2.758,-2.7505,-2.749,-2.7055,-2.6228,-2.5015,-2.34,-2.1625,0.0,0.0,0.0,0.0,0.0,0.0,0.0,-1.8831,-1.9034,-2.0094,-2.2349,-2.4306,-2.5541,-2.7845,-2.8994,-2.8169,-2.723,-2.6462,-2.5913,-2.5818,-2.6586,-2.8415,-2.8788,-2.9355,-3.0255,-3.0098,-2.9592,-2.8747,-2.7585,-2.6579,-2.5711,-2.4066,-2.3355,-2.3446,-2.2154,-2.1169,-2.0426,-1.9989,-1.9042,-1.7824,-1.82,-1.8631,-1.897,-1.8858,-1.8641,-1.8525,-1.9965,-2.0219,-2.0105,-2.1106,-2.1442,-2.1365,-2.0914,0.0,0.0,0.0,0.0,0.0,0.0,0.0,0.0,0.0,0.0,0.0,0.0,0.0,0.0,0.0,0.0,0.0,0.0,0.0,0.0,-3.7549,-3.9981,-4.1999,-4.2965,-4.2142,-4.1278,-4.0948,-4.09,-4.0679,-4.0003,-3.9917,-3.9341,-3.7963,-3.8174,-3.7929,-3.6862,-3.7863,-3.8531,-3.869,-3.9332,-3.9696,-3.9849,-3.916,-3.8171,-3.6987,0.0,0.0,-3.2677,-3.1571,-3.0487,-2.9515,-2.9233,-2.8568,-2.7625,-2.7625,-2.726,-2.6767,-2.6789,-2.6066,-2.4954,-2.4701,-2.3113,-2.1012,0.0,0.0,0.0,0.0,0.0,0.0,0.0,-1.8263,-1.8346,-1.9318,-2.0956,-2.2312,-2.3153,-2.4782,-2.5515,-2.4854,-2.4797,-2.4708,-2.4515,-2.5342,-2.6389,-2.7612,-2.8119,-2.866,-2.923,-2.9186,-2.8715,-2.7843,-2.6731,-2.5967,-2.5464,-2.3486,-2.2732,-2.3032,-2.155,-2.0542,-1.983,-1.902,-1.8175,-1.7279,-1.7347,-1.7666,-1.8191,-1.846,-1.8442,-1.8324,-1.9191,-1.9516,-1.9601,-2.014,-2.05,-2.0637,-2.0313,-2.0212,-2.0124,0.0,0.0,0.0,0.0,0.0,0.0,0.0,0.0,0.0,0.0,0.0,0.0,0.0,0.0,-3.1619,0.0,0.0,-3.7917,-3.9926,-4.1742,-4.3036,-4.3424,-4.3014,-4.2338,-4.1446,-4.0822,-4.0375,-4.002,-4.0003,-3.9656,-3.8811,-3.8795,-3.8681,-3.827,-3.8649,-3.9086,-3.9489,-3.9548,-3.9529,-3.9529,-3.843,-3.7525,-3.68,-3.5333,-3.4086,-3.295,-3.1946,-3.0925,-2.9894,-2.9281,-2.8647,-2.7986,-2.7338,-2.6695,-2.6077,-2.5743,-2.5198,-2.4522,-2.3881,-2.2482,-2.0806,0.0,0.0,0.0,0.0,0.0,0.0,0.0,0.0,-1.8059,-1.8791,-1.9771,-2.0472,-2.0805,-2.1752,-2.2206,-2.1834,-2.2483,-2.307,-2.3461,-2.4817,-2.5888,-2.6538,-2.7241,-2.7752,-2.7996,-2.8232,-2.7894,-2.6983,-2.5947,-2.529,-2.5022,-2.2822,-2.2109,-2.2617,-2.103,-2.0048,-1.9472,-1.8412,-1.751,-1.6753,-1.6463,-1.6487,-1.6872,-1.7478,-1.7909,-1.8251,-1.8461,-1.8649,-1.889,-1.9342,-1.9642,-1.9854,-1.9957,-2.0057,-2.0112,-1.999,-2.0514,0.0,0.0,0.0,0.0,0.0,0.0,0.0,0.0,0.0,-2.9954,-3.1201,-3.2666,-3.4379,-3.6668,-3.8186,-3.9877,-4.2239,-4.3244,-4.3686,-4.3597,-4.3511,-4.3069,-4.2103,-4.1076,-4.0368,-4.0254,-4.0171,-3.9966,-3.9732,-3.9363,-3.928,-3.9693,-3.9346,-3.937,-3.9868,-3.9292,-3.892,-3.8785,-3.7449,-3.6772,-3.6772,-3.5307,-3.4261,-3.3644,-3.2284,-3.1291,-3.0507,-2.9218,-2.8604,-2.8391,-2.7195,-2.6272,-2.5481,-2.4667,-2.429,-2.4104,-2.3096,-2.1924,-2.0767,0.0,0.0,0.0,0.0,0.0,0.0,0.0,0.0,0.0,-1.8799,-1.9264,-1.9799,-2.0481,-2.1131,-2.1607,-2.1767,-2.2262,-2.2986,-2.4025,-2.4873,-2.5875,-2.7044,-2.7536,-2.7851,-2.7995,-2.7862,-2.7276,-2.6225,-2.5279,-2.4324,-2.3413,-2.1844,-2.1167,-2.1166,-1.9263,-1.8379,-1.8219,-1.7151,-1.6041,-1.5039,-1.5501,-1.5435,-1.5051,-1.5676,-1.6834,-1.8333,-1.9356,-1.902,-1.8438,-2.0676,-2.0937,-2.0444,-2.0944,-2.1416,-2.1639,-2.102,0.0,-2.1595,-2.1955,-2.3097,-2.5064,-2.8636,-2.9225,-2.9979,0.0,0.0,-3.5148,-3.5901,-3.7656,-3.9213,-3.9855,-4.1232,-4.2605,-4.3658,-4.4188,-4.4349,-4.3974,-4.3545,-4.3103,-4.2637,-4.1997,-4.1402,-4.0874,-4.0368,-3.9816,-3.9077,-3.9592,-3.9696,-3.9023,-3.9592,-3.9716,-3.914,-3.9039,-3.8684,-3.8041,-3.7195,-3.6772,-3.6772,-3.5307,-3.4512,-3.4324,-3.2933,-3.1921,-3.121,-2.9891,-2.8936,-2.8287,-2.7524,-2.6524,-2.5308,-2.4024,-2.3295,-2.2877,-2.2757,-2.1879,-2.062,0.0,0.0,0.0,0.0,0.0,0.0,0.0,0.0,0.0,0.0,-1.8257,-1.8663,-1.9126,-1.952,-1.981,-1.9921,-2.1112,-2.2057,-2.2536,-2.4316,-2.5449,-2.5618,-2.639,-2.6646,-2.6326,-2.6698,-2.6367,-2.5354,-2.4911,-2.429,-2.3449,-2.1787,-2.0936,-2.0767,-1.8932,-1.772,-1.7053,-1.6287,-1.5276,-1.4283,-1.5231,-1.5056,-1.4327,-1.5149,-1.5711,-1.6211,-1.7368,-1.7571,0.0,0.0,-1.9349,-1.9507,-1.9765,-2.0066,-2.0245,-1.9984,-2.0727,0.0,-2.3202,-2.5204,0.0,0.0,-2.9986,-3.1713,-3.3903,-3.5035,-3.6054,-3.7588,-3.9328,-4.084,-4.164,-4.2735,-4.3695,0.0,-4.4495,-4.453,-4.4384,-4.3941,-4.3447,-4.2824,-4.2484,-4.1937,-4.0995,-4.04,-3.9952,-3.961,-3.9901,-3.9952,-3.961,-3.9497,-3.9309,-3.9005,-3.8159,-3.755,-3.7246,-3.6485,-3.6096,-3.6096,-3.5014,-3.432,-3.3846,-3.2815,-3.1515,-3.0079,-2.9531,-2.8656,-2.7609,-2.6949,-2.6157,-2.5277,-2.3925,-2.2851,-2.2069,-2.1685,-2.1177,-2.0624,0.0,0.0,0.0,0.0,0.0,0.0,0.0,0.0,0.0,0.0,0.0,-1.7905,-1.8166,-1.8371,-1.8508,-1.8585,-1.9964,-2.0997,-2.1367,-2.3254,-2.4405,-2.4497,-2.5238,-2.5458,-2.5111,-2.5738,-2.5635,-2.4798,-2.4578,-2.4098,-2.3379,-2.1591,-2.0649,-2.031,-1.8442,-1.7177,-1.6336,-1.5664,-1.4732,-1.3899,-1.4755,-1.4545,-1.3732,-1.437,-1.4572,-1.4628,-1.5914,-1.6453,-1.6693,-1.7652,-1.8392,-1.8995,-1.9192,-1.9458,-1.9747,-1.9989,-2.1212,-2.285,-2.4505,0.0,0.0,-2.8868,-3.1009,-3.3207,-3.3865,-3.5359,-3.6988,-3.8405,-3.996,-4.1364,-4.2321,-4.3198,-4.3953,-4.4378,-4.4664,-4.4867,-4.481,-4.4222,-4.3559,-4.2883,-4.2315,-4.1751,-4.1121,-4.0582,-4.0237,-4.0121,-4.007,-4.007,-4.007,-3.958,-3.9106,-3.87,-3.7652,-3.6891,-3.6468,-3.591,-3.552,-3.5301,-3.4759,-3.4117,-3.3372,-3.2425,-3.1059,-2.9463,-2.9247,-2.8458,-2.7356,-2.6837,-2.611,-2.5114,-2.398,-2.2738,-2.1514,-2.0858,-2.0527,-2.0363,0.0,0.0,0.0,0.0,0.0,0.0,0.0,0.0,0.0,0.0,0.0,0.0,0.0,0.0,-1.831,-1.8566,-1.9087,-1.9946,-2.1312,-2.16,-2.2549,-2.4424,-2.4475,-2.4658,-2.5091,-2.5322,-2.5223,-2.4791,-2.4148,-2.3419,-2.2608,-2.0988,-2.0032,-1.9528,-1.7383,-1.6421,-1.6348,-1.5174,-1.4376,-1.3831,-1.3916,-1.3604,-1.2995,-1.2778,-1.3416,-1.4578,-1.5999,-1.6248,-1.6262,-1.8338,-1.92,-1.9509,-2.0145,-2.0749,0.0,-2.2251,-2.3418,-2.4631,0.0,0.0,-2.8341,-3.0948,-3.2872,-3.4434,-3.5569,-3.7662,-3.9245,-3.8792,-3.9968,-4.1206,-4.1549,-4.2558,-4.3474,-4.3942,-4.4895,-4.5491,-4.5299,-4.4154,-4.3194,-4.2855,-4.1309,-4.0581,0.0,-4.1059,-4.0655,-4.0121,-4.007,-4.007,-4.007,-4.0054,-3.9394,-3.799,-3.7889,-3.7161,-3.5673,-3.5639,-3.525,-3.4523,-3.4506,-3.4117,-3.3355,-3.1901,-3.0818,-3.0019,-2.933,-2.8533,-2.7788,-2.7754,-2.6582,-2.4771,-2.4149,-2.284,-2.1239,-2.0559,-2.0065,-1.972,0.0,0.0,0.0,0.0,0.0,0.0,0.0,0.0,0.0,0.0,0.0,0.0,0.0,0.0,0.0,0.0,-1.8289,-1.8839,-1.9308,-2.005,-2.0766,-2.1406,-2.2716,-2.357,-2.3907,-2.4715,-2.4939,-2.4529,-2.3771,-2.2694,-2.1315,-2.0293,-1.895,-1.7451,-1.6705,-1.576,-1.4664,-1.4272,-1.3554,-1.2755,-1.3152,-1.281,-1.2121,-1.2596,-1.2899,-1.3348,0.0,-1.6425,-1.6938,-1.7621,-1.8449,-1.9237,-1.9527,-2.0252,-2.1367,-2.3034,-2.3821,-2.4513,-2.6074,0.0,-2.844,-3.0405,-3.2587,-3.4398,-3.4926,-3.6524,-3.7922,-3.789,-3.7562,-3.7527,-3.8512,-3.961,-4.0708,-4.1705,-4.3635,-4.514,-4.557,-4.5009,-4.4007,-4.2504,-4.256,0.0,0.0,0.0,0.0,-4.0569,-4.0113,-3.9887,-4.0104,-3.9477,-3.8755,-3.7922,-3.7257,-3.6258,-3.4878,-3.4878,-3.4506,-3.3761,-3.3254,-3.2645,-3.1901,-3.092,-3.0074,-2.9313,-2.8552,-2.7774,-2.708,-2.708,-2.6184,-2.474,-2.4149,-2.2842,-2.1208,-2.0562,-2.007,-1.969,0.0,0.0,0.0,0.0,0.0,0.0,0.0,0.0,0.0,0.0,0.0,0.0,0.0,0.0,0.0,0.0,0.0,-1.7772,-1.7892,-1.8445,-1.8988,-1.9465,-2.0699,-2.1551,-2.1928,-2.2739,-2.2985,-2.2647,-2.2009,-2.0893,-1.9307,-1.8548,-1.7164,-1.5301,-1.4636,-1.374,-1.2721,-1.2128,-1.1551,-1.1135,-1.1776,-1.1549,-1.0978,-1.2021,-1.2802,0.0,-1.4814,-1.6513,-1.8085,-1.8032,-1.8847,-1.9894,-1.995,-2.0927,-2.2348,-2.3683,-2.4533,-2.5368,-2.6866,-2.8138,-2.9338,-3.0644,-3.2406,-3.3814,-3.3769,-3.4804,-3.5693,-3.5376,-3.4851,-3.4652,-3.532,-3.6592,-3.7877,-3.8871,-4.0909,-4.2879,-4.4277,-4.3598,-4.2833,-4.2545,-4.2604,0.0,0.0,0.0,0.0,-4.0509,-4.0026,-3.9593,-3.9342,-3.886,-3.8326,-3.7775,-3.7309,-3.6435,-3.5012,-3.5012,-3.4432,-3.3253,-3.232,-3.1512,-3.0784,-3.004,-2.9296,-2.8518,-2.7757,-2.6996,-2.6302,-2.6302,-2.553,-2.4265,-2.3881,-2.2704,-2.1161,-2.0722,-2.0208,-1.969,0.0,0.0,0.0,0.0,0.0,0.0,0.0,0.0,0.0,0.0,0.0,0.0,0.0,0.0,0.0,0.0,0.0,0.0,-1.702,-1.6727,-1.7173,-1.852,-1.8539,-1.8812,-1.9406,-1.9664,-1.9687,-1.9468,-1.9092,-1.8177,-1.6763,-1.5848,-1.4675,-1.3231,-1.146,-1.0629,-1.0549,-0.9023,-0.8626,-0.9121,-0.9963,-1.0048,-0.9746,-1.1233,-1.3151,-1.4992,-1.4568,-1.6592,-1.9511,-1.9515,0.0,0.0,-2.1422,-2.2711,-2.4222,-2.4319,-2.5545,-2.7078,-2.7949,-2.9375,-3.0818,-3.1505,-3.2279,-3.2731,-3.2156,-3.2637,-3.2835,-3.1549,-3.1985,-3.2496,0.0,0.0,-3.5145,-3.5734,-3.7293,-3.9302,-4.1866,-4.0526,-4.0269,0.0,0.0,0.0,0.0,0.0,0.0,-3.9948,0.0,-3.9267,-3.8018,-3.8384,-3.8296,-3.7559,-3.7993,-3.7435,-3.5842,-3.5701,-3.4723,-3.2882,-3.1684,-3.0755,-3.0044,-2.9299,-2.8537,-2.7723,-2.6962,-2.6234,-2.5541,-2.5541,-2.4695,-2.3393,-2.3393,-2.2441,-2.1023,-2.1023,-2.0481,-1.9711,0.0,0.0,0.0,0.0,0.0,0.0,0.0,0.0,0.0,0.0,0.0,0.0,0.0,0.0,0.0,0.0,0.0,0.0,-1.4905,-1.4811,-1.5009,-1.5569,-1.6866,-1.7787,-1.831,-1.9143,-1.9431,-1.9123,-1.805,-1.6663,-1.5023,-1.3749,-1.2743,-1.2027,-1.1575,-0.9866,-0.7349,-0.7624,-0.7879,-0.8265,-0.9971,-1.0724,-1.1036,-1.3493,-1.498,-1.5862,0.0,0.0,0.0,0.0,0.0,0.0,0.0,-2.3713,-2.4451,-2.5764,-2.6456,-2.7157,-2.8727,-2.9466,-2.9851,-3.0035,-3.0656,-3.0942,-2.9896,-3.0171,-3.049,-2.9938,-2.9198,-2.8652,0.0,0.0,0.0,-3.4757,-3.8567,0.0,-4.3786,-4.4093,0.0,0.0,0.0,-4.3277,-4.2735,-4.2263,0.0,0.0,-4.0474,-3.9789,-3.9073,-3.8947,-3.8655,-3.8104,-3.7432,-3.6452,-3.5102,-3.3055,-3.1741,-3.1182,-3.0333,-2.9989,-3.0066,-2.9039,-2.813,-2.7356,-2.6315,-2.5456,-2.4763,-2.4763,-2.4222,-2.3393,-2.3393,-2.2608,-2.143,-2.143,-2.091,-2.0158,0.0,0.0,0.0,0.0,0.0,0.0,0.0,0.0,0.0,0.0,0.0,0.0,0.0,0.0,0.0,0.0,0.0,0.0,0.0,-1.4012,-1.4032,-1.386,-1.5237,-1.6095,-1.6323,-1.7535,-1.7637,-1.654,-1.6693,0.0,-1.2949,-1.0674,-0.8926,-0.7586,-0.6352,-0.4866,-0.3324,-0.3967,-0.4968,0.0,0.0,-1.1057,-1.1995,-1.4811,-1.6344,0.0,0.0,0.0,0.0,0.0,0.0,-2.3736,-2.4591,-2.4966,-2.5348,-2.6703,0.0,-2.7636,-2.901,-2.9682,-2.9933,-2.9528,-2.9745,-2.9644,-2.7988,-2.8137,-2.8307,-2.7266,-2.6861,0.0,0.0,0.0,0.0,0.0,0.0,0.0,-4.211,-4.2549,-4.2904,0.0,-4.3488,0.0,-4.2323,-4.2094,-4.165,0.0,-4.0438,-3.9874,-3.9014,-3.9011,-3.86,-3.7648,-3.7241,-3.6195,-3.4371,-3.2325,-3.1076,-3.0677,-3.0044,-2.9612,-2.9327,-2.8355,-2.7592,-2.6967,0.0,-2.4864,-2.4489,-2.4137,-2.3579,-2.2919,-2.2919,-2.2383,-2.1582,-2.1582,-2.1054,-2.0314,0.0,0.0,0.0,0.0,0.0,0.0,0.0,0.0,0.0,0.0,0.0,0.0,0.0,0.0,0.0,0.0,0.0,0.0,0.0,0.0,0.0,0.0,-1.4115,-1.4568,-1.4434,-1.5834,-1.5584,0.0,0.0,0.0,-1.0091,-0.6625,-0.37,-0.1185,0.1066,0.1863,0.1506,0.1364,-0.0644,-0.4077,-0.7969,-1.0756,-1.2914,0.0,0.0,0.0,0.0,0.0,0.0,0.0,-2.3798,-2.4897,-2.566,-2.602,-2.6351,-2.7213,-2.7695,-2.8148,-2.9083,-3.0004,-3.0447,-2.9413,-2.9198,-2.8625,-2.6343,-2.6365,-2.6357,-2.4469,0.0,-2.5641,-2.5024,0.0,-2.8501,-2.9745,0.0,-3.5172,-3.9262,-3.9241,-4.0063,-4.3484,-4.2451,-4.1487,-4.1538,-4.1381,-4.0874,-3.9866,-3.9956,-3.959,-3.8503,-3.8834,-3.8303,-3.6714,-3.6876,-3.5917,-3.3561,-3.2309,-3.1333,-3.062,-3.0131,-2.9339,-2.8289,-2.7579,-2.6995,-2.6377,0.0,0.0,-2.4211,-2.3524,-2.2885,-2.231,-2.231,-2.2032,-2.1688,-2.1688,-2.1134,-2.0382,0.0,0.0,0.0,0.0,0.0,0.0,0.0,0.0,0.0,0.0,0.0,0.0,0.0,0.0,0.0,0.0,0.0,0.0,0.0,0.0,0.0,0.0,-1.4783,-1.5263,-1.5126,-1.635,0.0,0.0,0.0,0.0,0.0,-0.0716,0.269,0.555,0.4939,0.5859,0.7923,0.8385,0.4343,-0.2505,-0.431,-0.8719,-1.4483,0.0,0.0,0.0,0.0,0.0,0.0,0.0,-2.3766,-2.5134,-2.5226,-2.5615,-2.6207,-2.7006,-2.7452,-2.802,-2.9598,-3.0311,-3.0263,-2.8762,-2.8351,-2.7632,-2.496,-2.4809,0.0,0.0,0.0,-2.4991,-2.4911,-2.6648,0.0,-3.1346,0.0,0.0,0.0,0.0,-4.1877,0.0,0.0,0.0,0.0,0.0,0.0,0.0,0.0,-3.8862,-3.8652,-3.8716,-3.8016,-3.6406,-3.5119,-3.3762,-3.2314,-3.0776,-2.9954,-2.9791,-2.9035,-2.842,-2.79,-2.7425,-2.6483,-2.5151,-2.4365,0.0,-2.3005,-2.2626,-2.2429,-2.231,-2.231,-2.2237,-2.218,-2.218,-2.1615,-2.0813,0.0,0.0,0.0,0.0,0.0,0.0,0.0,0.0,0.0,0.0,-1.8782,0.0,0.0,0.0,0.0,0.0,0.0,0.0,0.0,0.0,0.0,0.0,0.0,0.0,0.0,0.0,0.0,0.0,0.0,0.0,0.0,0.0,0.0,0.0,0.0,0.0,0.0,0.9555,0.4768,-0.2364,0.0,0.0,0.0,0.0,0.0,0.0,0.0,0.0,0.0,0.0,-2.2794,-2.3555,-2.446,-2.5116,-2.5838,-2.7101,-2.7424,-2.7786,-2.9606,-3.0243,-3.002,-2.8515,-2.8104,-2.7203,-2.3961,0.0,0.0,0.0,-2.3785,-2.4839,-2.5023,0.0,0.0,0.0,0.0,0.0,0.0,0.0,0.0,0.0,0.0,0.0,0.0,0.0,0.0,0.0,0.0,-3.7624,-3.8046,-3.7257,-3.6229,-3.5037,-3.3807,-3.2517,-3.1091,-3.029,-2.9689,-2.9282,-2.847,-2.7887,-2.7445,-2.6452,-2.5613,-2.4908,-2.3763,0.0,-2.3275,-2.2569,-2.2388,-2.25,-2.2332,-2.231,-2.2282,-2.2032,-2.1538,-2.0878,0.0,0.0,0.0,0.0,0.0,0.0,0.0,-1.8342,-1.867,-2.0157,-1.9832,-1.9144,-1.8281,-1.7173,0.0,0.0,0.0,0.0,0.0,0.0,0.0,0.0,0.0,0.0,0.0,0.0,0.0,0.0,0.0,0.0,0.0,0.0,0.0,0.0,0.0,0.0,0.0,0.0,0.4908,0.0,0.0,0.0,0.0,0.0,0.0,0.0,0.0,0.0,0.0,0.0,-2.1214,-2.1296,-2.2678,-2.3832,-2.4969,-2.6447,-2.6948,-2.7418,-2.9197,-2.9934,-2.986,-2.8443,-2.8053,-2.7095,-2.3618,-2.3875,0.0,0.0,-2.3695,-2.4935,-2.5173,0.0,0.0,0.0,0.0,0.0,0.0,0.0,0.0,0.0,0.0,0.0,0.0,0.0,0.0,0.0,0.0,0.0,-3.7184,-3.5661,-3.4495,-3.3913,-3.2713,-3.1427,-3.0047,-2.9793,-2.9292,-2.8484,-2.7842,-2.7287,-2.6783,-2.5552,-2.4933,-2.4761,-2.3465,0.0,0.0,-2.2882,-2.2563,-2.2669,-2.2463,-2.2349,-2.2237,-2.1764,-2.1259,-2.0684,0.0,0.0,0.0,0.0,0.0,0.0,0.0,-1.8446,-1.9508,-2.1233,-2.1384,-2.0607,-1.8657,-1.6697,0.0,0.0,0.0,0.0,0.0,0.0,0.0,0.0,0.0,0.0,0.0,0.0,0.0,0.0,0.0,0.0,0.0,0.0,0.0,0.0,0.0,0.0,0.0,0.0,0.0,0.0,0.0,0.0,0.0,0.0,0.0,0.0,0.0,0.0,0.0,0.0,0.0,-1.8895,-1.8931,-2.081,-2.3168,-2.3923,0.0,0.0,-2.8267,-2.9393,-2.986,-2.8443,-2.8053,-2.7276,-2.4488,0.0,0.0,-2.3652,-2.4328,-2.5127,-2.5257,-2.5535,-2.6294,0.0,0.0,-2.998,0.0,0.0,0.0,0.0,0.0,0.0,0.0,0.0,0.0,0.0,0.0,0.0,-3.6321,-3.4816,-3.3994,-3.4154,-3.1734,-3.0107,-2.9483,-2.8507,-2.7622,-2.6833,-2.6759,-2.6298,-2.5564,-2.5417,-2.4955,-2.4235,-2.3807,0.0,0.0,-2.3271,-2.2947,-2.2695,-2.2669,-2.2527,-2.2237,-2.1764,-2.1054,-2.0138,0.0,0.0,0.0,0.0,0.0,0.0,0.0,-1.77,-1.8399,-2.0388,-2.0162,-1.936,-1.8191,-1.616,0.0,0.0,0.0,0.0,0.0,0.0,0.0,0.0,0.0,0.0,0.0,0.0,0.0,0.0,0.0,0.0,0.0,0.0,0.0,0.0,0.0,0.0,0.0,0.0,0.0,0.0,0.0,0.0,0.0,0.0,0.0,0.0,0.0,0.0,0.0,0.0,0.0,0.0,-1.6766,-1.7729,0.0,0.0,-2.3853,-2.523,-2.6859,-2.7832,-2.8179,-2.7346,-2.6775,-2.5879,-2.3759,0.0,-2.4147,-2.324,-2.4187,-2.5206,-2.5388,-2.5526,-2.5837,-2.657,0.0,0.0,0.0,0.0,0.0,0.0,0.0,0.0,0.0,0.0,0.0,0.0,0.0,0.0,-3.3556,-3.3426,-3.2865,-3.1813,-3.0519,-2.9388,-2.8439,-2.7771,-2.7155,-2.6612,-2.6222,-2.5816,-2.5384,-2.4887,-2.4386,-2.3896,-2.3774,0.0,0.0,-2.3346,-2.3117,-2.2972,-2.2772,-2.2537,-2.2237,-2.1764,-2.1022,-2.0054,0.0,0.0,0.0,0.0,0.0,0.0,-1.6193,-1.641,-1.7059,-1.8936,-1.8472,-1.7699,-1.7064,-1.5024,-1.3045,-1.1344,0.0,0.0,0.0,0.0,0.0,0.0,0.0,0.0,0.0,0.0,0.0,0.0,0.0,0.0,0.0,0.0,0.0,0.0,0.0,0.0,0.0,0.0,0.0,0.0,0.0,0.0,0.0,0.0,0.0,0.0,0.0,0.0,0.0,0.0,0.0,0.0,0.0,0.0,0.0,0.0,-2.2171,-2.3701,-2.5342,-2.6377,-2.6906,-2.6564,-2.5874,-2.4979,0.0,0.0,-2.3937,-2.3564,-2.443,-2.5311,-2.5464,-2.5551,-2.5601,-2.5603,0.0,-2.6289,0.0,0.0,0.0,0.0,0.0,0.0,0.0,0.0,0.0,0.0,0.0,0.0,0.0,-3.1491,-3.1248,-3.0166,-2.9551,-2.8651,-2.7362,-2.702,-2.6573,-2.606,-2.5631,-2.5352,-2.5208,-2.4561,-2.4154,-2.3923,0.0,0.0,0.0,-2.3588,-2.3455,-2.3305,-2.2972,-2.2678,-2.2343,-2.1688,-2.0879,-2.007,0.0,0.0,0.0,0.0,0.0,0.0,0.0,-1.4572,-1.5852,-1.7084,-1.6764,-1.6075,-1.5229,-1.3169,-1.0902,-0.8561,0.0,0.0,0.0,0.0,0.0,0.0,0.0,0.0,0.0,0.0,0.0,0.0,0.0,0.0,0.0,0.0,0.0,0.0,0.0,0.0,0.0,0.0,0.0,0.0,0.0,0.0,0.0,0.0,0.0,0.0,0.0,0.0,0.0,0.0,0.0,0.0,0.0,-1.5116,-1.6055,0.0,-2.0229,-2.2591,-2.3797,-2.5299,-2.6488,-2.6407,-2.5713,-2.5066,0.0,0.0,-2.4336,-2.5199,-2.5388,-2.5417,-2.5483,-2.5558,-2.5592,-2.5605,-2.5664,0.0,0.0,0.0,0.0,0.0,0.0,0.0,0.0,0.0,0.0,0.0,0.0,0.0,0.0,-2.8976,-2.914,-2.9992,-2.8966,-2.7736,-2.6333,-2.6109,-2.5623,-2.4808,-2.4808,-2.4808,-2.4808,-2.4575,-2.4495,0.0,0.0,0.0,0.0,-2.419,-2.3996,-2.3671,-2.3323,-2.2996,-2.2565,-2.1428,-2.0668,-1.9986,0.0,0.0,0.0,0.0,0.0,0.0,0.0,-1.2282,-1.3151,-1.4059,-1.3646,-1.3119,-1.2682,-1.0839,-0.8841,-0.6968,0.0,0.0,0.0,0.0,0.0,0.0,0.0,0.0,0.0,0.0,0.0,0.0,0.0,0.0,0.0,0.0,0.0,0.0,0.0,0.0,0.0,0.0,0.0,0.0,0.0,0.0,0.0,0.0,0.0,0.0,0.0,0.0,0.0,0.0,0.0,0.0,0.0,0.0,0.0,-1.5778,-1.7838,-2.0102,-2.1618,-2.2858,-2.3878,-2.4632,-2.4024,-2.3438,-2.4264,0.0,-2.342,-2.4382,-2.5017,-2.5407,-2.5434,-2.5493,-2.5531,-2.5523,-2.5621,0.0,0.0,0.0,0.0,0.0,0.0,0.0,0.0,0.0,0.0,0.0,0.0,0.0,0.0,-2.797,-2.7873,-2.788,-2.7419,-2.6816,-2.609,-2.5711,-2.5266,-2.4804,-2.4804,-2.4731,-2.4591,-2.4528,0.0,0.0,0.0,0.0,0.0,-2.441,-2.4135,-2.3671,-2.3346,-2.2996,-2.2591,-2.1728,-2.0653,-1.9542,0.0,0.0,0.0,0.0,0.0,0.0,0.0,-0.9925,-1.0414,-1.1151,-1.0475,-0.9942,-1.001,-0.8056,-0.6278,-0.5117,0.0,0.0,0.0,0.0,0.0,0.0,0.0,0.0,0.0,0.0,0.0,0.0,0.0,0.0,0.0,0.0,0.0,0.0,0.0,0.0,0.0,0.0,0.0,0.0,0.0,0.0,-0.9013,0.0,0.0,0.0,0.0,0.0,0.0,0.0,0.0,0.0,0.0,0.0,0.0,0.0,-1.6387,-1.8082,0.0,-2.1295,-2.2507,-2.3418,-2.3086,0.0,0.0,0.0,-2.3265,-2.424,-2.4876,-2.5244,-2.5244,-2.5395,-2.5498,-2.55,-2.5613,0.0,0.0,0.0,0.0,0.0,0.0,0.0,0.0,0.0,0.0,0.0,0.0,0.0,0.0,-2.681,-2.6529,-2.6185,-2.6447,-2.6312,-2.5747,-2.5439,-2.5201,-2.4994,-2.4994,-2.4923,-2.4799,-2.4723,0.0,0.0,0.0,0.0,0.0,-2.4495,-2.4266,-2.3837,-2.3392,-2.3069,-2.2754,-2.1757,-2.0653,-1.9592,0.0,0.0,0.0,0.0,0.0,0.0,0.0,0.0,0.0,0.0,-0.7274,-0.6673,-0.702,-0.4882,-0.3352,0.0,0.0,0.0,0.0,0.0,0.0,0.0,0.0,0.0,0.0,0.0,0.0,1.8916,1.91,1.9235,1.9269,0.0,0.0,0.0,0.0,0.0,0.0,0.0,0.0,0.0,0.0,0.0,0.0,0.0,0.0,0.0,0.0,0.0,0.0,0.0,0.0,0.0,0.0,0.0,0.0,0.0,0.0,0.0,0.0,-2.045,0.0,0.0,0.0,0.0,0.0,0.0,0.0,-2.4601,-2.4904,-2.4998,-2.501,-2.5266,-2.5479,-2.5508,-2.5605,0.0,0.0,0.0,0.0,0.0,0.0,0.0,0.0,0.0,0.0,0.0,0.0,0.0,0.0,-2.5644,-2.5194,-2.4939,-2.5953,-2.613,-2.5322,-2.5322,-2.5303,-2.5303,-2.5293,-2.5284,-2.5284,-2.5088,0.0,0.0,0.0,0.0,0.0,-2.4528,-2.441,-2.4152,-2.3459,-2.3153,-2.2915,-2.1529,-2.0571,-1.9856,0.0,0.0,0.0,0.0,0.0,0.0,0.0,0.0,0.0,0.0,0.0,-0.351,-0.284,-0.1735,0.0,0.0,0.0,0.0,0.0,0.0,0.0,0.0,0.0,0.0,0.0,0.0,0.0,1.8015,2.0099,2.017,1.8306,1.7473,0.0,0.0,0.0,0.0,0.0,0.0,0.0,0.0,0.0,0.0,0.0,0.0,0.0,0.0,-1.416,-1.5053,0.0,0.0,0.0,0.0,0.0,0.0,0.0,0.0,-1.6208,-1.7691,-1.7902,0.0,-2.1111,-2.2048,-2.2224,-2.2503,0.0,0.0,0.0,0.0,0.0,-2.4877,-2.4986,-2.511,-2.5267,-2.5473,-2.5564,0.0,0.0,0.0,0.0,0.0,0.0,0.0,0.0,0.0,0.0,0.0,0.0,0.0,0.0,-2.5389,-2.5005,-2.4336,-2.5208,-2.5572,-2.5379,-2.5379,-2.5387,-2.5376,-2.5225,-2.5139,-2.5139,-2.5042,0.0,0.0,0.0,0.0,-2.4872,-2.4771,-2.4607,-2.4356,-2.353,-2.2706,-2.1885,-2.1242,-1.9878,-1.8259,0.0,0.0,0.0,0.0,0.0,0.0,0.0,0.0,0.0,0.0,0.0,0.0,0.0,0.0,0.0,0.0,0.0,0.0,0.0,0.0,0.0,0.0,0.0,0.0,0.0,0.0,0.0,0.0,0.0,1.9572,0.0,0.0,0.0,0.0,0.0,0.0,0.0,0.0,0.0,0.0,0.2854,0.0,0.0,0.0,0.0,0.0,-1.1833,-1.3362,0.0,-1.4744,-1.4699,-1.419,0.0,0.0,0.0,0.0,-1.6323,-1.7705,-1.7803,-1.9095,-2.055,-2.1142,-2.1667,-2.229,0.0,0.0,0.0,0.0,0.0,0.0,-2.4538,0.0,0.0,0.0,0.0,0.0,0.0,0.0,0.0,0.0,0.0,0.0,0.0,0.0,0.0,0.0,0.0,0.0,0.0,-2.4246,-2.4056,-2.3618,-2.4051,-2.4309,-2.4309,-2.4658,-2.4665,-2.429,-2.4186,-2.4308,-2.4626,-2.4251,-2.4494,0.0,0.0,0.0,-2.4415,-2.3871,-2.375,-2.3797,-2.2599,-2.2217,-2.215,-2.0657,-1.9311,-1.8019,0.0,0.0,0.0,0.0,0.0,0.0,0.0,0.0,0.0,0.0,0.0,0.0,0.0,0.0,0.0,0.0,0.0,0.0,0.0,0.0,0.0,0.0,0.0,0.0,0.0,0.0,0.0,0.0,0.0,0.0,0.0,0.0,1.472,0.0,0.0,0.0,0.0,0.0,0.0,0.0,0.4923,0.0,0.0,0.0,0.0,0.0,0.0,0.0,0.0,-1.4835,-1.5096,-1.4789,-1.532,0.0,0.0,0.0,0.0,0.0,-1.8039,-1.9258,-2.0351,-2.0293,-2.118,-2.2107,0.0,0.0,0.0,0.0,0.0,0.0,0.0,0.0,0.0,0.0,0.0,0.0,0.0,0.0,0.0,0.0,0.0,0.0,0.0,0.0,0.0,0.0,0.0,0.0,0.0,-2.3008,-2.2935,-2.2819,-2.2944,-2.2874,-2.2629,-2.3556,-2.3683,-2.3017,-2.3017,-2.3334,-2.3928,-2.3281,-2.3708,0.0,0.0,0.0,-2.3594,-2.2697,-2.26,-2.2922,-2.1574,-2.1728,-2.2384,-2.0122,-1.887,-1.8056,0.0,0.0,0.0,0.0,0.0,0.0,0.0,0.0,0.0,0.0,0.0,0.0,0.0,0.0,0.0,0.0,0.0,0.0,0.0,0.0,0.0,0.0,0.0,0.0,0.0,0.0,0.0,0.0,0.0,0.0,1.5034,1.466,1.2736,0.9555,0.0,0.0,0.0,0.0,0.0,0.0,0.0,0.0,0.0,0.0,0.0,0.0,0.0,0.0,0.0,-1.4354,-1.4789,-1.4709,-1.4789,0.0,0.0,0.0,0.0,0.0,-1.8612,-1.9692,-2.0585,-2.0348,-2.0989,-2.1757,0.0,0.0,0.0,0.0,0.0,0.0,0.0,0.0,0.0,0.0,0.0,0.0,0.0,0.0,0.0,0.0,0.0,0.0,0.0,0.0,0.0,0.0,0.0,0.0,0.0,-2.2995,-2.2686,-2.2012,-2.2642,-2.2323,-2.0894,-2.247,-2.3208,-2.3071,-2.3071,-2.3146,-2.3254,-2.302,-2.3114,0.0,0.0,-2.2955,-2.2991,-2.2573,-2.2407,-2.2403,-2.1992,-2.1167,-2.0238,-2.0083,-1.8897,-1.6924,0.0,0.0,0.0,0.0,0.0,0.0,0.0,0.0,0.0,0.0,0.0,0.0,0.0,0.0,0.0,0.0,0.0,0.0,0.0,0.0,0.0,0.0,0.0,0.0,0.0,0.0,0.0,0.0,0.0,1.5909,1.3928,1.3141,1.1963,1.0498,0.0,0.0,0.0,0.0,0.0,0.0,0.0,0.0,0.0,0.0,0.0,0.0,0.0,0.0,0.0,0.0,-1.5186,-1.5231,-1.5567,0.0,0.0,0.0,0.0,0.0,-1.8727,-1.9515,-2.0117,-2.0013,-2.0978,-2.1836,0.0,0.0,0.0,0.0,0.0,0.0,0.0,0.0,0.0,0.0,0.0,0.0,0.0,0.0,0.0,0.0,0.0,0.0,0.0,0.0,0.0,0.0,0.0,0.0,0.0,0.0,-2.0565,-1.9726,-2.0055,-1.9867,-1.9107,-1.9895,-2.0526,-2.0993,-2.0526,-2.0742,-2.1561,-2.1113,-2.164,-2.2899,0.0,-2.1776,-2.2092,-2.1348,-2.1278,-2.1505,-2.0553,-2.0114,-1.9898,-1.8467,-1.6168,-1.3556,0.0,0.0,0.0,0.0,0.0,0.0,0.0,0.0,0.0,0.0,0.0,0.0,0.0,0.0,0.0,0.0,0.0,0.0,0.0,0.0,0.0,0.0,0.0,0.0,0.0,0.0,1.3495,1.4068,1.5379,1.522,1.3688,1.262,1.2129,0.0,0.0,0.0,0.0,0.0,0.0,0.0,0.0,0.0,0.0,0.0,0.0,0.0,0.0,0.0,0.0,0.0,0.0,0.0,0.0,0.0,0.0,-1.7312,-1.7787,-1.8263,-1.8893,-1.9487,-1.9894,-1.9735,0.0,0.0,0.0,0.0,0.0,0.0,0.0,0.0,0.0,0.0,0.0,0.0,0.0,0.0,0.0,0.0,0.0,0.0,0.0,0.0,0.0,0.0,0.0,0.0,0.0,0.0,0.0,0.0,-1.8594,-1.793,-1.7858,-1.7831,-1.7831,-1.7594,-1.7956,-1.8884,-1.8228,-1.8544,-1.9716,-1.9101,-1.9957,-2.1814,-2.0578,-2.0488,-2.1123,-2.0288,-2.0231,-2.0527,-1.9359,-1.9152,-1.9197,-1.6427,-1.355,-1.0869,0.0,0.0,0.0,0.0,0.0,0.0,0.0,0.0,0.0,0.0,0.0,0.0,0.0,0.0,0.0,0.0,0.0,0.0,0.0,0.0,0.0,0.0,0.0,0.0,0.0,1.37,1.3739,1.3926,1.5024,1.5321,1.4878,1.3915,1.3454,1.3408,0.0,0.0,0.0,0.0,0.0,0.4264,0.0,0.0,0.0,0.0,0.0,0.0,0.0,0.0,0.0,0.0,0.0,0.0,0.0,0.0,-1.671,-1.7747,-1.8066,-1.8341,-1.9369,-2.0117,-2.0498,-1.9863,-2.0071,0.0,-2.1984,0.0,0.0,0.0,0.0,0.0,0.0,0.0,0.0,0.0,0.0,0.0,0.0,0.0,0.0,0.0,0.0,0.0,0.0,0.0,0.0,0.0,0.0,0.0,0.0,0.0,0.0,-1.7905,-1.7728,-1.7612,-1.7612,-1.6709,-1.683,-1.7997,-1.7922,-1.7961,-1.8061,-1.782,-1.8258,-1.9168,-1.9051,-1.9502,-2.0286,-2.0138,-1.9906,-1.963,-1.9747,-1.8656,-1.6669,-1.4412,-1.2582,-1.0799,0.0,0.0,0.0,0.0,0.0,0.0,0.0,0.0,0.0,0.0,0.0,0.0,0.0,0.0,0.0,0.0,0.0,0.0,0.0,0.0,0.0,0.0,0.0,0.9813,1.1877,1.2339,1.2705,1.2915,1.3853,1.5142,1.6654,1.5587,0.0,0.0,0.0,0.0,0.0,0.0,0.6076,0.26,-0.1225,0.0,0.0,0.0,0.0,0.0,0.0,0.0,0.0,0.0,-1.6522,-1.6522,-1.6522,-1.6522,-1.6637,-1.7394,-1.7827,-1.8263,-1.9006,-1.9945,-2.0533,-1.9865,-1.9868,0.0,0.0,0.0,0.0,0.0,0.0,0.0,0.0,0.0,0.0,0.0,0.0,0.0,0.0,0.0,0.0,0.0,0.0,0.0,0.0,0.0,0.0,0.0,0.0,0.0,0.0,0.0,0.0,-1.605,-1.5969,-1.5933,-1.5933,-1.5423,-1.5403,-1.5845,-1.5971,-1.6304,-1.6784,-1.6705,-1.7148,-1.798,-1.8061,-1.8276,-1.8625,-1.9148,-1.9186,-1.8847,-1.7958,-1.7135,-1.588,-1.1244,-0.8182,-0.5967,0.0,0.0,0.0,0.0,0.0,0.0,0.0,0.0,0.0,0.0,0.0,0.0,0.0,0.0,0.0,0.0,0.0,0.0,0.0,0.0,0.0,0.0,0.0,0.8502,1.0224,1.1136,1.1979,1.2741,1.3929,1.568,1.7899,0.0,0.0,0.0,0.0,0.0,0.0,0.0,0.4477,0.0053,-0.4013,-0.7514,0.0,0.0,0.0,0.0,0.0,0.0,0.0,0.0,-1.5932,-1.5932,-1.5932,-1.5932,-1.6051,-1.6799,-1.7286,-1.772,-1.8444,-1.9262,-1.9764,0.0,0.0,0.0,0.0,0.0,0.0,0.0,0.0,0.0,0.0,0.0,0.0,0.0,0.0,0.0,0.0,0.0,0.0,0.0,0.0,0.0,0.0,0.0,0.0,0.0,0.0,0.0,0.0,0.0,0.0,0.0,-1.4765,-1.4719,-1.4651,-1.4379,-1.424,-1.424,-1.4334,-1.4773,-1.5526,-1.5486,-1.5974,-1.6833,-1.6876,-1.7128,-1.7525,-1.8137,-1.8387,-1.8046,-1.4894,-1.3189,-1.1737,-0.5947,-0.2416,-0.0393,0.0,0.0,0.0,0.0,0.0,0.0,0.0,0.0,0.0,0.0,0.0,0.0,0.0,0.0,0.0,0.0,0.0,0.0,0.0,0.0,0.0,0.0,0.0,0.8151,0.9072,1.0379,1.1919,1.3708,1.5563,1.7156,1.8419,1.8278,0.0,0.0,0.0,0.0,0.0,0.0,0.1351,-0.3545,-0.7143,-0.9918,-1.1963,0.0,0.0,0.0,0.0,0.0,0.0,0.0,-1.4698,-1.4698,-1.4698,-1.4698,-1.4915,-1.6046,-1.6391,-1.6634,-1.776,-1.8106,-1.8106,0.0,0.0,0.0,0.0,0.0,0.0,0.0,0.0,0.0,0.0,0.0,0.0,0.0,0.0,0.0,0.0,0.0,0.0,0.0,0.0,0.0,0.0,0.0,0.0,0.0,0.0,0.0,0.0,0.0,0.0,0.0,-1.4449,-1.4301,-1.4105,-1.3704,-1.3478,-1.3496,-1.3291,-1.3581,-1.4286,-1.415,-1.4629,-1.5575,-1.5436,-1.6072,-1.717,-1.7192,-1.7399,-1.7056,-1.0606,-0.6412,-0.3365,0.1761,0.4402,0.5577,0.0,0.0,0.0,0.0,0.0,0.0,0.0,0.0,0.0,0.0,0.0,0.0,0.0,0.0,0.0,0.0,0.0,0.0,0.0,0.0,0.0,0.0,0.0,0.0,0.0,0.0,1.423,1.4626,1.5739,1.7516,0.0,0.0,0.0,1.8887,0.0,0.0,0.0,0.0,0.0518,-0.428,-0.7939,-1.0622,-1.258,0.0,0.0,0.0,0.0,0.0,0.0,0.0,0.0,0.0,-1.4698,-1.4698,-1.4744,-1.5096,-1.5784,-1.6464,-1.6802,-1.7853,0.0,0.0,0.0,0.0,0.0,0.0,0.0,0.0,0.0,0.0,0.0,0.0,0.0,0.0,0.0,0.0,0.0,0.0,0.0,0.0,0.0,0.0,0.0,0.0,0.0,0.0,0.0,0.0,0.0,0.0,0.0,0.0,-1.3876,-1.3747,-1.3689,-1.3275,-1.3075,-1.3075,-1.2648,-1.2817,-1.3522,-1.3478,-1.3632,-1.3918,-1.3923,-1.4257,-1.4549,-1.1314,-1.0465,-1.0472,-0.3217,0.1066,0.3534,0.6863,1.0328,1.3213,0.0,0.0,0.0,0.0,0.0,0.0,0.0,0.0,0.0,0.0,1.4382,0.0,0.0,0.0,0.0,0.0,0.0,0.0,0.0,0.0,0.0,0.0,0.0,0.0,0.0,1.3658,1.5216,0.0,0.0,0.0,0.0,0.0,0.0,1.9487,0.0,1.2624,0.0,0.0,-0.1498,-0.6273,-0.9292,-1.1481,-1.2861,0.0,0.0,0.0,0.0,0.0,0.0,0.0,0.0,0.0,-1.3978,-1.3978,-1.4025,-1.4283,-1.4812,-1.5419,-1.5652,0.0,0.0,0.0,0.0,0.0,0.0,0.0,0.0,0.0,0.0,0.0,0.0,0.0,0.0,0.0,0.0,0.0,0.0,0.0,0.0,0.0,0.0,0.0,0.0,0.0,0.0,0.0,0.0,0.0,0.0,0.0,0.0,0.0,-1.3357,-1.3176,-1.2957,-1.2595,-1.2289,-1.2029,-1.1583,-1.1459,-1.1627,-1.2278,-1.2551,-1.2438,-1.1911,-1.1298,-1.0415,-0.7189,-0.4264,-0.1355,0.3189,0.7482,1.1246,1.2626,1.4876,1.7199,0.0,0.0,0.0,0.0,0.0,0.0,0.0,0.0,0.0,0.0,1.4782,1.4947,0.0,0.0,0.0,0.0,0.0,0.0,0.0,0.0,0.0,0.0,0.0,0.0,0.0,0.0,0.0,0.0,0.0,0.0,0.0,0.0,1.9644,1.958,0.0,1.121,0.558,0.0709,-0.4206,-0.8848,-1.0939,-1.2236,-1.2881,-1.2832,0.0,0.0,0.0,0.0,0.0,0.0,0.0,0.0,-1.2881,-1.2832,-1.291,-1.3447,-1.3674,-1.3815,-1.4376,0.0,0.0,0.0,0.0,0.0,0.0,0.0,0.0,0.0,0.0,0.0,0.0,0.0,0.0,0.0,0.0,0.0,0.0,0.0,0.0,0.0,0.0,0.0,0.0,0.0,0.0,0.0,0.0,0.0,0.0,0.0,0.0,-1.2827,-1.2791,-1.2498,-1.1984,-1.167,-1.1211,-1.0572,-1.0241,-0.9717,-0.9091,-1.062,-1.1183,-1.0886,-0.9456,-0.7642,-0.5567,-0.3877,0.1338,0.8337,0.8884,1.3011,1.8577,1.8198,1.8148,1.8403,0.0,0.0,0.0,0.0,0.0,0.0,0.0,0.0,0.0,0.0,0.0,0.0,0.0,0.0,0.0,0.0,0.0,0.0,0.0,0.0,0.0,0.0,0.0,0.0,0.0,0.0,0.0,0.0,0.0,0.0,0.0,0.0,0.0,1.8433,0.0,0.8638,0.4175,-0.1282,-0.5836,-0.9539,-1.1139,-1.2236,-1.2822,-1.2236,-1.203,0.0,0.0,0.0,0.0,0.0,0.0,0.0,-1.2881,-1.2501,-1.207,-1.2209,-1.2589,-1.3062,0.0,-1.4018,0.0,0.0,0.0,0.0,0.0,0.0,0.0,0.0,0.0,0.0,0.0,0.0,0.0,0.0,0.0,0.0,0.0,0.0,0.0,0.0,0.0,0.0,0.0,0.0,0.0,0.0,0.0,0.0,0.0,0.0,0.0,-1.2262,-1.186,-1.1439,-1.1002,-1.0427,-0.9916,0.0,-0.8878,-0.8306,-0.7832,-0.8754,-0.8604,-0.7572,-0.6519,-0.5311,-0.3589,0.2733,0.6725,0.9368,1.4724,1.7929,1.9482,1.9251,1.9369,1.9642,0.0,0.0,0.0,0.0,0.0,0.0,0.0,0.0,0.0,0.0,0.0,0.0,0.0,0.0,0.0,0.0,0.0,0.0,0.0,0.0,0.0,0.0,0.9478,1.1743,1.3766,1.4716,0.0,0.0,0.0,0.0,0.0,0.0,0.0,1.3982,0.0,0.5198,0.0695,-0.3875,-0.7725,-1.0739,-1.1895,-1.2559,-1.2822,-1.208,-1.1814,-1.1814,-1.1814,0.0,0.0,0.0,0.0,0.0,0.0,0.0,-1.2236,-1.1913,-1.2052,-1.2337,0.0,0.0,0.0,0.0,0.0,0.0,0.0,0.0,0.0,0.0,0.0,0.0,0.0,0.0,0.0,0.0,0.0,0.0,0.0,0.0,0.0,0.0,0.0,0.0,0.0,0.0,0.0,0.0,0.0,0.0,0.0,-1.1424,-1.1187,-1.1002,-1.0889,-1.046,-0.9742,-0.9171,-0.8543,-0.7855,-0.7054,-0.5958,-0.4715,-0.5966,-0.5617,-0.393,-0.2412,-0.0372,0.2272,0.7589,1.0738,1.2679,1.6836,1.8896,1.95,1.9439,1.9709,2.0198,0.0,0.0,0.0,0.0,0.0,0.0,0.0,0.0,0.0,0.0,0.0,0.0,0.0,0.0,0.0,0.0,0.0,0.0,0.0,0.0,0.0,0.0,1.033,1.1733,1.3608,1.4159,1.4422,0.0,0.0,0.0,0.0,0.0,0.0,0.8533,0.0,0.1195,-0.331,-0.6665,-0.9575,-1.203,-1.2666,-1.2881,-1.2832,-1.1931,-1.1616,-1.1616,-1.1516,-1.1458,-1.1566,-1.2304,0.0,0.0,0.0,0.0,-1.2403,-1.1805,-1.1557,-1.1458,0.0,0.0,0.0,0.0,0.0,0.0,0.0,0.0,0.0,0.0,0.0,0.0,0.0,0.0,0.0,0.0,0.0,0.0,0.0,0.0,0.0,0.0,0.0,0.0,0.0,0.0,0.0,0.0,0.0,0.0,-1.0667,-1.0581,-1.0233,-0.9627,-0.9742,-0.9331,-0.8316,-0.7761,-0.6986,-0.5952,-0.4822,-0.3167,-0.121,-0.2377,-0.197,-0.0266,0.1907,0.493,0.8487,1.1049,1.3615,1.6046,1.7303,1.8367,1.9213,1.9267,1.9628,2.0318,0.0,0.0,0.0,0.0,0.0,0.0,0.0,0.0,0.0,0.0,1.3211,0.0,0.0,0.0,0.0,0.0,0.0,0.0,0.0,0.0,0.0,0.0,1.0241,1.1328,1.2677,1.3177,1.3326,0.0,0.0,0.0,0.0,0.0,0.0,0.4428,0.0,0.0,-0.6059,-0.9069,-1.1297,-1.2774,-1.2871,-1.2881,-1.2774,-1.1434,-1.0914,0.0,-1.0261,-1.0064,-1.0167,-1.0872,-1.1475,0.0,0.0,0.0,-1.1057,-1.0981,-1.0511,-1.0064,0.0,0.0,0.0,0.0,0.0,0.0,0.0,0.0,0.0,0.0,0.0,0.0,0.0,0.0,0.0,0.0,0.0,0.0,0.0,0.0,0.0,0.0,0.0,0.0,0.0,0.0,0.0,0.0,0.0,0.0,-1.0428,-0.9575,-0.9016,-0.8844,-0.8261,-0.7549,-0.6707,-0.5906,-0.5075,-0.4225,-0.1923,-0.0249,0.0939,0.2461,0.3054,0.3014,0.5329,0.7816,1.0431,1.2737,1.4759,1.652,1.7681,1.8572,1.9198,1.921,1.9563,2.0164,0.0,0.0,0.0,0.0,0.0,0.0,0.0,0.0,0.0,0.0,0.0,0.9173,0.0,0.0,0.0,0.0,0.0,0.0,0.0,0.0,0.0,0.0,0.0,0.0,1.1588,1.1798,0.0,0.0,0.0,0.0,0.0,0.1821,0.0358,0.0,0.0,0.0,0.0,0.0,-1.1972,-1.2881,-1.2881,-1.2881,-1.2725,0.0,0.0,0.0,0.0,0.0,0.0,-1.0559,-1.1015,-1.1275,-1.1554,0.0,0.0,0.0,-0.9872,0.0,-0.9162,0.0,0.0,0.0,0.0,0.0,0.0,0.0,0.0,0.0,0.0,0.0,0.0,0.0,0.0,0.0,0.0,0.0,0.0,0.0,0.0,0.0,0.0,0.0,0.0,0.0,0.0,0.0,0.0,-0.9317,-0.8807,-0.8309,-0.777,-0.7253,-0.6896,-0.6178,-0.5122,-0.4172,-0.265,-0.0569,0.0863,0.2394,0.3979,0.5823,0.6339,0.5905,0.7795,1.0057,1.2529,1.3967,1.5369,1.6786,1.7878,1.8541,1.8913,1.9327,1.989,2.0577,0.0,0.0,0.0,0.0,0.0,0.0,0.0,0.0,0.0,0.0,0.0,0.0,0.0,0.0,0.0,0.0,0.0,0.0,0.0,0.0,0.0,0.0,0.0,0.0,1.0414,0.0,0.0,0.0,0.0,0.0,0.0424,-0.2692,-0.5087,0.0,-0.735,0.0,0.0,0.0,0.0,0.0,-1.2881,-1.2774,0.0,0.0,0.0,0.0,0.0,0.0,0.0,0.0,0.0,0.0,0.0,0.0,0.0,0.0,0.0,0.0,0.0,0.0,0.0,0.0,0.0,0.0,0.0,0.0,0.0,0.0,0.0,0.0,0.0,0.0,0.0,0.0,0.0,0.0,0.0,0.0,0.0,0.0,0.0,0.0,0.0,0.0,0.0,0.0,0.0,-0.8155,-0.7246,-0.6983,-0.6484,-0.5607,-0.5246,-0.4517,-0.3362,-0.2055,-0.0192,0.2238,0.3242,0.4663,0.6494,0.815,0.8837,0.8728,1.0118,1.1993,1.4183,1.4975,1.5998,1.7125,1.8012,1.8503,1.8768,1.9317,1.9936,2.062,0.0,0.0,0.0,0.0,0.0,0.0,0.0,0.0,0.0,0.0,0.0,0.0,0.0,0.0,0.0,-0.1954,0.0,0.0,0.0,0.0,0.0,0.0,0.0,0.0,0.0,0.0,0.0,0.0,0.0,0.0,-0.1271,-0.473,-0.7856,-1.0535,-1.0535,-1.1416,-1.2774,0.0,0.0,0.0,0.0,0.0,0.0,0.0,0.0,0.0,0.0,0.0,0.0,0.0,0.0,0.0,0.0,0.0,0.0,0.0,0.0,0.0,0.0,0.0,0.0,0.0,0.0,0.0,0.0,0.0,0.0,0.0,0.0,0.0,0.0,0.0,0.0,0.0,0.0,0.0,0.0,0.0,0.0,0.0,0.0,0.0,0.0,0.0,0.0,0.0,0.0,-0.6434,-0.6369,-0.5805,-0.5109,-0.4215,-0.3143,-0.2169,-0.1267,0.0768,0.2126,0.2882,0.4938,0.6507,0.7665,0.9331,1.0596,1.1519,1.2504,1.371,1.4989,1.5803,1.6738,1.7687,1.8057,1.8524,1.8966,1.902,1.9301,1.9782,0.0,0.0,0.0,0.0,0.0,0.0,0.0,0.0,0.0,0.0,0.0,0.0,0.0,-0.1912,-0.3138,-0.2938,-0.1194,0.0,0.0,0.0,0.0,0.0,0.0,0.0,0.0,0.0,0.0,0.0,0.0,-0.0156,-0.2639,-0.528,-0.8019,-1.0813,-1.1266,-1.1981,-1.2881,-1.2881,0.0,0.0,0.0,0.0,0.0,0.0,0.0,0.0,0.0,0.0,0.0,0.0,0.0,0.0,0.0,0.0,0.0,0.0,0.0,0.0,0.0,0.0,0.0,0.0,0.0,0.0,0.0,0.0,0.0,0.0,0.0,0.0,0.0,0.0,0.0,0.0,0.0,0.0,0.0,0.0,0.0,0.0,0.0,0.0,0.0,0.0,0.0,0.0,0.0,0.0,-0.4236,-0.3385,-0.2703,-0.2327,-0.1262,-0.008,0.1338,0.3124,0.4537,0.5553,0.6956,0.8363,0.9771,1.0737,1.1866,1.3132,1.3736,1.4369,1.5049,1.5874,1.6677,1.7549,1.8516,1.8831,1.8824,1.9471,1.9914,2.0209,0.0,0.0,0.0,0.0,0.0,0.0,0.0,0.0,0.0,0.0,0.0,0.0,0.0,0.0,-0.5345,-0.4124,-0.1843,0.015,0.1558,0.2349,0.0,0.0,0.0,0.0,0.0,0.0,0.0,0.0,0.0,0.0,0.0,-0.6864,-0.9071,-1.1191,-1.1841,-1.2452,0.0,0.0,0.0,-1.2881,0.0,0.0,-1.2452,0.0,0.0,0.0,0.0,0.0,0.0,0.0,0.0,0.0,0.0,0.0,0.0,0.0,0.0,0.0,0.0,0.0,0.0,0.0,0.0,0.0,0.0,0.0,0.0,0.0,0.0,0.0,0.0,0.0,0.0,0.0,0.0,0.0,0.0,0.0,0.0,0.0,0.0,0.0,0.0,0.0,0.0,0.0,0.0,0.0,-0.239,-0.1632,-0.0817,0.0082,0.1084,0.2345,0.385,0.5142,0.6313,0.7273,0.8488,0.9703,1.0945,1.1782,1.2798,1.3934,1.4585,1.5078,1.5461,1.6138,1.6827,1.7576,1.8438,1.8704,1.8675,1.9341,1.9812,2.0097,0.0,0.0,0.0,0.0,0.0,0.0,0.0,0.0,0.0,0.0,0.0,0.0,0.0,0.0,0.0,-0.5727,-0.3717,-0.2053,-0.0679,-0.005,0.0,0.0,0.0,0.0,0.0,0.0,0.0,0.0,0.0,0.0,0.0,0.0,-1.114,-1.1846,-1.2588,-1.2881,-1.2871,0.0,-1.2881,-1.2881,0.0,-1.2452,-1.1814,0.0,0.0,0.0,-0.9881,-0.95,0.0,0.0,0.0,0.0,0.0,0.0,0.0,0.0,0.0,0.0,0.0,0.0,0.0,0.0,0.0,0.0,0.0,0.0,0.0,0.0,0.0,0.0,0.0,0.0,0.0,0.0,0.0,0.0,0.0,0.0,0.0,0.0,0.0,0.0,0.0,0.0,0.0,0.0,0.0,-0.1426,-0.0846,-0.0668,0.0518,0.2912,0.3937,0.501,0.6114,0.6765,0.7356,0.787,0.9485,1.0512,1.102,1.2448,1.3403,1.3986,1.5123,1.5831,1.6246,1.6654,1.7216,1.7811,1.7811,1.8125,1.8604,1.8604,1.8895,1.9305,0.0,0.0,0.0,0.0,0.0,0.0,0.0,0.0,0.0,0.0,0.0,0.0,0.0,0.0,0.0,-0.6367,-0.5255,-0.4281,-0.3396,-0.3149,-0.2996,-0.281,0.0,0.0,0.0,0.0,0.0,0.0,0.0,0.0,0.0,0.0,0.0,0.0,-1.2569,-1.2609,-1.2164,-1.2677,0.0,0.0,-1.2881,-1.2774,0.0,0.0,0.0,0.0,0.0,-0.901,0.0,0.0,-0.8315,-0.7503,0.0,0.0,0.0,0.0,0.0,0.0,-0.3294,0.0,0.0,0.0,0.0,0.0,-0.2732,-0.2531,0.0,0.0,0.0,0.0,0.0,0.0,0.0,0.0,0.0,0.0,0.0,0.0,0.0,0.0,0.0,0.0,0.0,0.0,0.0,0.0,0.0542,0.0985,0.1069,0.1875,0.3046,0.4571,0.5725,0.6416,0.6729,0.8472,0.9406,0.9564,1.1116,1.1923,1.2103,1.3179,1.3907,1.4374,1.5242,1.6001,1.6654,1.7027,1.7408,1.7833,1.8014,1.829,1.8623,1.8807,1.9049,1.9305,0.0,0.0,0.0,0.0,0.0,0.0,0.0,0.0,0.0,0.0,0.0,0.0,0.0,0.0,0.0,-0.7528,-0.6806,-0.6187,-0.5788,-0.5745,-0.5878,-0.6183,-0.752,0.0,0.0,0.0,0.0,0.0,0.0,0.0,0.0,0.0,0.0,0.0,0.0,0.0,0.0,0.0,0.0,0.0,-1.2433,0.0,0.0,-1.1225,-1.0797,0.0,0.0,0.0,-0.875,-0.8438,-0.7641,0.0,0.0,0.0,0.0,0.0,0.0,0.0,0.0,0.0,0.0,0.0,0.0,0.0,-0.0433,-0.0325,-0.027,0.0,0.0,0.0,0.0,0.0,0.0,0.0,0.0,0.0,0.0,0.0,0.0,0.0,0.0,0.0,0.0,0.0,0.0,0.1873,0.2278,0.2692,0.3087,0.437,0.5396,0.599,0.7106,0.7919,0.8343,0.9564,1.0407,1.0874,1.2159,1.2758,1.2806,1.3887,1.4593,1.5002,1.5781,1.6459,1.7027,1.7368,1.7618,1.7811,1.7971,1.827,1.8604,1.877,1.9033,1.9344,0.0,0.0,0.0,0.0,0.0,0.0,0.0,0.0,0.0,0.0,0.0,0.0,0.0,0.0,0.0,0.0,-0.8397,-0.797,-0.797,-0.797,0.0,0.0,0.0,-1.1252,0.0,0.0,0.0,0.0,0.0,0.0,0.0,0.0,0.0,0.0,0.0,0.0,0.0,0.0,0.0,-1.1599,-1.167,-1.1756,0.0,0.0,-1.0584,0.0,-0.9797,-0.911,-0.8457,-0.7683,-0.6582,0.0,0.0,0.0,0.0,0.0,-0.3685,0.0,0.0,0.0,0.0,0.0,0.0,0.0,0.2176,0.2223,0.23,0.0,0.0,0.0,0.0,0.0,0.0,0.0,0.0,0.0,0.0,0.0,0.0,0.0,0.0,0.0,0.0,0.2352,0.2674,0.3185,0.3617,0.4264,0.5247,0.6738,0.7495,0.732,0.8452,0.9457,1.0361,1.0487,1.1061,1.2062,1.2818,1.3201,1.3307,1.4576,1.5314,1.5666,1.6503,1.7014,1.7337,1.7658,1.7811,1.7811,1.7811,1.8103,1.8547,1.8585,1.8877,1.9368,0.0,0.0,0.0,0.0,0.0,0.0,0.0,0.0,0.0,0.0,0.0,0.0,0.0,0.0,0.0,0.0,-1.0872,-1.0179,-1.0179,-1.0179,0.0,0.0,-1.1661,-1.2882,-1.3939,0.0,0.0,0.0,0.0,0.0,0.0,0.0,0.0,0.0,0.0,0.0,0.0,0.0,0.0,-1.0216,-1.078,0.0,-1.1665,-1.0466,-0.9613,-0.8998,-0.833,-0.7645,-0.6944,0.0,-0.5742,-0.5362,0.0,0.0,0.0,0.0,0.0,0.0,0.0,0.0,0.0,0.0,0.0,0.0,0.3061,0.3078,0.309,0.0,0.0,0.0,0.0,0.0,0.0,0.0,0.0,0.0,0.0,0.0,0.0,0.0,0.0,0.0,0.0,0.3251,0.3671,0.2893,0.5679,0.7491,0.7701,0.837,0.8936,0.9339,1.0494,1.1227,1.141,1.2239,1.2979,1.3581,1.368,1.3908,1.4266,1.5096,1.5538,1.5676,1.6743,1.7231,1.7322,1.7669,1.7811,1.7811,1.7811,1.7992,1.831,1.8508,1.8789,1.9194,0.0,0.0,0.0,0.0,0.0,0.0,0.0,0.0,0.0,0.0,0.0,0.0,0.0,0.0,0.0,0.0,0.0,0.0,0.0,0.0,0.0,0.0,-1.3072,-1.4,-1.4597,-1.497,0.0,0.0,0.0,0.0,0.0,0.0,0.0,0.0,0.0,0.0,0.0,0.0,-1.0401,-0.9813,-1.0151,0.0,-1.0679,-0.9703,-0.8971,-0.8359,-0.7889,-0.6747,-0.5396,-0.4761,-0.4262,0.0,0.0,-0.3907,-0.4327,0.0,-0.2125,-0.1283,0.0,0.0,0.0,0.2858,0.0,0.0,0.0,0.4641,0.4931,0.4843,0.0,0.0,0.0,0.0,0.0,0.0,0.0,0.0,0.0,0.0,0.0,0.0,0.0,0.0,0.0,0.4842,0.5358,0.506,0.7873,0.9676,0.9915,1.0369,1.0651,1.0813,1.195,1.2636,1.2888,1.3717,1.435,1.4868,1.4945,1.5189,1.5545,1.5825,1.6141,1.6468,1.7036,1.7382,1.7569,1.7721,1.7811,1.7811,1.7811,1.8048,1.8412,1.8551,1.9089,1.987,-2.0797,0.0,0.0,0.0,0.0,0.0,0.0,0.0,0.0,0.0,0.0,0.0,0.0,0.0,0.0,0.0,0.0,0.0,0.0,0.0,0.0,0.0,-1.3931,-1.4652,-1.4869,-1.5231,-1.5534,0.0,0.0,0.0,0.0,0.0,0.0,0.0,0.0,0.0,0.0,0.0,0.0,-0.9588,0.0,-0.971,-0.9813,-0.8935,-0.8346,-0.7894,-0.7133,-0.5608,-0.3896,-0.349,0.0,-0.222,-0.2215,-0.2837,0.0,0.0,0.0,0.0,0.0,0.0,0.0,0.0,0.0,0.5734,0.0,0.0,0.0,0.668,0.0,0.0,0.0,0.0,0.0,0.0,0.0,0.0,0.0,0.0,0.0,0.0,0.0,0.0,0.0,0.6489,0.7329,0.8152,1.0081,1.1466,1.1972,1.2276,1.2402,1.2296,1.327,1.4075,1.455,1.4989,1.5527,1.6136,1.6232,1.64,1.6634,1.6598,1.6815,1.7216,1.7339,1.7558,1.7805,1.7963,1.8014,1.8014,1.8014,1.8327,1.8766,1.8814,1.9601,2.0804,-2.1667,-2.107,0.0,0.0,0.0,0.0,0.0,0.0,0.0,0.0,0.0,0.0,0.0,0.0,0.0,0.0,0.0,0.0,-1.5828,0.0,0.0,0.0,0.0,0.0,-1.5384,-1.5028,-1.532,-1.6318,0.0,0.0,0.0,0.0,0.0,0.0,-1.0267,0.0,0.0,0.0,-0.899,0.0,-0.891,-0.9458,0.0,-0.8455,-0.7568,-0.6928,-0.4663,-0.3272,-0.2434,0.0,-0.2293,-0.2184,0.0,-0.1442,0.0,0.0,0.0,0.0,0.0,0.0,0.0,0.0,0.6346,0.0,0.0,0.0,0.7545,0.757,0.0,0.0,0.0,0.0,0.0,0.0,0.0,0.0,0.0,0.0,0.0,0.0,0.0,0.0,0.0,0.0,0.919,1.0923,1.2018,1.2977,1.3769,1.3669,1.3822,1.4358,1.4991,1.5615,1.6131,1.6268,1.6759,1.7648,1.7213,1.687,1.6707,1.7329,1.7349,1.6892,1.7485,1.7755,1.7862,1.8504,1.8775,1.8775,1.8775,1.899,1.9347,1.9586,2.037,2.1407,-2.2733,-2.1866,0.0,0.0,0.0,0.0,0.0,0.0,0.0,0.0,0.0,0.0,0.0,0.0,0.0,0.0,0.0,-1.6725,0.0,0.0,0.0,0.0,0.0,0.0,0.0,-1.4446,-1.4411,-1.488,-1.3082,0.0,0.0,0.0,0.0,0.0,-0.9732,0.0,-0.9245,0.0,0.0,0.0,0.0,0.0,0.0,-0.8043,-0.6794,-0.5358,-0.3904,-0.2623,-0.156,0.0,-0.1288,0.0,0.0,0.0,0.0,0.0,0.0,0.0,0.0,0.0,0.0,0.0,0.0,0.0,0.0,0.0,0.8321,0.0,0.0,0.0,0.0,0.0,0.0,0.0,0.0,0.0,0.0,0.0,0.0,0.0,0.0,0.0,0.0,0.0,0.0,0.0,1.2706,1.36,1.4077,1.4567,1.4949,1.5222,1.6083,1.6553,1.6468,1.7408,1.8026,1.8289,1.8129,1.8208,1.8547,1.8469,1.8517,1.8676,1.8951,1.9091,1.9089,1.9393,1.9529,1.9587,2.0216,2.0384,2.0326,2.0611,2.1416,2.2371,-2.4024,0.0,0.0,0.0,0.0,0.0,0.0,0.0,0.0,0.0,0.0,0.0,-2.2832,-2.2236,0.0,0.0,0.0,-1.8721,0.0,0.0,-1.5657,0.0,0.0,0.0,0.0,0.0,0.0,-1.3815,0.0,0.0,0.0,0.0,0.0,0.0,0.0,-0.9228,-0.8857,0.0,0.0,-0.8455,-0.7913,-0.7463,-0.7169,-0.6972,-0.5601,-0.3715,-0.3019,-0.179,-0.0503,-0.0504,0.0,0.0,0.0616,0.0,0.0,0.0,0.0,0.0,0.3065,0.0,0.0,0.0,0.0,0.0,0.0,0.0,0.0,0.0,0.0,0.0,0.0,0.0,0.0,0.0,0.0,0.0,0.0,0.0,0.0,0.0,0.0,0.0,0.0,0.0,0.0,1.2098,1.3152,1.4025,1.4471,1.5198,1.574,1.6069,1.6859,1.7244,1.7076,1.8215,1.8855,1.8893,1.9129,1.9409,1.9766,1.9491,1.9512,1.9887,1.9965,1.9992,2.0018,2.0221,2.0331,2.0425,2.148,2.1753,2.1575,2.1872,2.255,2.3343,-2.5518,-2.4252,0.0,0.0,0.0,0.0,0.0,0.0,0.0,0.0,0.0,0.0,0.0,0.0,0.0,0.0,0.0,-2.0728,-2.1269,0.0,-1.6667,0.0,0.0,-1.5238,0.0,0.0,0.0,0.0,0.0,0.0,0.0,0.0,0.0,0.0,0.0,-0.8804,-0.8804,-0.8804,-0.8389,-0.7747,-0.7694,-0.6435,-0.4548,0.0,-0.3863,-0.2174,-0.1452,0.0,0.0,0.1006,0.1507,0.0,0.0,0.0,0.0,0.0,0.0,0.0,0.0,0.0,0.0,0.7937,0.0,0.0,0.0,0.0,0.9762,0.0,0.0,0.0,0.0,0.0,0.0,0.0,0.0,0.0,0.0,0.0,0.0,0.0,0.0,0.0,0.0,0.0,0.0,1.3627,1.3752,1.4299,1.5499,1.5584,1.6118,1.7216,1.7268,1.7717,1.8532,1.8593,1.8968,1.969,2.0258,2.0139,1.9434,2.013,2.0105,1.9535,1.9857,2.0002,2.0052,2.0839,2.117,2.1264,2.2272,2.2845,2.3141,2.3347,2.3733,2.4153,0.0,0.0,0.0,0.0,0.0,0.0,0.0,-2.2135,0.0,0.0,0.0,0.0,0.0,0.0,-2.6343,0.0,0.0,-2.2287,-2.1981,-2.0054,0.0,0.0,0.0,-1.642,0.0,0.0,0.0,0.0,0.0,0.0,0.0,0.0,0.0,0.0,0.0,-0.8315,0.0,0.0,0.0,0.0,0.0,-0.4751,-0.3704,0.0,0.0,-0.0723,-0.0446,0.0557,0.0,0.184,0.2011,0.2181,0.2176,0.274,0.3416,0.3941,0.4539,0.0,0.0,0.0,0.6771,0.8397,0.0,0.0,0.0,0.0,0.0,0.0,0.0,0.0,0.0,0.0,0.0,0.0,0.0,0.0,0.0,0.0,0.0,0.0,0.0,0.0,0.0,0.0,0.0,1.4356,1.4776,1.5154,1.5576,1.5976,1.6553,1.7288,1.7639,1.8068,1.8584,1.936,1.9934,2.0292,2.0673,2.0863,2.0868,2.1122,2.1253,2.1351,2.1478,2.1505,2.1522,2.182,2.1921,2.1966,2.2496,2.2764,2.2946,2.343,2.3873,2.419,-2.7182,0.0,0.0,0.0,0.0,0.0,0.0,0.0,0.0,0.0,-2.7919,0.0,-2.8921,0.0,-2.6988,0.0,-2.4872,-2.3385,-2.2347,-2.1305,0.0,-1.9346,-1.8585,0.0,0.0,0.0,0.0,0.0,0.0,-1.0637,0.0,0.0,0.0,0.0,0.0,0.0,0.0,0.0,-0.7182,0.0,0.0,-0.3564,0.0,0.0,-0.1284,0.0056,0.0,0.156,0.2567,0.2623,0.2792,0.3016,0.3012,0.3506,0.4106,0.4365,0.5241,0.6171,0.6396,0.6983,0.0,0.8592,0.8606,0.0,0.9606,0.0,0.0,0.0,0.0,0.0,0.0,0.0,0.0,0.0,0.0,0.0,0.0,1.3909,0.0,0.0,0.0,0.0,0.0,0.0,1.4778,1.4983,1.5358,1.5799,0.0,0.0,1.7136,1.7851,1.8224,1.8574,1.8993,1.9743,2.0258,2.061,2.0957,2.1305,2.1599,2.1761,2.1995,2.231,2.231,2.231,2.231,2.231,2.231,2.2338,2.2473,2.2613,2.2787,2.3442,2.391,2.419,0.0,0.0,0.0,0.0,-2.2862,0.0,0.0,0.0,-2.6878,0.0,-2.8353,-2.9041,-2.9654,-2.8168,-2.7116,-2.7248,-2.5709,0.0,-2.2498,-2.2276,0.0,0.0,-1.9797,-1.87,-1.6507,0.0,0.0,0.0,0.0,0.0,0.0,0.0,0.0,0.0,-0.6912,0.0,-0.6588,-0.6588,-0.6086,-0.5249,-0.3825,-0.279,-0.1967,-0.0449,0.0112,0.028,0.173,0.2736,0.3355,0.3413,0.391,0.4519,0.4515,0.4984,0.5329,0.4776,0.5599,0.6747,0.7306,0.7617,0.799,0.8692,0.0,0.0,0.0,0.0,1.1796,0.0,0.0,0.0,0.0,0.0,0.0,0.0,0.0,0.0,0.0,0.0,0.0,0.0,0.0,0.0,0.0,1.4778,1.5025,1.562,1.5659,1.6144,0.0,0.0,1.7825,1.8855,1.8917,1.9159,1.969,1.9726,2.0041,2.0637,2.1182,2.1516,2.1658,2.2106,2.231,2.231,2.231,2.231,2.231,2.231,2.231,2.231,2.231,2.2463,2.2797,2.3437,2.3896,2.4189,-2.6455,-2.5468,-2.4583,0.0,-2.2614,-2.2591,0.0,0.0,0.0,0.0,-3.0776,-3.1569,-3.1749,-2.9843,-2.8387,-2.7972,-2.5628,0.0,0.0,0.0,0.0,-2.1091,-1.9523,-1.8325,-1.751,-1.6494,0.0,-1.2262,0.0,0.0,-0.9008,0.0,0.0,0.0,0.0,0.0,-0.6588,-0.6036,-0.505,-0.3846,-0.2896,-0.2066,0.0,0.0,0.162,0.1777,0.2734,0.3574,0.4187,0.4187,0.4353,0.457,0.5101,0.5012,0.4985,0.626,0.6929,0.7368,0.8231,0.8817,0.9295,0.951,1.0064,1.0685,0.0,0.0,0.0,0.0,0.0,0.0,0.0,0.0,0.0,0.0,0.0,0.0,0.0,0.0,0.0,0.0,0.0,0.0,1.6107,1.6027,1.6114,1.6238,1.6271,1.6571,0.0,0.0,0.0,1.8907,1.8917,1.9159,1.969,2.0347,2.0756,2.0909,2.168,2.2099,2.2106,2.2254,2.231,2.231,2.231,2.231,2.231,2.231,2.231,2.231,2.231,2.2607,2.3093,2.3259,2.3553,2.3822,-2.6686,0.0,0.0,-2.4143,0.0,0.0,-2.5438,0.0,0.0,-3.0045,-3.1043,0.0,-3.1161,-2.9355,-2.7795,-2.6952,-2.487,0.0,-2.2492,0.0,0.0,-2.0225,-1.9057,-1.7969,-1.7126,-1.602,0.0,-1.1704,0.0,0.0,-0.8321,0.0,0.0,0.0,0.0,-0.5277,0.0,-0.4886,-0.4061,-0.3239,-0.2176,0.0,0.0,0.1458,0.2402,0.2828,0.3624,0.4132,0.4519,0.4519,0.4688,0.5026,0.5513,0.5788,0.6177,0.7616,0.8008,0.8143,0.8639,0.9292,0.9792,0.9792,1.0522,1.1344,1.1729,1.2036,1.2393,0.0,0.0,0.0,0.0,0.0,0.0,0.0,0.0,0.0,0.0,0.0,0.0,0.0,1.7312,0.0,1.7188,1.6993,1.6951,1.7188,1.677,1.6965,0.0,0.0,0.0,1.9258,1.9538,1.9797,1.9948,2.0733,2.1182,2.1279,2.1774,2.2102,2.231,2.231,2.231,2.231,2.231,2.231,2.231,2.231,2.231,2.231,2.231,2.2508,2.2798,2.2798,2.3283,2.3907,0.0,0.0,0.0,0.0,0.0,0.0,0.0,-2.7265,0.0,-2.9679,0.0,-2.9975,-2.9303,-2.7776,-2.6374,-2.5309,0.0,-2.2184,-2.0591,-2.0228,-1.9611,-1.8532,-1.828,-1.7564,-1.6169,-1.5235,0.0,0.0,0.0,0.0,0.0,0.0,0.0,0.0,0.0,0.0,0.0,-0.3456,-0.3121,0.0,-0.1506,-0.0502,0.0278,0.1792,0.2794,0.35,0.4233,0.4519,0.4519,0.4577,0.5033,0.5546,0.5991,0.6853,0.7817,0.8551,0.8811,0.8811,0.893,0.9446,0.9963,1.0023,1.0988,1.1926,1.1921,1.2466,1.292,1.2987,1.3501,1.3909,0.0,0.0,0.0,0.0,0.0,0.0,0.0,0.0,0.0,0.0,0.0,0.0,1.8263,1.772,1.7518,1.7985,1.7083,1.7274,0.0,0.0,0.0,1.969,2.0273,2.0482,2.0354,0.0,2.1392,2.1665,2.1678,2.1911,2.231,2.231,2.231,2.231,2.231,2.231,2.231,2.231,2.231,2.231,2.231,2.2321,2.2349,2.2349,2.3144,2.418,0.0,0.0,0.0,0.0,0.0,-2.5118,-2.5575,-2.6582,-2.7551,-2.827,-2.938,-2.9638,-2.8521,-2.7101,-2.5937,-2.5283,-2.2962,0.0,0.0,0.0,0.0,-1.8474,-1.7231,-1.6522,-1.6434,-1.4809,-1.33,0.0,0.0,0.0,0.0,0.0,0.0,0.0,0.0,0.0,-0.2621,-0.2454,0.0,-0.1396,-0.0557,0.0223,0.1061,0.2573,0.3181,0.3442,0.4233,0.4519,0.4574,0.5148,0.5381,0.5703,0.6988,0.7429,0.7635,0.8533,0.8818,0.8983,0.9722,1.0283,1.0761,1.1302,1.2094,1.2705,1.2723,1.2832,1.3025,1.3554,1.4128,1.456,1.4523,0.0,0.0,0.0,0.0,0.0,0.0,0.0,0.0,0.0,0.0,0.0,0.0,0.0,1.7583,1.7663,0.0,0.0,0.0,0.0,0.0,0.0,1.9822,0.0,0.0,0.0,2.136,2.1908,2.2095,2.2215,2.231,2.231,2.231,2.231,2.231,2.231,2.231,2.231,2.231,2.231,2.231,2.2453,2.2634,2.2634,2.3342,2.4284,0.0,0.0,0.0,0.0,0.0,0.0,0.0,-2.6266,0.0,-2.7715,-2.7826,-2.7373,-2.6043,-2.4985,-2.3929,-2.2911,-2.1187,-1.9953,-1.9591,-1.8067,-1.7011,-1.6595,-1.5487,0.0,-1.4404,-1.2875,-1.1721,-1.0931,0.0,0.0,0.0,0.0,0.0,0.0,0.0,-0.2508,0.0,0.0,0.0,-0.0446,0.0279,0.1282,0.2343,0.3074,0.3572,0.4009,0.4746,0.5039,0.5031,0.4977,0.5653,0.6612,0.7317,0.7805,0.8212,0.8685,0.9047,0.9465,1.0053,1.0764,1.1427,1.174,1.237,1.2881,1.2881,1.3135,1.3443,1.3754,1.4552,1.5255,1.5567,1.5876,0.0,0.0,0.0,0.0,0.0,0.0,0.0,0.0,0.0,0.0,0.0,0.0,0.0,0.0,0.0,0.0,0.0,0.0,0.0,0.0,0.0,0.0,0.0,0.0,0.0,2.3278,2.3397,2.3248,2.2864,2.2868,2.2671,2.231,2.231,2.231,2.231,2.231,2.231,2.231,2.231,2.2626,2.3065,2.3065,2.4009,2.517,0.0,-2.6827,0.0,0.0,-2.5864,0.0,-2.5629,-2.5766,-2.6186,-2.705,-2.6207,-2.5039,-2.3717,-2.2859,-2.194,-2.0707,-1.956,-1.8572,-1.7768,-1.666,-1.5481,-1.4402,-1.3807,-1.3182,-1.2431,-1.1156,-1.0226,0.0,0.0,0.0,0.0,0.0,0.0,0.0,0.0,0.0,0.0,0.0,-0.0447,0.0278,0.106,0.2176,0.3403,0.3577,0.4079,0.4798,0.5285,0.5698,0.5866,0.5312,0.6149,0.7512,0.7629,0.8212,0.8804,0.8949,0.937,0.9887,1.0397,1.1183,1.1863,1.1977,1.2548,1.3074,1.3105,1.3468,1.3824,1.3987,1.4744,1.562,1.638,1.638,0.0,0.0,0.0,0.0,0.0,0.0,0.0,0.0,0.0,0.0,0.0,0.0,0.0,0.0,0.0,0.0,0.0,0.0,0.0,0.0,0.0,2.2781,2.3558,0.0,2.4642,2.4538,2.4506,2.4191,2.3633,2.3617,2.3317,2.276,2.2608,2.2423,2.231,2.2474,2.2536,2.2553,2.27,2.3119,2.3646,2.363,2.4688,2.5902,0.0,0.0,0.0,0.0,0.0,0.0,-2.5599,-2.4615,-2.4316,-2.5646,-2.5006,-2.4056,-2.2951,-2.2039,-2.1285,-2.0642,-1.9087,-1.7739,-1.6982,-1.5355,-1.3915,-1.2838,-1.2772,-1.252,-1.2163,-1.1059,-1.0169,0.0,0.0,0.0,0.0,0.0,0.0,0.0,0.0,0.0,0.0,-0.0112,0.0336,0.1061,0.1785,0.2623,0.3469,0.4132,0.4805,0.5415,0.5494,0.6385,0.7459,0.7225,0.7395,0.7805,0.8455,0.8745,0.8903,0.9511,0.9746,1.0084,1.1311,1.1707,1.1945,1.2646,1.326,1.3725,1.37,1.3744,1.3973,1.4504,1.4716,1.516,1.6305,1.6051,1.5864,0.0,0.0,0.0,0.0,0.0,0.0,0.0,0.0,0.0,0.0,1.9962,0.0,0.0,0.0,0.0,0.0,0.0,0.0,2.3201,0.0,2.3212,2.5073,2.4656,2.4562,2.4763,2.4597,2.4481,2.4381,2.4418,2.4363,2.4255,2.3603,2.2925,2.2344,2.3022,2.33,2.3363,2.4018,2.4333,2.4379,2.4408,2.4951,2.5737,0.0,0.0,0.0,0.0,0.0,0.0,0.0,-2.4181,-2.3375,-2.2775,-2.2601,-2.2226,-2.1219,-2.0522,-1.976,-1.8732,-1.7333,-1.623,-1.5723,-1.4275,-1.3101,-1.2207,-1.1792,-1.1311,-1.0753,-0.9482,-0.867,0.0,0.0,0.0,0.0,0.0,0.0,0.0,0.0,-0.0289,0.0058,0.0462,0.1081,0.184,0.2565,0.3347,0.4132,0.4831,0.5265,0.5638,0.6478,0.7225,0.7747,0.81,0.8277,0.8396,0.8692,0.8804,0.8956,0.9592,1.0105,1.0596,1.1418,1.2045,1.2539,1.2832,1.3364,1.3784,1.3805,1.4378,1.4838,1.4716,1.4979,1.5514,1.6318,1.6281,1.6238,0.0,0.0,0.0,0.0,0.0,0.0,0.0,0.0,0.0,0.0,0.0,0.0,0.0,0.0,0.0,0.0,0.0,0.0,2.3519,0.0,2.3842,2.5713,2.5752,2.5815,2.5933,2.5866,2.5597,2.5177,2.516,2.4925,2.449,2.4183,2.389,2.3642,2.3922,2.4059,2.4122,2.4863,2.5428,2.5866,2.633,2.6973,2.7673,-2.6887,0.0,-2.4438,0.0,-2.319,-2.2343,-2.3647,-2.2736,-2.1638,-2.0719,-2.049,-2.0234,-1.9874,-1.9065,-1.8078,-1.7125,-1.5794,-1.4802,-1.4204,-1.3235,-1.2242,-1.1409,-1.0845,0.0,-0.9337,-0.8234,-0.7503,-0.7069,-0.6027,0.0,0.0,0.0,0.0,0.0,0.0,0.0118,0.0353,0.0872,0.1655,0.2565,0.3065,0.379,0.457,0.5257,0.5608,0.5963,0.7253,0.7858,0.81,0.8626,0.8903,0.9106,0.9106,0.9106,0.9263,1.0115,1.073,1.1197,1.1774,1.2412,1.2881,1.2881,1.3385,1.3915,1.4041,1.4869,1.5462,1.5058,1.5287,1.5795,1.6386,1.6522,1.6522,1.6522,0.0,0.0,0.0,0.0,0.0,0.0,1.87,1.8492,1.8854,0.0,0.0,0.0,0.0,0.0,0.0,0.0,0.0,0.0,0.0,0.0,0.0,2.6717,2.669,2.6691,2.6691,2.6437,2.5927,2.5899,2.553,2.481,2.4805,2.4702,2.4536,2.4966,2.515,2.5234,2.6236,2.6926,2.7449,2.7947,2.8493,2.9028,-2.6878,-2.5511,-2.4303,-2.4342,-2.2856,-2.1797,-2.2196,-1.9843,-1.8541,-1.9959,-1.8889,-1.8375,-1.9194,-1.7714,-1.6455,-1.6181,-1.4867,-1.3664,-1.2474,-1.2072,-1.1323,0.0,0.0,-0.9246,-0.8223,-0.7852,-0.7009,-0.5538,0.0,0.0,-0.2227,0.0,0.0,0.0,0.0,0.0412,0.1113,0.1077,0.1953,0.3287,0.3287,0.379,0.457,0.5257,0.5963,0.6659,0.7453,0.8159,0.8804,0.8804,0.9263,0.9762,0.9762,0.9762,1.0064,1.1366,1.1765,1.1972,1.2666,1.2881,1.2881,1.2881,1.3481,1.4182,1.462,1.5175,1.5605,1.5605,1.5605,1.5795,1.6386,1.6522,1.6522,1.6522,0.0,0.0,0.0,0.0,0.0,0.0,1.928,1.8735,1.8369,0.0,0.0,0.0,0.0,0.0,0.0,0.0,0.0,2.5423,2.6824,0.0,2.8437,2.729,2.6712,2.6691,2.6691,2.6691,2.6674,2.6691,2.6286,2.5598,2.5598,2.518,2.4612,2.6059,2.6673,2.6809,2.8356,2.8948,2.8982,2.8998,2.8996,2.9113,-2.4719,-2.3363,-2.2215,-2.1937,-2.0588,-1.964,-1.9881,-1.8834,-1.7866,-1.7408,-1.7014,-1.6673,-1.65,-1.6392,-1.5869,0.0,-1.3647,-1.2656,0.0,-1.1387,-1.047,-0.9248,-0.9052,-0.8627,-0.7864,-0.6743,-0.6081,-0.5773,0.0,0.0,0.0,-0.1213,-0.0499,0.0,0.0,0.0425,0.115,0.1639,0.2391,0.3345,0.3901,0.4699,0.5604,0.6294,0.7139,0.8012,0.8514,0.8878,0.9072,0.8871,0.9263,0.9865,1.0364,1.0466,1.0661,1.1566,1.1814,1.1972,1.2715,1.2881,1.3027,1.3556,1.414,1.4663,1.5175,1.5457,1.5727,1.6114,1.5887,1.5795,1.6386,1.6522,1.6522,1.6522,1.708,0.0,0.0,0.0,0.0,0.0,1.9293,1.9057,0.0,1.957,0.0,0.0,0.0,0.0,0.0,0.0,0.0,0.0,2.6863,0.0,2.9111,2.8874,2.8594,2.8247,2.7709,2.747,2.747,2.747,2.7624,2.7928,2.793,2.7777,2.7602,2.8063,2.8274,2.839,2.9336,3.0049,3.0561,3.105,3.1591,3.2038,-2.2921,-2.1749,-2.0825,-2.0614,-1.9024,-1.7887,-1.7996,-1.743,-1.6655,-1.5877,-1.5777,-1.5496,-1.4719,-1.4858,0.0,-1.3719,-1.2664,-1.1718,-1.0919,-1.0415,-0.9623,-0.8419,-0.8215,-0.779,-0.7094,-0.6027,0.0,-0.5454,-0.4288,-0.3083,-0.1792,-0.1049,-0.0444,0.0,0.0316,0.0934,0.1658,0.2467,0.3243,0.3938,0.4458,0.5219,0.6136,0.6919,0.7777,0.8627,0.9048,0.92,0.9173,0.9176,0.9614,1.0312,1.0965,1.1375,1.1683,1.2089,1.2187,1.2384,1.3035,1.3054,1.312,1.4093,1.4832,1.5451,1.584,1.5947,1.6034,1.6398,1.6182,1.6034,1.6441,1.6522,1.667,1.7119,1.7402,1.7882,1.8683,0.0,0.0,0.0,0.0,0.0,0.0,2.0723,2.1262,0.0,0.0,0.0,0.0,0.0,0.0,2.5952,2.6945,0.0,2.9604,2.965,2.9532,2.9269,2.8556,2.8254,2.8254,2.8235,2.8524,2.9021,2.9007,2.9005,2.9028,2.9298,2.9421,2.9499,3.0532,3.1183,3.1692,3.2435,3.3,3.3414,-2.1406,-2.056,-1.9981,0.0,-1.8054,0.0,-1.6535,-1.5771,-1.5163,-1.5092,-1.5073,-1.4688,-1.3741,-1.3309,-1.2991,-1.2743,0.0,0.0,0.0,-0.9268,-0.8726,-0.7634,-0.736,-0.6787,-0.591,-0.5566,-0.5073,-0.4536,-0.3128,-0.1961,-0.1105,-0.0317,0.0,0.0065,0.0901,0.1771,0.2528,0.3444,0.4241,0.4918,0.4979,0.5521,0.6357,0.7131,0.7966,0.88,0.9101,0.9282,0.9376,0.9688,1.0277,1.0998,1.1625,1.2314,1.292,1.2891,1.2929,1.3113,1.3637,1.3418,1.3279,1.4459,1.5652,1.6485,1.6516,1.6522,1.6522,1.6522,1.6522,1.6522,1.6522,1.6559,1.6939,1.8024,1.7949,1.8252,1.9648,0.0,0.0,0.0,0.0,0.0,0.0,2.1966,2.2138,0.0,0.0,0.0,0.0,0.0,2.6042,2.6591,2.7257,2.8381,3.0,2.9865,2.9777,2.9711,2.934,2.9132,2.9155,2.9107,2.9124,2.924,2.9234,2.9225,2.9282,2.9984,3.0302,3.0476,3.1776,3.2377,3.2538,3.3211,3.3489,3.3556,0.0,0.0,-1.8645,-1.7593,-1.6987,-1.6385,-1.5613,-1.5313,-1.495,-1.4171,-1.4088,-1.3689,-1.2714,-1.1877,-1.1244,-1.083,-1.0331,-0.9874,-0.9356,-0.8678,-0.7817,-0.6742,-0.652,-0.6032,-0.5108,-0.4246,-0.35,-0.2779,-0.1866,-0.1313,-0.107,-0.0369,0.0,0.0065,0.0881,0.1758,0.2541,0.3413,0.4241,0.4979,0.5631,0.6489,0.7414,0.8298,0.9218,1.0104,0.9688,0.9924,1.028,0.9948,1.0832,1.2032,1.1863,1.2501,1.3301,1.2978,1.3248,1.3637,1.3779,1.3814,1.4041,1.4947,1.582,1.6485,1.6479,1.6522,1.6522,1.6522,1.6522,1.6522,1.6522,1.6955,1.7377,1.7534,1.8467,1.9178,1.9123,2.0351,0.0,0.0,2.2038,2.2527,2.2851,2.2268,2.2412,0.0,0.0,0.0,0.0,2.7179,2.75,2.6605,2.8146,2.9281,2.9989,3.0566,3.0577,3.0006,3.0479,3.0683,3.0654,3.0078,3.0467,3.1506,3.1533,3.1511,3.1546,3.1732,3.21,3.2618,3.2374,3.2998,3.3998,3.4168,3.459,3.5087,-1.8838,-1.8154,-1.7469,-1.6742,-1.5852,-1.5084,-1.4593,-1.4163,-1.3665,-1.3091,-1.3098,-1.2725,-1.1694,-1.1105,-1.0472,-0.9591,-0.9311,-0.8918,-0.8177,-0.7697,-0.6907,-0.5855,-0.5708,-0.5262,-0.4289,-0.4068,-0.3282,-0.1892,-0.1396,-0.1004,-0.0601,-0.0186,0.0191,0.0645,0.1539,0.2434,0.327,0.4039,0.4675,0.5178,0.596,0.6901,0.7959,0.8828,0.975,1.0564,1.0446,1.069,1.1001,1.1214,1.1852,1.2532,1.2554,1.2852,1.3224,1.3308,1.3552,1.3862,1.4143,1.4437,1.4823,1.566,1.617,1.6522,1.6522,1.6522,1.6484,1.6486,1.6746,1.6999,1.7015,1.732,1.7804,1.8387,1.9515,2.0428,2.0596,2.1193,0.0,2.2683,2.3118,2.3381,2.3406,2.3519,2.3625,2.3675,2.4736,0.0,2.6272,2.7756,2.8129,2.7066,2.889,2.984,2.9717,3.1016,3.1568,3.132,3.1907,3.2083,3.1873,3.1668,3.2053,3.2805,3.2793,3.2787,3.2797,3.2799,3.3043,3.3405,3.3313,3.3803,3.4525,3.4856,3.527,3.5622,-1.792,-1.7001,-1.6349,-1.621,-1.4799,-1.3673,-1.3528,-1.2806,-1.2224,-1.2077,-1.2063,-1.1681,-1.0708,-1.0438,-0.9845,-0.8677,-0.8335,-0.7748,-0.6806,-0.6588,-0.6001,-0.4948,-0.4906,-0.4409,-0.3414,-0.3975,-0.3324,-0.1299,-0.1137,-0.0678,0.0186,0.019,0.0642,0.1546,0.2502,0.3281,0.4038,0.4807,0.5206,0.5446,0.626,0.7131,0.8091,0.9134,0.9983,1.0647,1.1141,1.1345,1.1618,1.2733,1.2938,1.2853,1.3361,1.3287,1.3116,1.3621,1.3852,1.405,1.4652,1.5151,1.5648,1.6324,1.6584,1.6647,1.6523,1.6504,1.651,1.6511,1.727,1.7932,1.7924,1.7857,1.827,1.9673,2.0545,2.1338,2.2291,0.0,2.2287,2.3685,2.4323,2.4292,2.3339,2.4806,2.515,2.3512,2.5159,2.6286,2.6461,2.8036,2.8689,2.8187,2.969,3.0297,2.9852,3.1608,3.2544,3.2722,3.3396,3.344,3.2964,3.3244,3.3448,3.3556,3.3568,3.3556,3.3558,3.3556,3.3638,3.3769,3.4287,3.4575,3.4779,3.5504,3.5791,3.5774,-1.6844,-1.6079,-1.5163,-1.4307,-1.3882,-1.3455,-1.2659,-1.2372,-1.1996,-1.1162,-1.1027,-1.0644,-0.9664,-0.8746,-0.8094,-0.7748,-0.6777,-0.6429,-0.6863,-0.6071,-0.5147,-0.4069,-0.3995,-0.3492,-0.2424,-0.2142,-0.1434,-0.0237,-0.0239,0.0244,0.1072,0.1123,0.1569,0.2501,0.3414,0.3798,0.3908,0.4744,0.5145,0.529,0.6885,0.7691,0.8156,0.9779,1.0498,1.0667,1.1138,1.1676,1.2332,1.2899,1.3451,1.3787,1.3547,1.348,1.3465,1.3724,1.4147,1.4698,1.532,1.5864,1.6324,1.6466,1.6967,1.725,1.663,1.6484,1.6478,1.6489,1.8062,1.9467,1.9462,1.9083,1.9003,1.9698,2.0303,2.0815,2.1138,0.0,2.2871,2.195,2.4654,2.5682,2.3325,2.457,2.6174,2.7832,2.7,2.668,2.736,2.9186,3.0402,3.089,3.0637,3.098,3.1931,3.2784,3.3069,3.2722,3.4432,3.4797,3.3969,3.3567,3.3752,3.433,3.4341,3.4341,3.4346,3.433,3.469,3.5199,3.4711,3.4871,3.5537,3.632,3.6598,3.6729,-1.5939,-1.5234,-1.4458,-1.3818,-1.331,-1.2652,-1.162,-1.1465,-1.1168,-1.0115,-1.0013,-0.9632,-0.8613,-0.8102,-0.7524,-0.6934,-0.6207,-0.5741,-0.5631,-0.5017,-0.4417,-0.3949,-0.3488,-0.2961,-0.2502,-0.1309,-0.0471,0.0,0.0627,0.1146,0.1593,0.1926,0.253,0.3412,0.3806,0.4265,0.4655,0.497,0.5428,0.6073,0.7226,0.8075,0.8812,1.0104,1.0624,1.0744,1.1851,1.2429,1.2915,1.3992,1.4202,1.4048,1.3867,1.3542,1.3301,1.4089,1.4698,1.53,1.5932,1.6281,1.6566,1.6885,1.7237,1.7463,1.7442,1.725,1.7335,1.813,1.9083,1.9933,2.0329,2.0348,2.046,2.0677,2.121,0.0,0.0,2.2923,2.3629,2.4309,2.5456,2.5818,2.4975,2.5946,2.73,2.8844,2.8361,2.8283,2.898,2.9937,3.0799,3.147,3.1232,3.1662,3.3013,3.3561,3.398,3.4263,3.5152,3.5372,3.4953,3.4709,3.4752,3.5091,3.5087,3.5087,3.5084,3.5076,3.5296,3.5588,3.5216,3.5571,3.6303,3.6666,3.704,3.7441,-1.5021,-1.4243,-1.3673,-1.3455,-1.2586,-1.1694,-1.0938,-1.0565,-1.0115,-0.9069,-0.8912,-0.8533,-0.7553,-0.7439,-0.7142,-0.6342,-0.5816,-0.5179,-0.4523,-0.3777,-0.337,-0.3355,-0.2515,-0.2071,-0.2067,-0.0429,0.0426,0.043,0.1618,0.2236,0.2328,0.2781,0.348,0.435,0.435,0.4671,0.5367,0.5371,0.5894,0.6707,0.7626,0.852,0.9402,1.0301,1.0624,1.0807,1.2397,1.3009,1.3252,1.4874,1.4904,1.4247,1.4251,1.3777,1.3412,1.4701,1.5533,1.6078,1.6417,1.6609,1.6804,1.7272,1.7593,1.7877,1.8232,1.8348,1.8694,1.9943,2.0256,2.046,2.1056,2.1447,2.1736,2.1856,0.0,0.0,0.0,2.3528,2.4471,2.6647,2.6189,2.5857,2.6483,2.7442,2.826,2.8962,2.9291,2.9726,3.0478,3.0638,3.0994,3.1464,3.1824,3.2494,3.3582,3.423,3.4884,3.5622,3.5622,3.5622,3.5622,3.5859,3.5943,3.5864,3.5904,3.6005,3.6146,3.5966,3.5982,3.6146,3.6134,3.6494,3.7084,3.7242,3.7666,3.8204,-1.381,-1.3098,-1.2445,-1.2445,-1.162,-1.0864,-1.0783,-1.004,-0.9069,-0.8008,-0.791,-0.7524,-0.6486,-0.6416,-0.6419,-0.6338,-0.5217,-0.4556,-0.4535,-0.261,-0.1514,-0.1476,-0.0638,-0.0184,-0.018,0.1054,0.1688,0.1658,0.2854,0.3584,0.3857,0.3875,0.4417,0.5292,0.5292,0.5215,0.5145,0.5951,0.6329,0.6589,0.8258,0.9033,0.9402,1.0301,1.0624,1.0807,1.2397,1.3009,1.3252,1.4874,1.5139,1.4764,1.4743,1.4424,1.4307,1.5669,1.6645,1.717,1.6627,1.6911,1.7325,1.7388,1.8154,1.8845,1.8722,1.9684,2.0803,2.126,2.1601,2.1835,2.1903,2.2116,2.2397,2.2934,0.0,0.0,2.3186,2.4026,2.5165,2.6409,2.6485,2.6414,2.6452,2.7958,2.8912,2.9002,2.9492,3.0263,3.1347,3.145,3.1465,3.1495,3.2754,3.3486,3.3582,3.4844,3.5509,3.5622,3.5622,3.5622,3.5656,3.6569,3.6907,3.6709,3.6735,3.708,3.7702,3.6989,3.7138,3.7753,3.7711,3.7747,3.7913,3.8601,3.8853,3.902,-1.2952,-1.2519,-1.2077,-1.1465,-1.087,-1.0115,-0.9135,-0.8613,-0.8008,-0.7022,-0.6861,-0.6707,-0.6335,-0.6338,-0.6022,-0.5384,-0.4833,-0.3997,-0.2753,-0.1829,-0.1085,-0.0538,0.0324,0.0891,0.1092,0.1534,0.2565,0.4027,0.4469,0.4779,0.4882,0.4888,0.509,0.5428,0.5428,0.565,0.61,0.6423,0.7196,0.8228,0.8926,0.956,1.011,1.0498,1.0926,1.1469,1.2581,1.3312,1.3906,1.505,1.5157,1.4828,1.4775,1.4508,1.4397,1.5763,1.6991,1.7872,1.7634,1.7468,1.7572,1.8239,1.8946,1.9623,1.9957,2.0519,2.1074,2.1657,2.2654,2.3224,2.274,2.3349,2.3941,2.4142,0.0,2.4491,2.4554,2.4686,2.5244,2.6324,2.6514,2.6533,2.6533,2.8385,2.9457,2.9022,3.0625,3.1586,3.1516,3.1886,3.2138,3.2138,3.3424,3.3981,3.3598,3.5571,3.648,3.6349,3.6823,3.7043,3.7043,3.7084,3.7236,3.7452,3.7462,3.7631,3.7889,3.759,3.7672,3.7905,3.7908,3.8195,3.8635,3.8903,3.9259,3.9731,-1.199,-1.1848,-1.1545,-1.049,-0.989,-0.9145,-0.8008,-0.7557,-0.7099,-0.6416,-0.6338,-0.618,-0.5864,-0.5786,-0.5386,-0.4281,-0.382,-0.3049,-0.1649,-0.0927,-0.0201,0.0404,0.0989,0.1514,0.2076,0.2361,0.3277,0.4964,0.5236,0.5369,0.5428,0.5428,0.5428,0.5428,0.5686,0.6137,0.6719,0.7307,0.8221,0.9338,0.9594,1.0231,1.0989,1.0989,1.1469,1.2266,1.3061,1.3726,1.4332,1.5118,1.5215,1.498,1.498,1.4943,1.5097,1.6202,1.7237,1.8079,1.8461,1.8326,1.8191,1.9058,1.9672,2.0275,2.0932,2.1238,2.1462,2.2015,2.3157,2.3959,2.35,2.4318,2.5059,2.5059,2.536,2.5649,2.572,2.5542,2.5623,2.6402,2.6533,2.6622,2.693,2.9026,3.0155,2.969,3.1884,3.2989,3.2392,3.2661,3.2826,3.2826,3.3887,3.4444,3.4254,3.6042,3.7104,3.7343,3.7868,3.8122,3.8122,3.8091,3.8111,3.8261,3.8261,3.8379,3.8565,3.8345,3.8379,3.8582,3.8582,3.8903,3.9343,3.9343,3.9648,4.007,-1.1013,-1.0783,-1.049,-0.9448,-0.8466,-0.7783,-0.7783,-0.6945,-0.6338,-0.6338,-0.6261,-0.5867,-0.4844,-0.4686,-0.4288,-0.3184,-0.219,-0.1572,-0.1571,0.0214,0.1274,0.1341,0.134,0.1742,0.2678,0.354,0.4002,0.4002,0.4951,0.5428,0.5428,0.5428,0.5428,0.5428,0.6334,0.6719,0.685,0.8549,0.9274,0.9402,1.0238,1.1108,1.1834,1.1834,1.2328,1.313,1.3906,1.4213,1.4323,1.5108,1.541,1.541,1.542,1.5931,1.6587,1.7057,1.7367,1.7767,1.9036,1.94,1.9495,1.9746,2.0233,2.0824,2.1374,2.191,2.2322,2.2322,2.3226,2.4004,2.4004,2.4883,2.5598,2.5598,2.6553,2.7092,2.6609,2.6474,2.6491,2.6502,2.6533,2.6918,2.7972,2.9929,3.1054,3.1015,3.2957,3.4227,3.4227,3.3772,3.3499,3.3499,3.4147,3.4914,3.571,3.6388,3.7336,3.8574,3.8591,3.8591,3.8673,3.9657,3.971,3.9005,3.9005,3.9411,4.002,3.9292,3.9428,4.007,4.007,4.007,4.007,4.007,4.007,4.007,-1.0858,-1.0265,-0.9437,-0.8438,-0.7995,-0.7553,-0.6872,-0.649,-0.6338,-0.6338,-0.5628,-0.5079,-0.4766,-0.4064,-0.3127,-0.2106,-0.1803,-0.0933,0.053,0.1091,0.1899,0.3241,0.3246,0.3345,0.3613,0.4483,0.4951,0.4951,0.5292,0.5428,0.5428,0.6009,0.6334,0.6334,0.7242,0.7962,0.8549,0.9075,0.9658,1.0238,1.0498,1.1108,1.1834,1.1834,1.2626,1.3846,1.4085,1.4569,1.505,1.5294,1.541,1.5469,1.5771,1.6598,1.7415,1.7561,1.8018,1.8581,1.8949,1.9483,2.0012,2.036,2.1125,2.1857,2.2046,2.2474,2.3012,2.3414,2.4067,2.4695,2.5059,2.5711,2.6327,2.6716,2.7067,2.7218,2.7055,2.7155,2.7279,2.7309,2.7733,2.8172,2.8473,3.0387,3.1431,3.1048,3.3542,3.5133,3.5075,3.455,3.4188,3.4188,3.4874,3.5629,3.6469,3.7138,3.7934,3.8885,3.9393,3.963,3.9647,3.9968,3.9952,3.9749,3.9749,3.9884,4.0054,3.9834,3.9884,4.007,4.007,4.007,4.007,4.007,4.007,4.007,-0.9664,-0.914,-0.8385,-0.7379,-0.7242,-0.7022,-0.6416,-0.6338,-0.6338,-0.6338,-0.5234,-0.4295,-0.3748,-0.3127,-0.227,-0.1096,-0.0548,0.0386,0.2013,0.2431,0.3262,0.4751,0.4743,0.4654,0.4553,0.509,0.5428,0.5428,0.5428,0.5428,0.5428,0.6268,0.6719,0.6785,0.7962,0.8812,0.9338,0.9658,1.011,1.0624,1.0926,1.1538,1.232,1.2626,1.3537,1.4688,1.4688,1.4991,1.541,1.541,1.5527,1.5742,1.6191,1.6805,1.7419,1.7602,1.8186,1.8844,1.9138,2.0053,2.1021,2.1493,2.1982,2.2397,2.285,2.3232,2.364,2.4205,2.4757,2.5222,2.5536,2.6063,2.671,2.7193,2.7469,2.7532,2.7318,2.761,2.7883,2.8048,2.8083,2.8439,2.9045,3.073,3.2081,3.2723,3.4484,3.5518,3.5489,3.5115,3.4891,3.4891,3.5295,3.6059,3.715,3.7614,3.8352,3.9428,3.9868,4.007,4.007,4.007,4.007,4.007,4.007,4.007,4.007,4.007,4.007,4.007,4.007,4.007,4.007,4.007,4.007,4.007,-0.8008,-0.7706,-0.7411,-0.644,-0.6193,-0.6109,-0.6058,-0.6041,-0.6099,-0.5944,-0.4841,-0.3591,-0.2267,-0.1955,-0.1409,-0.0079,0.1016,0.2003,0.2993,0.3946,0.4871,0.5751,0.581,0.5677,0.5473,0.5456,0.5442,0.5428,0.5428,0.5428,0.5557,0.64,0.685,0.6981,0.8678,0.9402,0.9466,1.0364,1.0681,1.0807,1.1622,1.2436,1.3241,1.3994,1.4799,1.5527,1.5488,1.5469,1.5469,1.5469,1.5791,1.625,1.666,1.6816,1.6924,1.7455,1.8121,1.885,1.9585,2.0812,2.2075,2.2899,2.2786,2.2736,2.3838,2.4064,2.4243,2.4782,2.5272,2.5611,2.5661,2.6101,2.671,2.7193,2.7708,2.7871,2.7419,2.7833,2.8341,2.8705,2.7982,2.8142,2.968,3.1039,3.2854,3.5314,3.5504,3.5504,3.5504,3.5504,3.5504,3.5504,3.5554,3.6305,3.7822,3.7879,3.8652,4.007,4.007,4.007,4.007,4.007,4.007,4.007,4.007,4.007,4.007,4.007,4.007,4.007,4.007,4.007,4.007,4.007,4.007,4.007,-0.7859,-0.7176,-0.6546,-0.6324,-0.541,-0.4427,-0.3856,-0.4318,-0.4292,-0.3119,-0.32,-0.3044,-0.2184,-0.1096,-0.0314,0.0,0.1019,0.2339,0.4176,0.44,0.4947,0.5905,0.5864,0.5772,0.5708,0.5596,0.5481,0.5428,0.5428,0.5752,0.6461,0.7307,0.8091,0.8812,0.9849,1.0301,1.0364,1.1163,1.1531,1.1615,1.2743,1.3735,1.4524,1.5016,1.572,1.6396,1.6045,1.5918,1.5918,1.5918,1.6445,1.7109,1.7217,1.7471,1.7878,1.868,1.902,1.9337,2.0167,2.1146,2.2056,2.2626,2.3215,2.3817,2.4459,2.4607,2.4788,2.5347,2.5523,2.5737,2.6189,2.6445,2.671,2.7193,2.7381,2.757,2.7883,2.8398,2.8737,2.8848,2.9101,2.9441,2.9731,3.1389,3.3253,3.5359,3.5504,3.5504,3.5504,3.5504,3.5504,3.5504,3.6054,3.6798,3.7806,3.8358,3.9156,4.007,4.007,4.007,4.007,4.007,4.007,4.007,4.007,4.007,4.007,4.007,4.007,4.007,4.007,4.007,4.007,4.007,4.007,4.007,-0.7099,-0.6648,-0.6165,-0.5609,-0.4494,-0.3446,-0.273,-0.2415,-0.1922,-0.1171,-0.1395,-0.1457,-0.1133,-0.0477,0.0475,0.1617,0.2644,0.3657,0.4691,0.5129,0.56,0.6139,0.6064,0.6205,0.663,0.6542,0.638,0.6131,0.6051,0.6465,0.7372,0.8221,0.8877,0.9338,1.0238,1.0624,1.0694,1.1636,1.2074,1.2231,1.3835,1.4762,1.5232,1.5843,1.6329,1.6699,1.6465,1.6387,1.6416,1.6621,1.7002,1.7422,1.7617,1.8091,1.8721,1.9177,1.9879,2.0711,2.1399,2.2218,2.3116,2.3891,2.4431,2.4843,2.5128,2.5195,2.534,2.5912,2.6214,2.6465,2.6514,2.6922,2.7176,2.6992,2.7567,2.816,2.8349,2.865,2.8925,2.8925,2.9202,2.9707,3.0637,3.182,3.3394,3.5359,3.5504,3.5504,3.5504,3.5504,3.5504,3.5504,3.5894,3.6646,3.7822,3.8189,3.8941,4.007,4.007,4.007,4.007,4.007,4.007,4.007,4.007,4.007,4.007,4.007,4.007,4.007,4.007,4.007,4.007,4.007,4.007,4.007,-0.6349,-0.6315,-0.5909,-0.4629,-0.3432,-0.238,-0.1837,-0.078,0.0,0.0,0.0348,0.0425,0.0085,0.074,0.2036,0.4053,0.4615,0.494,0.5181,0.5865,0.6338,0.6338,0.6278,0.659,0.7315,0.7744,0.7681,0.717,0.703,0.7405,0.8226,0.8947,0.9402,0.953,1.0421,1.0835,1.0967,1.2289,1.2883,1.3091,1.5009,1.5818,1.5901,1.6648,1.6953,1.6943,1.6865,1.6846,1.6894,1.7256,1.7432,1.7615,1.8093,1.8771,1.9481,1.9811,2.0975,2.2309,2.2879,2.3599,2.4368,2.5347,2.5678,2.5778,2.5735,2.5735,2.5887,2.6433,2.6904,2.7185,2.6742,2.7454,2.7779,2.689,2.7915,2.8725,2.8762,2.88,2.895,2.9063,2.9076,2.9776,3.15,3.2286,3.3394,3.5359,3.5504,3.5504,3.5504,3.5504,3.5504,3.5504,3.5619,3.6305,3.7573,3.7748,3.8486,3.9901,3.9868,3.9935,4.007,4.007,4.007,4.007,4.007,4.007,4.007,4.007,4.007,4.007,4.007,4.007,4.007,4.007,4.007,4.007,-0.6542,-0.6414,-0.5679,-0.3675,-0.1676,-0.0425,-0.0265,-0.0087,0.0,0.0,0.1781,0.2305,0.0267,0.3701,0.6243,0.6634,0.5535,0.5261,0.6227,0.626,0.6338,0.6338,0.6335,0.6312,0.6474,0.8742,0.9352,0.8204,0.8184,0.848,0.9139,0.9268,0.9722,1.0428,1.1281,1.1811,1.2285,1.3899,1.4746,1.5212,1.6571,1.7154,1.7193,1.7628,1.7832,1.7793,1.7422,1.7295,1.7305,1.7363,1.7627,1.8065,1.889,1.9504,2.0293,2.182,2.2734,2.3454,2.427,2.4578,2.4858,2.5448,2.5963,2.6408,2.6389,2.6377,2.6433,2.6508,2.6904,2.7276,2.7226,2.768,2.8024,2.7938,2.8086,2.8348,2.8812,2.8875,2.9089,2.9616,2.9679,3.0226,3.1541,3.2286,3.3394,3.5359,3.5504,3.5504,3.5504,3.5504,3.5504,3.5504,3.6117,3.6554,3.6737,3.7456,3.8189,3.9086,3.89,3.9251,4.007,4.007,4.007,4.007,4.007,4.007,4.007,4.007,4.007,4.007,4.007,4.007,4.007,4.007,4.007,4.007,-0.4613,-0.4587,-0.4048,-0.2559,-0.1026,0.0,0.0,0.0,0.0443,0.1792,0.2953,0.3666,0.3941,0.5808,0.7139,0.7139,0.637,0.6127,0.6599,0.6455,0.6281,0.6334,0.7243,0.8098,0.8878,1.0116,1.0666,1.0356,0.9656,0.9734,1.0438,1.0438,1.0969,1.1891,1.2275,1.2798,1.3534,1.4971,1.5687,1.5944,1.7207,1.7734,1.7754,1.7939,1.8008,1.7988,1.7803,1.7734,1.7734,1.7734,1.8008,1.8488,1.9417,2.04,2.145,2.2749,2.3663,2.4402,2.504,2.5485,2.5875,2.6402,2.6967,2.7381,2.7381,2.7381,2.7306,2.6984,2.7645,2.8174,2.8127,2.8625,2.9051,2.9051,2.9051,2.9114,2.9391,2.9428,2.9529,2.9754,2.9792,3.0317,3.1594,3.2561,3.3815,3.5374,3.5504,3.5504,3.5504,3.5504,3.5504,3.5504,3.5846,3.6165,3.6615,3.6964,3.7684,3.8739,3.8619,3.9129,4.007,4.007,4.007,4.007,4.007,4.007,4.007,4.007,4.007,4.007,4.007,4.007,4.007,4.007,4.007,4.007]},{"header":{"parameterUnit":"m.s-1","parameterCategory":1,"la1":30.6,"la2":28.766,"lo1":-90.7593,"lo2":-88.6598,"dy":0.0162,"dx":0.0183,"nx":116,"ny":114,"refTime":"2023-11-04T18:00:00:Z","depth":0,"parameterNumber":3,"parameterNumberName":"V-component_of_WINDS"},"data":[0.0,0.0,0.0,0.0,0.0,0.0,0.0,0.0,0.0,0.0,0.0,0.0,0.0,0.0,0.0,0.0,0.0,0.0,0.0,0.0,0.0,0.0,0.0,0.0,0.0,0.0,0.0,0.0,0.0,0.0,0.0,0.0,0.0,0.0,0.0,0.0,0.0,0.0,0.0,0.0,0.0,0.0,0.0,0.0,0.0,0.0,0.0,0.0,0.0,0.0,0.0,0.0,0.0,0.0,0.0,0.0,0.0,0.0,0.0,0.0,0.0,0.0,0.0,0.0,0.0,0.0,0.0,0.0,0.0,0.0,0.0,0.0,0.0,0.0,0.0,0.0,0.0,0.0,0.0,0.0,0.0,0.0,0.0,0.0,0.0,0.0,0.0,0.0,0.0,0.0,0.0,0.0,0.0,0.0,0.0,0.0,0.0,0.0,0.0,0.0,0.0,0.0,0.0,0.0,0.0,0.0,0.0,0.0,0.0,0.0,0.0,0.0,0.0,0.0,0.0,0.0,0.0,0.0,0.0,0.0,0.0,0.0,0.0,0.0,0.0,0.0,0.0,0.0,0.0,0.0,0.0,0.0,0.0,0.0,0.0,0.0,0.0,0.0,0.0,0.0,0.0,0.0,0.0,0.0,0.0,0.0,0.0,0.0,0.0,0.0,0.0,0.0,0.0,0.0,0.0,0.0,0.0,0.0,0.0,0.0,0.0,0.0,0.0,0.0,0.0,0.0,0.0,0.0,0.0,0.0,0.0,0.0,0.0,0.0,0.0,0.0,0.0,0.0,0.0,0.0,0.0,0.0,0.0,0.0,0.0,0.0,0.0,0.0,0.0,0.0,0.0,0.0,0.0,0.0,0.0,0.0,0.0,0.0,0.0,0.0,0.0,0.0,0.0,0.0,0.0,0.0,0.0,0.0,0.0,0.0,0.0,0.0,0.0,0.0,0.0,0.0,0.0,0.0,0.0,0.0,0.0,0.0,0.0,0.0,0.0,0.0,0.0,0.0,0.0,0.0,0.0,0.0,0.0,0.0,0.0,0.0,0.0,0.0,0.0,0.0,0.0,0.0,0.0,0.0,0.0,0.0,0.0,0.0,0.0,0.0,0.0,0.0,0.0,0.0,0.0,0.0,0.0,0.0,0.0,0.0,0.0,0.0,0.0,0.0,0.0,0.0,0.0,0.0,0.0,0.0,0.0,0.0,0.0,0.0,0.0,0.0,0.0,0.0,0.0,0.0,0.0,0.0,0.0,0.0,0.0,0.0,0.0,0.0,0.0,0.0,0.0,0.0,0.0,0.0,0.0,0.0,0.0,0.0,0.0,0.0,0.0,0.0,0.0,0.0,0.0,0.0,0.0,0.0,0.0,0.0,0.0,0.0,0.0,0.0,0.0,0.0,0.0,0.0,0.0,0.0,0.0,0.0,0.0,0.0,0.0,0.0,0.0,0.0,0.0,0.0,0.0,0.0,0.0,0.0,0.0,0.0,0.0,0.0,0.0,0.0,0.0,0.0,0.0,0.0,0.0,0.0,0.0,0.0,0.0,0.0,0.0,0.0,0.0,0.0,0.0,0.0,0.0,0.0,0.0,0.0,0.0,0.0,0.0,0.0,0.0,0.0,0.0,0.0,0.0,0.0,0.0,0.0,0.0,0.0,0.0,0.0,0.0,0.0,0.0,0.0,0.0,0.0,0.0,0.0,0.0,0.0,0.0,0.0,0.0,0.0,0.0,0.0,0.0,0.0,0.0,0.0,0.0,0.0,0.0,0.0,0.0,0.0,0.0,0.0,0.0,0.0,0.0,0.0,0.0,0.0,0.0,0.0,0.0,0.0,0.0,0.0,0.0,0.0,0.0,0.0,0.0,0.0,0.0,0.0,0.0,0.0,0.0,0.0,0.0,0.0,0.0,0.0,0.0,0.0,0.0,0.0,0.0,0.0,0.0,0.0,0.0,0.0,0.0,0.0,0.0,0.0,0.0,0.0,0.0,0.0,0.0,0.0,0.0,0.0,0.0,0.0,0.0,0.0,0.0,0.0,0.0,0.0,0.0,0.0,0.0,0.0,0.0,0.0,0.0,0.0,0.0,0.0,0.0,0.0,0.0,0.0,0.0,0.0,0.0,0.0,0.0,0.0,0.0,0.0,0.0,0.0,0.0,0.0,0.0,0.0,0.0,0.0,0.0,0.0,0.0,0.0,0.0,0.0,0.0,0.0,0.0,0.0,0.0,0.0,0.0,0.0,0.0,0.0,0.0,0.0,0.0,0.0,0.0,0.0,0.0,0.0,0.0,0.0,0.0,0.0,0.0,0.0,0.0,0.0,0.0,0.0,0.0,0.0,0.0,0.0,0.0,0.0,0.0,0.0,0.0,0.0,0.0,0.0,0.0,0.0,0.0,0.0,0.0,0.0,0.0,0.0,0.0,0.0,0.0,0.0,0.0,0.0,0.0,0.0,0.0,0.0,0.0,0.0,0.0,0.0,0.0,0.0,0.0,0.0,0.0,0.0,0.0,0.0,0.0,0.0,0.0,0.0,0.0,0.0,0.0,0.0,0.0,0.0,0.0,0.0,0.0,0.0,0.0,0.0,0.0,0.0,0.0,0.0,0.0,0.0,0.0,0.0,0.0,0.0,0.0,0.0,0.0,0.0,0.0,0.0,0.0,0.0,0.0,0.0,0.0,0.0,0.0,0.0,0.0,0.0,0.0,0.0,0.0,0.0,0.0,0.0,0.0,0.0,0.0,0.0,0.0,0.0,0.0,0.0,0.0,0.0,0.0,0.0,0.0,0.0,0.0,0.0,0.0,0.0,0.0,0.0,0.0,0.0,0.0,0.0,0.0,0.0,0.0,0.0,0.0,0.0,0.0,0.0,0.0,0.0,0.0,0.0,0.0,0.0,0.0,0.0,0.0,0.0,0.0,0.0,0.0,0.0,0.0,0.0,0.0,0.0,0.0,0.0,0.0,0.0,0.0,0.0,0.0,0.0,0.0,0.0,0.0,0.0,0.0,0.0,0.0,0.0,0.0,0.0,0.0,0.0,0.0,0.0,0.0,0.0,0.0,0.0,0.0,0.0,0.0,0.0,0.0,0.0,0.0,0.0,0.0,0.0,0.0,0.0,0.0,0.0,0.0,0.0,0.0,0.0,0.0,0.0,0.0,0.0,0.0,0.0,0.0,0.0,0.0,0.0,0.0,0.0,0.0,0.0,0.0,0.0,0.0,0.0,0.0,0.0,0.0,0.0,0.0,0.0,0.0,0.0,0.0,0.0,0.0,0.0,0.0,0.0,0.0,0.0,0.0,0.0,0.0,0.0,0.0,0.0,0.0,0.0,0.0,0.0,0.0,0.0,0.0,0.0,0.0,0.0,0.0,0.0,0.0,0.0,0.0,0.0,0.0,0.0,0.0,0.0,0.0,0.0,0.0,0.0,0.0,0.0,0.0,0.0,0.0,0.0,0.0,0.0,0.0,0.0,0.0,0.0,0.0,0.0,0.0,0.0,0.0,0.0,0.0,0.0,0.0,0.0,0.0,0.0,0.0,0.0,0.0,0.0,0.0,0.0,0.0,0.0,0.0,0.0,0.0,0.0,0.0,0.0,0.0,0.0,0.0,0.0,0.0,0.0,0.0,0.0,0.0,0.0,0.0,0.0,0.0,0.0,0.0,0.0,0.0,0.0,0.0,0.0,0.0,0.0,0.0,0.0,0.0,0.0,0.0,0.0,0.0,0.0,0.0,0.0,0.0,0.0,0.0,0.0,0.0,0.0,0.0,0.0,0.0,0.0,0.0,0.0,0.0,0.0,0.0,0.0,0.0,0.0,0.0,0.0,0.0,0.0,0.0,0.0,0.0,0.0,0.0,0.0,0.0,0.0,0.0,0.0,0.0,0.0,0.0,0.0,0.0,0.0,0.0,0.0,0.0,0.0,0.0,0.0,0.0,0.0,0.0,0.0,0.0,0.0,0.0,0.0,0.0,0.0,0.0,0.0,0.0,0.0,0.0,0.0,0.0,0.0,0.0,0.0,0.0,0.0,0.0,0.0,0.0,0.0,0.0,0.0,0.0,0.0,0.0,0.0,0.0,0.0,0.0,0.0,0.0,0.0,0.0,0.0,0.0,0.0,0.0,0.0,0.0,0.0,0.0,0.0,0.0,0.0,0.0,0.0,0.0,0.0,0.0,0.0,0.0,0.0,0.0,0.0,0.0,0.0,0.0,0.0,0.0,0.0,0.0,0.0,0.0,0.0,0.0,0.0,0.0,0.0,0.0,0.0,0.0,0.0,0.0,0.0,0.0,0.0,0.0,0.0,0.0,0.0,0.0,0.0,0.0,0.0,0.0,0.0,0.0,0.0,0.0,0.0,0.0,0.0,0.0,0.0,0.0,0.0,0.0,0.0,0.0,0.0,0.0,0.0,0.0,0.0,0.0,0.0,0.0,0.0,0.0,0.0,0.0,0.0,0.0,0.0,0.0,0.0,0.0,0.0,0.0,0.0,0.0,0.0,0.0,0.0,0.0,0.0,0.0,0.0,0.0,0.0,0.0,0.0,0.0,0.0,0.0,0.0,0.0,0.0,0.0,0.0,0.0,0.0,0.0,0.0,0.0,0.0,0.0,0.0,0.0,0.0,0.0,0.0,0.0,0.0,0.0,0.0,0.0,0.0,0.0,0.0,0.0,0.0,0.0,0.0,0.0,0.0,0.0,0.0,0.0,0.0,0.0,0.0,0.0,0.0,0.0,0.0,0.0,0.0,0.0,0.0,0.0,0.0,0.0,0.0,0.0,0.0,0.0,0.0,0.0,0.0,0.0,0.0,0.0,0.0,0.0,0.0,0.0,0.0,0.0,0.0,0.0,0.0,0.0,0.0,0.0,0.0,0.0,0.0,0.0,0.0,0.0,0.0,0.0,0.0,0.0,0.0,0.0,0.0,0.0,0.0,0.0,0.0,0.0,0.0,0.0,0.0,0.0,0.0,0.0,0.0,0.0,0.0,0.0,0.0,0.0,0.0,0.0,0.0,0.0,0.0,0.0,0.0,0.0,0.0,0.0,0.0,0.0,0.0,0.0,0.0,0.0,0.0,0.0,0.0,0.0,0.0,0.0,0.0,0.0,0.0,0.0,0.0,0.0,0.0,0.0,0.0,0.0,0.0,0.0,0.0,0.0,0.0,0.0,0.0,0.0,0.0,0.0,0.0,0.0,0.0,0.0,0.0,0.0,0.0,0.0,0.0,0.0,0.0,0.0,0.0,0.0,0.0,0.0,0.0,0.0,0.0,0.0,0.0,0.0,0.0,0.0,0.0,0.0,0.0,0.0,0.0,0.0,0.0,0.0,0.0,0.0,0.0,0.0,0.0,0.0,0.0,0.0,0.0,0.0,0.0,0.0,0.0,0.0,0.0,0.0,0.0,0.0,0.0,0.0,0.0,0.0,0.0,0.0,0.0,0.0,0.0,0.0,0.0,0.0,0.0,0.0,0.0,0.0,0.0,0.0,0.0,0.0,0.0,0.0,0.0,0.0,0.0,0.0,0.0,0.0,0.0,0.0,0.0,0.0,0.0,0.0,0.0,0.0,0.0,0.0,0.0,0.0,0.0,0.0,0.0,0.0,0.0,0.0,0.0,0.0,0.0,0.0,0.0,0.0,0.0,0.0,0.0,0.0,0.0,0.0,0.0,0.0,0.0,0.0,0.0,0.0,0.0,0.0,0.0,0.0,0.0,0.0,0.0,0.0,0.0,0.0,0.0,0.0,0.0,0.0,0.0,0.0,0.0,0.0,0.0,0.0,0.0,0.0,0.0,0.0,0.0,0.0,0.0,0.0,0.0,0.0,0.0,0.0,0.0,0.0,0.0,0.0,0.0,0.0,0.0,0.0,0.0,0.0,0.0,0.0,0.0,0.0,0.0,0.0,0.0,0.0,0.0,0.0,0.0,0.0,0.0,0.0,0.0,0.0,0.0,0.0,0.0,0.0,0.0,0.0,0.0,0.0,0.0,0.0,0.0,0.0,0.0,0.0,0.0,0.0,0.0,0.0,0.0,0.0,0.0,0.0,0.0,0.0,0.0,0.0,0.0,0.0,0.0,0.0,0.0,0.0,0.0,0.0,0.0,0.0,0.0,-1.9738,0.0,0.0,0.0,0.0,0.0,0.0,0.0,0.0,0.0,0.0,0.0,0.0,0.0,0.0,0.0,0.0,0.0,0.0,0.0,0.0,0.0,0.0,0.0,0.0,0.0,0.0,0.0,0.0,0.0,0.0,0.0,0.0,0.0,0.0,0.0,0.0,0.0,0.0,0.0,-0.5358,-0.694,-0.8998,-0.9904,-0.9916,-0.9231,0.0,0.0,0.0,0.0,0.0,0.0,0.0,0.0,0.0,0.0,0.0,0.0,0.0,0.0,0.0,0.0,0.0,0.0,0.0,0.0,0.0,0.0,0.0,0.0,0.0,0.0,0.0,0.0,0.0,0.0,0.0,0.0,0.0,0.0,0.0,0.0,0.0,0.0,0.0,0.0,0.0,0.0,0.0,0.0,0.0,0.0,0.0,0.0,0.0,0.0,0.0,0.0,0.0,0.0,0.0,0.0,0.0,0.0,0.0,0.0,0.0,0.0,0.0,0.0,0.0,0.0,0.0,0.0,0.0,0.0,0.0,-2.0219,0.0,0.0,0.0,0.0,0.0,0.0,0.0,0.0,0.0,0.0,0.0,0.0,0.0,0.0,0.0,0.0,0.0,0.0,0.0,0.0,0.0,0.0,0.0,0.0,0.0,0.0,0.0,0.0,0.0,0.0,0.0,0.0,0.0,0.0,0.0,0.0,0.0,0.0,-0.7046,-0.9234,-1.1225,-1.2747,-1.2518,-1.0701,-1.1081,0.0,0.0,0.0,0.0,0.0,0.0,0.0,0.0,0.0,0.0,0.0,0.0,0.0,0.0,0.0,0.0,0.0,0.0,0.0,0.0,0.0,0.0,0.0,0.0,0.0,0.0,0.0,0.0,0.0,0.0,0.0,0.0,0.0,0.0,0.0,0.0,0.0,0.0,0.0,0.0,0.0,0.0,0.0,0.0,0.0,0.0,0.0,0.0,0.0,0.0,0.0,0.0,0.0,0.0,0.0,0.0,0.0,0.0,0.0,0.0,0.0,0.0,0.0,-2.0326,-2.1001,-2.1982,-2.2882,-2.3083,-2.2755,-2.2837,-2.193,-2.0399,0.0,0.0,0.0,0.0,0.0,0.0,0.0,0.0,0.0,0.0,0.0,0.0,0.0,0.0,0.0,0.0,0.0,0.0,0.0,0.0,0.0,0.0,-0.1807,-0.1423,0.0164,0.2454,0.4107,0.0,0.0,0.0,0.0,0.0,0.0,0.0,-0.1768,-0.3865,-0.5341,-0.9494,-1.2295,-1.3911,-1.4743,-1.4946,-1.4592,-1.358,-1.4399,-1.6336,0.0,0.0,0.0,0.0,0.0,0.0,0.0,0.0,0.0,0.0,0.0,0.0,0.0,0.0,0.0,0.0,0.0,0.0,0.0,0.0,0.0,0.0,0.0,0.0,0.0,0.0,0.0,0.0,0.0,0.0,0.0,0.0,0.0,0.0,0.0,0.0,0.0,0.0,0.0,0.0,0.0,-0.5352,-0.7067,0.0,0.0,0.0,0.0,0.0,0.0,0.0,0.0,0.0,0.0,0.0,0.0,0.0,-1.9838,-1.9897,-2.1469,-2.1945,-2.1174,-2.2701,-2.3542,-2.3799,-2.4651,-2.5605,-2.6586,-2.6747,0.0,-2.1643,-2.1038,0.0,0.0,0.0,0.0,0.0,0.0,0.0,0.0,0.0,0.0,0.0,0.0,0.0,0.0,0.0,0.0,0.0,0.0,0.0,0.0,0.0,-0.0568,-0.087,-0.0625,0.1551,0.32,0.3727,0.0,0.0,0.0,0.0,0.0,0.0,-0.1767,-0.4864,-0.8008,-1.1328,-1.3709,-1.5129,-1.6076,-1.6882,-1.7417,-1.6461,-1.6011,-1.5992,-1.5311,0.0,0.0,0.0,0.0,0.0,0.0,0.0,0.0,0.0,0.0,0.0,0.0,0.0,0.0,0.0,0.0,0.0,0.0,0.0,0.0,0.0,0.0,0.0,0.0,0.0,0.0,0.0,0.0,0.0,0.0,0.0,0.0,0.0,0.0,0.0,0.0,0.0,0.0,0.0,-0.5771,-0.7974,-0.8291,-0.9603,-1.0552,0.0,0.0,0.0,0.0,0.0,0.0,0.0,0.0,0.0,-2.158,-2.2464,-2.3077,-2.3356,-2.4476,-2.493,-2.4744,-2.5153,-2.5595,-2.5948,-2.6972,-2.7298,-2.7157,-2.7799,-2.6462,-2.3803,-2.2566,-2.1271,-1.9984,0.0,0.0,0.0,0.0,-1.9559,-2.1101,0.0,0.0,0.0,0.0,0.0,0.0,0.0,0.0,0.0,0.0,0.0,0.0,0.2713,0.1004,-0.0062,-0.1043,0.0963,0.2576,0.3248,0.4255,0.0,0.0,0.0,0.0,0.0831,-0.2577,-0.6402,-1.06,-1.2718,-1.4491,-1.5964,-1.7044,-1.8151,-1.9135,-1.8585,-1.7754,-1.6787,-1.6621,-1.692,-1.7505,0.0,0.0,0.0,0.0,0.0,0.0,0.0,0.0,0.0,0.0,0.0,0.0,0.0,0.0,0.0,0.0,0.0,0.0,0.0,0.0,0.0,0.0,0.0,0.0,0.0,0.0,0.0,0.0,0.0,0.0,0.0,0.0,0.0,0.0,0.0,0.0,0.0,-0.8265,-1.0065,-0.9486,-1.1559,-1.2759,0.0,0.0,0.0,0.0,0.0,0.0,-2.054,-2.1832,-2.3044,-2.4188,-2.5282,-2.6088,-2.6678,-2.6974,-2.7231,-2.7494,-2.6929,-2.6892,-2.7326,-2.8516,-2.8304,-2.7257,-2.8237,-2.7666,-2.5966,-2.3729,-2.2117,-2.0928,-1.9435,-1.9072,-1.9389,-1.9119,-2.0419,-2.2293,0.0,0.0,0.0,0.0,0.0,0.0,0.0,0.0,0.0,0.0,0.0,1.0599,0.5534,0.2625,0.0455,-0.0967,0.0331,0.179,0.3177,0.4057,0.4805,0.5433,0.3335,0.1501,0.011,-0.4789,-0.892,-1.227,-1.3599,-1.5016,-1.6573,-1.7531,-1.8442,-1.9299,-1.9257,-2.0008,-2.1242,-1.8951,-1.891,-2.0293,-1.9238,0.0,0.0,0.0,0.0,0.0,0.0,0.0,0.0,0.0,0.0,0.0,0.0,0.0,0.0,0.0,0.0,0.0,0.0,0.0,0.0,0.0,0.0,0.0,0.0,0.0,0.0,0.0,0.0,0.0,0.0,0.0,0.0,0.0,0.0,0.0,0.0,0.0,0.0,-1.1538,-1.4735,0.0,0.0,0.0,0.0,-1.8711,-2.0715,-2.2438,-2.3598,-2.474,-2.599,-2.7356,-2.8213,-2.9,-2.9565,-2.9063,-2.8561,-2.8059,-2.7507,-2.7256,-2.7326,-2.8516,-2.8529,-2.7735,-2.8788,-2.8732,-2.763,-2.4079,-2.222,-2.147,-2.074,-2.0481,-2.0568,-2.1046,-2.1763,-2.2577,0.0,0.0,0.0,0.0,0.0,0.0,0.0,0.0,0.0,1.5778,1.4182,1.1461,0.6823,0.4772,0.2984,0.1042,0.2884,0.4201,0.4296,0.5628,0.6151,0.55,0.3822,0.1283,-0.2166,-0.6107,-0.9237,-1.1581,-1.3815,-1.5591,-1.7035,-1.798,-1.9033,-2.017,-2.0396,-2.1181,-2.2123,-2.0263,-1.9718,-2.003,-1.968,-1.9473,0.0,0.0,0.0,0.0,0.0,0.0,0.0,0.0,0.0,0.0,0.0,0.0,0.0,0.0,0.0,0.0,0.0,0.0,0.0,0.0,0.0,0.0,0.0,0.0,0.0,0.0,0.0,0.0,0.0,0.0,0.0,0.0,0.0,0.0,0.0,0.0,0.0,-1.5009,-1.6915,0.0,-1.7966,-1.9241,-2.0809,-2.2527,-2.3875,-2.5317,-2.6902,-2.7366,-2.8049,-2.9013,-2.9276,-2.9605,-2.977,-2.9611,-2.8725,-2.7188,-2.7916,-2.7581,-2.6407,-2.7626,-2.7773,-2.7078,-2.7566,-2.7114,-2.5982,-2.4248,-2.3438,-2.3194,-2.1722,-2.1161,-2.1202,-2.1403,-2.2128,-2.3008,0.0,0.0,0.0,0.0,0.0,0.0,0.0,0.0,0.0,1.4928,1.4023,1.1938,0.8027,0.6544,0.5012,0.3065,0.4452,0.5597,0.5784,0.6437,0.6513,0.5887,0.3458,0.0284,-0.36,-0.6818,-0.9194,-1.06,-1.3523,-1.539,-1.6158,-1.7677,-1.9069,-2.0357,-2.0895,-2.1764,-2.2739,-2.1975,-2.127,-2.068,-2.0538,-2.0312,-1.9959,0.0,0.0,0.0,0.0,0.0,0.0,0.0,0.0,0.0,0.0,0.0,0.0,0.0,0.0,0.0,0.0,0.0,0.0,0.0,0.0,0.0,0.0,0.0,0.0,0.0,0.0,0.0,0.0,0.0,0.0,0.0,0.0,0.0,0.0,0.0,-1.6923,-1.7147,-1.9058,-2.0258,-1.9784,-2.1741,-2.356,-2.4966,-2.6456,-2.7803,-2.8975,-2.9088,-2.9288,-2.9779,-2.9792,-2.9777,-2.9824,-2.9824,-2.8761,-2.6648,-2.7304,-2.7247,-2.6457,-2.7105,-2.7026,-2.6324,-2.6527,-2.6028,-2.4965,-2.4316,-2.4073,-2.4033,-2.2629,-2.2046,-2.2046,-2.2046,-2.2647,-2.3239,0.0,0.0,0.0,0.0,0.0,0.0,0.0,1.2589,1.3746,1.4329,1.382,1.2265,0.9266,0.7725,0.6307,0.4864,0.4921,0.5723,0.7453,0.6329,0.5878,0.6485,0.2216,-0.1354,-0.3898,-0.7015,-0.8969,-0.965,-1.2893,-1.4353,-1.4148,-1.6641,-1.8516,-1.989,-2.0673,-2.1848,-2.33,-2.4042,-2.3637,-2.2399,-2.1943,-2.1335,-2.0647,0.0,0.0,0.0,0.0,0.0,0.0,0.0,0.0,0.0,0.0,0.0,0.0,0.0,0.0,0.0,0.0,0.0,0.0,0.0,0.0,0.0,0.0,0.0,0.0,0.0,0.0,0.0,0.0,0.0,0.0,0.0,0.0,0.0,-1.3439,-1.6576,-1.8591,-1.7697,-2.1224,-2.2783,-2.0254,-2.4271,-2.668,-2.5994,-2.8343,-2.9804,-2.9792,-2.9792,-2.9702,-2.9689,-2.9702,-2.9721,-2.9671,-2.9659,-2.8503,-2.6428,-2.5881,-2.6288,-2.7505,-2.7087,-2.6375,-2.5548,-2.5881,-2.5534,-2.4757,-2.4217,-2.3991,-2.3916,-2.3351,-2.3078,-2.3078,-2.3053,-2.318,-2.3161,0.0,0.0,0.0,0.0,0.0,0.0,0.0,1.0732,1.2251,1.2389,1.2553,1.2099,1.0623,0.9867,0.89,0.7742,0.8023,0.8261,0.8312,0.7746,0.6458,0.4295,0.1384,-0.1073,-0.303,-0.6492,-0.8459,-0.8762,-1.2446,-1.4181,-1.4148,-1.6641,-1.8344,-1.9373,-2.0088,-2.1235,-2.2707,-2.3509,-2.3585,-2.3212,-2.3113,-2.2128,-2.0737,0.0,0.0,0.0,0.0,0.0,0.0,0.0,0.0,0.0,0.0,0.0,0.0,0.0,0.0,0.0,0.0,0.0,0.0,0.0,0.0,0.0,0.0,0.0,0.0,0.0,0.0,0.0,0.0,0.0,0.0,0.0,0.0,-1.4731,-1.4749,-1.7881,-2.0476,-2.1393,-2.2562,-2.3248,-2.3165,-2.3835,-2.5416,-2.8503,-2.9413,-2.9808,-2.9804,-2.8785,-2.7973,-2.7455,-2.7405,-2.7441,-2.737,-2.576,-2.4701,-2.4246,-2.5071,-2.5449,-2.5385,-2.6202,-2.5892,-2.4578,-2.4682,-2.4541,-2.4217,-2.4067,-2.3753,-2.3364,-2.3128,-2.3078,-2.3027,-2.2686,-2.2048,-2.1391,0.0,0.0,0.0,0.0,0.0,0.0,0.0,0.971,1.1362,1.1708,1.2268,1.2352,1.1802,1.1424,1.0602,0.9029,0.8991,0.9101,0.9035,0.8114,0.6113,0.2971,0.0824,-0.1032,-0.269,-0.6347,-0.8245,-0.822,-1.1826,-1.3498,-1.3476,-1.6188,-1.7846,-1.8622,-1.9868,-2.1176,-2.2508,-2.2985,-2.3336,-2.3506,-2.3287,-2.2532,-2.1545,-2.1665,-2.0858,-1.9703,-1.9433,-1.8952,-1.8231,-1.7008,0.0,0.0,0.0,0.0,0.0,0.0,0.0,0.0,0.0,0.0,0.0,0.0,0.0,0.0,0.0,0.0,0.0,0.0,0.0,0.0,0.0,0.0,0.0,0.0,-1.4143,-1.5419,-1.5267,-1.8171,-2.0987,-2.2882,-2.3144,-2.334,-2.3806,-2.4464,-2.5934,-2.8562,-2.9363,-2.969,-2.9462,-2.8267,-2.73,-2.6564,-2.6535,-2.6329,-2.6052,-2.4451,-2.3392,-2.2752,-2.4326,-2.4842,-2.4492,-2.5406,-2.5274,0.0,-2.3931,-2.3691,-2.364,-2.364,-2.3439,0.0,0.0,0.0,0.0,0.0,-2.1377,-2.101,0.0,0.0,0.0,0.0,0.0,0.0,0.0,0.9245,1.0812,1.1822,1.2353,1.2603,1.2507,1.2297,1.1331,0.9378,0.8841,0.8909,0.9517,0.7739,0.5433,0.2657,0.0785,-0.0932,-0.251,-0.6238,-0.8139,-0.7921,-1.1188,-1.259,-1.2406,-1.5504,-1.7168,-1.7716,-1.965,-2.1172,-2.2297,-2.2346,-2.2783,-2.3411,-2.2828,-2.2607,-2.2664,-2.2024,-2.1458,-2.0961,-2.0894,-2.0614,-2.0156,-1.9346,0.0,0.0,0.0,0.0,0.0,0.0,0.0,0.0,0.0,0.0,0.0,0.0,0.0,0.0,0.0,0.0,0.0,0.0,0.0,0.0,0.0,0.0,0.0,0.0,-1.5011,-1.5922,-1.5382,-1.7911,-2.0624,-2.2856,-2.3108,-2.3121,-2.3076,-2.5392,-2.6997,-2.7273,-2.855,-2.9189,-2.8855,0.0,0.0,0.0,0.0,-2.5768,-2.5115,-2.4535,-2.3536,-2.2073,-2.3708,-2.443,-2.4415,-2.4584,-2.4589,-2.435,-2.3356,-2.2969,-2.3078,-2.3078,-2.304,-2.2977,-2.2965,-2.2602,-2.2008,-2.1083,-2.0977,-2.1158,0.0,0.0,0.0,0.0,0.0,0.0,0.0,0.8881,1.0174,1.1485,1.1204,1.1141,1.1775,1.1321,1.0624,0.9975,0.9643,0.9176,0.8545,0.7464,0.6138,0.4628,0.2139,0.0064,-0.1519,-0.5104,-0.7173,-0.7568,-1.0866,-1.2323,-1.2058,-1.4965,-1.6429,-1.657,-1.8507,-1.9741,-2.0426,-2.0881,-2.1618,-2.2508,-2.2079,-2.2203,-2.2709,-2.2574,-2.2118,-2.1499,-2.1039,-2.1121,-2.1094,-1.9088,-1.8887,-1.9237,-1.7705,0.0,0.0,0.0,0.0,0.0,0.0,0.0,0.0,0.0,0.0,0.0,0.0,0.0,0.0,0.0,0.0,0.0,0.0,0.0,0.0,-1.4508,-1.5147,-1.5494,-1.5638,-1.7888,-2.0468,-2.2815,-2.314,-2.3133,-2.3096,-2.363,-2.4943,-2.733,-2.6729,-2.6806,-2.8158,-2.6389,-2.5262,-2.5126,-2.4221,-2.3734,-2.359,-2.3067,-2.2935,-2.3,0.0,0.0,-2.3741,-2.379,-2.3183,-2.204,-2.1829,-2.2219,-2.3078,-2.3078,-2.2874,-2.246,-2.228,-2.1775,-2.1125,-2.0819,-2.0181,-1.9508,0.0,0.0,0.0,0.0,0.0,0.0,0.0,0.9156,1.017,1.0874,1.0967,1.0702,0.9887,0.9451,0.9161,0.8862,0.8964,0.8689,0.7788,0.7627,0.6702,0.4807,0.2831,0.0813,-0.1276,-0.4753,-0.6894,-0.7395,-1.053,-1.1971,-1.1942,-1.4604,-1.5991,-1.6277,-1.8163,-1.9324,-1.9917,-2.0131,-2.1001,-2.2216,-2.1137,-2.1431,-2.2464,-2.2295,-2.1979,-2.1645,-2.1407,-2.1297,-2.1112,-1.9965,-1.9369,-1.8993,-1.813,-1.7415,-1.6886,0.0,0.0,0.0,0.0,0.0,0.0,0.0,0.0,0.0,0.0,0.0,0.0,0.0,0.0,-1.2296,0.0,0.0,-1.4365,-1.5127,-1.5399,-1.5558,-1.5805,-1.6835,-1.8519,-2.1004,-2.2396,-2.3076,-2.3105,-2.3096,-2.4064,-2.6425,-2.5678,-2.5602,-2.6797,-2.5581,-2.4542,-2.3963,-2.3179,-2.2822,-2.2822,-2.2187,-2.1994,-2.2221,-2.2836,-2.2883,-2.254,-2.2682,-2.2263,-2.1422,-2.1568,-2.2181,-2.307,-2.2536,-2.1811,-2.1023,-2.0939,-2.0864,-2.0759,-2.0397,-1.9716,-1.8982,0.0,0.0,0.0,0.0,0.0,0.0,0.0,0.0,1.0322,1.0416,1.0903,1.0544,0.8618,0.8187,0.7973,0.7678,0.8239,0.8283,0.7623,0.8063,0.7362,0.5038,0.3466,0.1515,-0.0794,-0.4282,-0.6376,-0.6978,-0.996,-1.1526,-1.1734,-1.4192,-1.5553,-1.5984,-1.7961,-1.9108,-1.9557,-1.9658,-2.0593,-2.1931,-2.0421,-2.0727,-2.1988,-2.1584,-2.1534,-2.1655,-2.1425,-2.1079,-2.0705,-2.0472,-1.9386,-1.8113,-1.797,-1.7206,-1.6286,-1.6188,-1.5389,0.0,0.0,0.0,0.0,0.0,0.0,0.0,0.0,0.0,-0.9373,-1.1356,-1.2458,-1.3283,-1.3801,-1.4372,-1.481,-1.5061,-1.5207,-1.5363,-1.5439,-1.5622,-1.664,-1.8856,-2.1042,-2.2492,-2.2775,-2.296,-2.3777,-2.5312,-2.4836,-2.4784,-2.5409,-2.4826,-2.4008,-2.3018,-2.2685,-2.2471,-2.2393,-2.1621,-2.123,-2.123,-2.1742,-2.1722,-2.1125,-2.1572,-2.1506,-2.1163,-2.1522,-2.1949,-2.2382,-2.1438,-2.0526,-1.973,-1.9534,-1.9846,-2.0315,-1.9813,-1.9227,-1.8617,0.0,0.0,0.0,0.0,0.0,0.0,0.0,0.0,0.0,1.0799,1.0405,1.0143,1.0267,0.9298,0.8403,0.7923,0.8713,0.9112,0.8685,0.8808,0.8345,0.7057,0.467,0.2559,0.0855,-0.2438,-0.4687,-0.5874,-0.889,-1.0576,-1.098,-1.3583,-1.4821,-1.4958,-1.7193,-1.8219,-1.8379,-1.9301,-2.0257,-2.1084,-2.0478,-2.0577,-2.11,-2.0615,-2.0975,-2.156,-2.0486,-2.0131,-2.0033,-1.8864,-1.804,-1.7384,-1.6809,-1.6138,-1.5506,-1.5062,0.0,-1.3758,-1.3062,-1.0404,-0.7603,-0.6545,-0.5747,-0.5963,0.0,0.0,-0.9336,-1.3512,-1.4173,-1.4467,-1.5901,-1.4804,-1.374,-1.3975,-1.3721,-1.3665,-1.4076,-1.4994,-1.6223,-1.777,-1.9139,-2.0305,-2.1391,-2.2492,-2.357,-2.4775,-2.3907,-2.3734,-2.4861,-2.3907,-2.3046,-2.2598,-2.2539,-2.2334,-2.1963,-2.1475,-2.123,-2.123,-2.1742,-2.1357,-2.0118,-2.0679,-2.0631,-2.0075,-2.0543,-2.0545,-2.0177,-1.9633,-1.9448,-1.9507,-1.8517,-1.8529,-1.9196,-1.9095,-1.844,-1.7689,0.0,0.0,0.0,0.0,0.0,0.0,0.0,0.0,0.0,0.0,1.0488,1.008,0.9956,0.9206,0.8614,0.8405,0.8745,0.8912,0.8764,0.8971,0.8639,0.7589,0.5851,0.3923,0.1783,-0.1458,-0.3941,-0.5563,-0.8699,-1.0751,-1.1755,-1.3747,-1.5211,-1.6152,-1.75,-1.843,-1.9022,-1.9758,-2.055,-2.1275,-2.0583,-2.0348,-2.0272,-1.9045,-1.8559,-1.8567,-1.8788,-1.8275,0.0,0.0,-1.5738,-1.5036,-1.4759,-1.4247,-1.3784,-1.3543,-1.264,0.0,-0.967,-0.8007,0.0,0.0,-0.5829,-0.6741,-0.8926,-0.9306,-1.0168,-1.3681,-1.4606,-1.4966,-1.5672,-1.5238,-1.4303,0.0,-1.2549,-1.2349,-1.1996,-1.3329,-1.4432,-1.5165,-1.7165,-1.9222,-2.1114,-2.2394,-2.3299,-2.38,-2.3387,-2.3299,-2.38,-2.315,-2.2695,-2.2519,-2.2031,-2.168,-2.1504,-2.1064,-2.084,-2.084,-2.0831,-2.0317,-1.9541,-1.9523,-1.9407,-1.9162,-1.9362,-1.9511,-1.9512,-1.8958,-1.9091,-1.9483,-1.8358,-1.8177,-1.8518,-1.8276,-1.7848,-1.7383,0.0,0.0,0.0,0.0,0.0,0.0,0.0,0.0,0.0,0.0,0.0,1.0079,0.9558,0.9159,0.8878,0.8716,0.8941,0.8967,0.8741,0.9336,0.9125,0.7783,0.6704,0.5064,0.2861,-0.0449,-0.3091,-0.4877,-0.8164,-1.0604,-1.2235,-1.4089,-1.5631,-1.6967,-1.8044,-1.891,-1.9641,-2.023,-2.0943,-2.1505,-2.0591,-2.002,-1.9521,-1.7667,-1.6471,-1.5894,-1.6697,-1.6027,-1.4704,-1.4358,-1.3363,-1.2277,-1.2404,-1.1982,-1.1344,-1.1194,-1.0061,-0.8486,-0.6796,0.0,0.0,-0.522,-0.5887,-0.7134,-0.8995,-0.9972,-1.122,-1.36,-1.4643,-1.4953,-1.4469,-1.4559,-1.3753,-1.1168,-1.0826,-1.0565,-0.9934,-1.154,-1.2903,-1.3315,-1.5821,-1.8154,-1.9945,-2.1692,-2.2765,-2.3047,-2.3135,-2.3135,-2.3135,-2.2852,-2.2578,-2.2344,-2.1738,-2.1299,-2.1055,-2.0732,-2.0508,-2.0381,-2.0068,-1.9697,-1.9268,-1.8721,-1.8387,-1.8232,-1.8099,-1.8217,-1.8365,-1.8017,-1.8113,-1.8499,-1.7502,-1.7369,-1.7656,-1.7194,-1.7072,-1.7087,0.0,0.0,0.0,0.0,0.0,0.0,0.0,0.0,0.0,0.0,0.0,0.0,0.0,0.0,0.9279,0.8756,0.9517,0.9674,0.8773,1.0245,1.0098,0.7818,0.6903,0.5806,0.4368,0.0718,-0.1874,-0.3374,-0.6981,-0.976,-1.1769,-1.429,-1.5792,-1.6532,-1.8641,-1.957,-1.9656,-2.0601,-2.1213,-2.1502,-2.0439,-1.961,-1.882,-1.6881,-1.5433,-1.4452,-1.428,-1.3513,-1.2591,-1.2662,-1.1197,-0.941,-0.9934,-0.9292,0.0,-0.7607,-0.6549,-0.5573,0.0,0.0,-0.5061,-0.5457,-0.5796,-0.6693,-0.9116,-1.0799,-1.2186,-1.3737,-1.4449,-1.4289,-1.2802,-1.2003,-1.0839,-0.8343,-0.8017,-0.8124,-0.8089,-1.0092,-1.1979,-1.3205,-1.5445,-1.6913,0.0,-1.9805,-2.1845,-2.3047,-2.3135,-2.3135,-2.3135,-2.3125,-2.2744,-2.1934,-2.1875,-2.1455,-2.0596,-2.0576,-2.0352,-1.9932,-1.9922,-1.9697,-1.9258,-1.8418,-1.7793,-1.7419,-1.6934,-1.6556,-1.6205,-1.6186,-1.6131,-1.5933,-1.5384,-1.5698,-1.6371,-1.5846,-1.6032,-1.6547,0.0,0.0,0.0,0.0,0.0,0.0,0.0,0.0,0.0,0.0,0.0,0.0,0.0,0.0,0.0,0.0,0.9827,0.9444,0.9106,0.9456,0.93,0.854,0.7877,0.687,0.541,0.2108,-0.1034,-0.394,-0.7552,-1.0764,-1.3579,-1.5292,-1.6988,-1.8551,-1.9302,-2.0081,-2.0943,-2.1259,-2.1378,-2.1228,-1.987,-1.8639,-1.7311,-1.4619,-1.2899,-1.1706,0.0,-1.0016,-1.0635,-0.9419,-0.8166,-0.7049,-0.6819,-0.624,-0.5526,-0.5107,-0.4684,-0.4157,-0.3201,0.0,-0.3934,-0.4408,-0.487,-0.5911,-0.887,-1.0301,-1.1504,-1.3417,-1.2934,-1.1922,-1.0952,-0.9784,-0.819,-0.5676,-0.4875,-0.4944,-0.6101,-0.7936,-0.9857,-1.1688,-1.3624,0.0,0.0,0.0,0.0,-2.1799,-2.178,-2.211,-2.3038,-2.1883,-2.1372,-2.1894,-2.0652,-1.9995,-2.0137,-2.0137,-1.9922,-1.9492,-1.9199,-1.8848,-1.8418,-1.7852,-1.7363,-1.6924,-1.6484,-1.6035,-1.5635,-1.5635,-1.5733,-1.5837,-1.5311,-1.5626,-1.6347,-1.5778,-1.5964,-1.6522,0.0,0.0,0.0,0.0,0.0,0.0,0.0,0.0,0.0,0.0,0.0,0.0,0.0,0.0,0.0,0.0,0.0,0.9301,0.9067,0.9096,0.9006,0.8717,0.831,0.7421,0.5927,0.2792,-0.0401,-0.3587,-0.7471,-1.0876,-1.3899,-1.5633,-1.739,-1.915,-1.9247,-1.9991,-2.1067,-2.0692,-2.0416,-2.0089,-1.8574,-1.7041,-1.532,-1.2339,-1.06,0.0,-0.6288,-0.5969,-0.6897,-0.6121,-0.505,-0.4002,-0.3608,-0.2941,-0.225,-0.202,-0.1931,-0.1774,-0.1232,-0.1598,-0.2373,-0.3288,-0.4338,-0.5734,-0.8263,-0.9489,-1.0573,-1.2441,-1.1746,-1.0511,-0.9299,-0.8112,-0.6423,-0.3657,-0.322,-0.3563,-0.4751,-0.6516,-0.8617,-1.1003,-1.262,0.0,0.0,0.0,0.0,-2.0864,-2.0947,-2.1386,-2.26,-2.1099,-2.0485,-2.1047,-1.9525,-1.8665,-1.8813,-1.8813,-1.8695,-1.8528,-1.8472,-1.8193,-1.7773,-1.7344,-1.6914,-1.6465,-1.6025,-1.5586,-1.5186,-1.5186,-1.5113,-1.5016,-1.4634,-1.5027,-1.573,-1.5404,-1.5788,-1.6522,0.0,0.0,0.0,0.0,0.0,0.0,0.0,0.0,0.0,0.0,0.0,0.0,0.0,0.0,0.0,0.0,0.0,0.0,0.8672,0.9224,0.9179,0.8343,0.8254,0.7505,0.5933,0.2939,0.0129,-0.2347,-0.6761,-1.0232,-1.2804,-1.5304,-1.7107,-1.8295,-1.861,-1.9275,-2.005,-1.9023,-1.8498,-1.8193,-1.6663,-1.4967,-1.3052,-1.0204,-0.8581,-0.7312,-0.323,-0.1707,-0.175,-0.2743,0.0,0.0,-0.0421,0.0396,0.1322,0.1328,0.1451,0.1301,0.0061,-0.0128,-0.0336,-0.2203,-0.4106,-0.5919,-0.7276,-0.8364,-0.9493,-1.1018,-1.1013,-1.0013,0.0,0.0,-0.5331,-0.2186,-0.2853,-0.3871,-0.3939,-0.5786,-0.8193,0.0,0.0,0.0,0.0,0.0,0.0,-2.0245,0.0,-2.0879,-2.1729,-2.0624,-1.9829,-1.9552,-1.8428,-1.7556,-1.6904,-1.6838,-1.6935,-1.7117,-1.7653,-1.7667,-1.7259,-1.6831,-1.6393,-1.6006,-1.5566,-1.5146,-1.4746,-1.4746,-1.4258,-1.3506,-1.3506,-1.3955,-1.4652,-1.4652,-1.5433,-1.6466,0.0,0.0,0.0,0.0,0.0,0.0,0.0,0.0,0.0,0.0,0.0,0.0,0.0,0.0,0.0,0.0,0.0,0.0,0.8868,0.8987,0.8885,0.841,0.8455,0.778,0.6215,0.3462,0.0339,-0.3114,-0.7201,-1.0667,-1.3467,-1.5269,-1.6834,-1.8085,-1.8169,-1.8556,-1.9146,-1.887,-1.834,-1.7524,-1.5879,-1.4296,-1.2584,-0.923,-0.7065,-0.5346,0.0,0.0,0.0,0.0,0.0,0.0,0.0,0.2127,0.1978,0.1971,0.2373,0.2436,0.0439,0.0643,0.0847,-0.118,-0.2547,-0.3936,-0.5676,-0.7104,-0.8456,-0.9872,-0.9558,-0.8487,0.0,0.0,0.0,-0.0758,-0.0757,0.0,-0.3735,-0.444,0.0,0.0,0.0,-1.2614,-1.3782,-1.4759,0.0,0.0,-1.7809,-1.8238,-1.9375,-1.8058,-1.7616,-1.8379,-1.6862,-1.6134,-1.6368,-1.6211,-1.626,-1.6406,-1.6213,-1.5778,-1.5072,-1.5278,-1.5115,-1.4699,-1.4888,-1.4697,-1.4297,-1.4297,-1.3984,-1.3506,-1.3506,-1.3719,-1.405,-1.405,-1.4778,-1.582,0.0,0.0,0.0,0.0,0.0,0.0,0.0,0.0,0.0,0.0,0.0,0.0,0.0,0.0,0.0,0.0,0.0,0.0,0.0,0.9013,0.8725,0.8369,0.8446,0.7677,0.5861,0.3131,0.0038,-0.344,-0.7828,0.0,-1.4069,-1.5034,-1.6355,-1.7871,-1.6767,-1.683,-1.7718,-1.7185,-1.6637,0.0,0.0,-1.2173,-1.0612,-0.6828,-0.4648,0.0,0.0,0.0,0.0,0.0,0.0,0.5099,0.4613,0.429,0.4015,0.3516,0.0,0.3761,0.2538,0.1621,0.0718,-0.0451,-0.1884,-0.3443,-0.5251,-0.6625,-0.785,-0.9057,-0.8534,0.0,0.0,0.0,0.0,0.0,0.0,0.0,-0.2852,-0.3536,-0.5078,0.0,-0.994,0.0,-1.3142,-1.3982,-1.4851,0.0,-1.6441,-1.7131,-1.8192,-1.6962,-1.6385,-1.6762,-1.5331,-1.4532,-1.4501,-1.4646,-1.4739,-1.4714,-1.4898,-1.4845,-1.4542,-1.4604,-1.4671,-1.4718,0.0,-1.4355,-1.4068,-1.3936,-1.3613,-1.3232,-1.3232,-1.3449,-1.3815,-1.3815,-1.4538,-1.5588,0.0,0.0,0.0,0.0,0.0,0.0,0.0,0.0,0.0,0.0,0.0,0.0,0.0,0.0,0.0,0.0,0.0,0.0,0.0,0.0,0.0,0.0,0.8439,0.7503,0.5397,0.265,-0.0272,0.0,0.0,0.0,-1.4082,-1.4538,-1.5562,-1.6951,-1.4786,-1.4648,-1.6004,-1.484,-1.4048,-1.3336,-1.0819,-0.8906,-0.7159,0.0,0.0,0.0,0.0,0.0,0.0,0.0,0.9016,0.7612,0.6636,0.6487,0.6448,0.5351,0.5008,0.5027,0.5128,0.2823,0.0332,0.0193,-0.153,-0.3578,-0.5121,-0.6391,-0.7496,-0.8425,0.0,-0.6393,-0.4525,0.0,-0.1743,-0.026,0.0,-0.0537,-0.2058,-0.3002,-0.4653,-0.7472,-0.8733,-1.0248,-1.2502,-1.2948,-1.3379,-1.4215,-1.5538,-1.6601,-1.7243,-1.6384,-1.5573,-1.502,-1.3971,-1.3073,-1.2464,-1.289,-1.3059,-1.284,-1.3573,-1.4072,-1.4259,-1.3976,-1.4128,-1.4697,0.0,0.0,-1.3768,-1.3513,-1.3213,-1.2881,-1.2881,-1.3238,-1.3684,-1.3684,-1.4457,-1.5499,0.0,0.0,0.0,0.0,0.0,0.0,0.0,0.0,0.0,0.0,0.0,0.0,0.0,0.0,0.0,0.0,0.0,0.0,0.0,0.0,0.0,0.0,0.8882,0.7945,0.615,0.385,0.0,0.0,0.0,0.0,0.0,-1.3653,-1.4002,-1.3154,-1.2539,-1.3084,-1.4367,-1.3484,-1.1387,-0.8526,-0.7208,-0.4442,-0.0918,0.0,0.0,0.0,0.0,0.0,0.0,0.0,1.0581,0.8593,0.8747,0.8261,0.7453,0.6484,0.6023,0.5701,0.5352,0.3789,0.205,0.1256,-0.0681,-0.26,-0.3286,-0.5217,0.0,0.0,0.0,-0.5483,-0.3501,-0.2625,0.0,-0.0274,0.0,0.0,0.0,0.0,-0.4771,0.0,0.0,0.0,0.0,0.0,0.0,0.0,0.0,-1.4627,-1.474,-1.4572,-1.4213,-1.3612,-1.2869,-1.2707,-1.3138,-1.2669,-1.2407,-1.2493,-1.2325,-1.1772,-1.092,-1.1571,-1.1584,-1.1264,-1.2281,0.0,-1.2232,-1.2801,-1.2949,-1.2881,-1.2881,-1.2968,-1.3065,-1.3065,-1.3836,-1.4915,0.0,0.0,0.0,0.0,0.0,0.0,0.0,0.0,0.0,0.0,1.2139,0.0,0.0,0.0,0.0,0.0,0.0,0.0,0.0,0.0,0.0,0.0,0.0,0.0,0.0,0.0,0.0,0.0,0.0,0.0,0.0,0.0,0.0,0.0,0.0,0.0,0.0,-0.6265,-0.498,-0.3376,0.0,0.0,0.0,0.0,0.0,0.0,0.0,0.0,0.0,0.0,1.27,1.0859,1.0257,0.9453,0.8583,0.8221,0.767,0.6992,0.6226,0.5061,0.3753,0.2369,0.0245,-0.1843,-0.2942,0.0,0.0,0.0,-0.6317,-0.5167,-0.3406,0.0,0.0,0.0,0.0,0.0,0.0,0.0,0.0,0.0,0.0,0.0,0.0,0.0,0.0,0.0,0.0,-1.3694,-1.3848,-1.3561,-1.3186,-1.2752,-1.2305,-1.2077,-1.2091,-1.1779,-1.1546,-1.1461,-1.1071,-1.0845,-1.0742,-1.0754,-1.1137,-1.1747,-1.2043,0.0,-1.2181,-1.2704,-1.2666,-1.2344,-1.2764,-1.2881,-1.2929,-1.3238,-1.392,-1.4824,0.0,0.0,0.0,0.0,0.0,0.0,0.0,1.2963,1.2416,1.2111,1.2817,1.3656,1.4542,1.4538,0.0,0.0,0.0,0.0,0.0,0.0,0.0,0.0,0.0,0.0,0.0,0.0,0.0,0.0,0.0,0.0,0.0,0.0,0.0,0.0,0.0,0.0,0.0,0.0,0.2276,0.0,0.0,0.0,0.0,0.0,0.0,0.0,0.0,0.0,0.0,0.0,1.4512,1.3243,1.1805,1.0673,0.9835,0.9626,0.9082,0.8252,0.7144,0.609,0.4863,0.3115,0.0857,-0.1361,-0.3005,-0.4912,0.0,0.0,-0.5798,-0.479,-0.3314,0.0,0.0,0.0,0.0,0.0,0.0,0.0,0.0,0.0,0.0,0.0,0.0,0.0,0.0,0.0,0.0,0.0,-1.3534,-1.2979,-1.247,-1.2009,-1.1826,-1.1361,-1.064,-1.077,-1.0661,-1.0367,-1.0134,-1.0338,-1.0821,-1.0324,-1.0841,-1.2143,-1.1635,0.0,0.0,-1.2295,-1.2187,-1.1864,-1.2452,-1.2774,-1.2968,-1.36,-1.4272,-1.5028,0.0,0.0,0.0,0.0,0.0,0.0,0.0,1.3587,1.3096,1.3527,1.3689,1.4496,1.6434,1.6697,0.0,0.0,0.0,0.0,0.0,0.0,0.0,0.0,0.0,0.0,0.0,0.0,0.0,0.0,0.0,0.0,0.0,0.0,0.0,0.0,0.0,0.0,0.0,0.0,0.0,0.0,0.0,0.0,0.0,0.0,0.0,0.0,0.0,0.0,0.0,0.0,0.0,1.4962,1.3818,1.2504,1.1175,0.9971,0.0,0.0,0.7773,0.6382,0.4863,0.3115,0.0857,-0.1251,-0.2628,0.0,0.0,-0.5298,-0.4839,-0.4036,-0.2599,-0.1618,-0.0861,0.0,0.0,-0.0065,0.0,0.0,0.0,0.0,0.0,0.0,0.0,0.0,0.0,0.0,0.0,0.0,-1.322,-1.2672,-1.1955,-1.118,-1.1082,-1.0587,-0.9438,-0.9955,-1.0053,-0.9766,-0.974,-0.9637,-0.9368,-0.9314,-0.9268,-0.9242,-0.974,0.0,0.0,-1.0728,-1.1316,-1.1814,-1.1864,-1.2295,-1.2968,-1.36,-1.447,-1.5592,0.0,0.0,0.0,0.0,0.0,0.0,0.0,1.3954,1.3552,1.3817,1.4448,1.5538,1.7263,1.8508,0.0,0.0,0.0,0.0,0.0,0.0,0.0,0.0,0.0,0.0,0.0,0.0,0.0,0.0,0.0,0.0,0.0,0.0,0.0,0.0,0.0,0.0,0.0,0.0,0.0,0.0,0.0,0.0,0.0,0.0,0.0,0.0,0.0,0.0,0.0,0.0,0.0,0.0,1.5296,1.4293,0.0,0.0,1.0434,0.937,0.8792,0.7588,0.599,0.3722,0.1814,-0.0056,-0.1818,0.0,-0.4095,-0.3837,-0.3023,-0.2094,-0.1053,-0.0278,0.0395,0.0812,0.0,0.0,0.0,0.0,0.0,0.0,0.0,0.0,0.0,0.0,0.0,0.0,0.0,0.0,-1.1309,-1.1265,-1.1156,-1.1032,-0.9916,-0.9478,-0.9792,-0.8956,-0.8955,-0.9686,-0.9093,-0.8952,-0.9176,-0.9058,-0.9118,-0.9413,-0.9666,0.0,0.0,-1.0517,-1.0965,-1.1266,-1.1665,-1.2236,-1.2968,-1.36,-1.4516,-1.5668,0.0,0.0,0.0,0.0,0.0,0.0,1.5367,1.4582,1.4125,1.4399,1.4959,1.5866,1.7214,1.9491,2.0775,2.0465,0.0,0.0,0.0,0.0,0.0,0.0,0.0,0.0,0.0,0.0,0.0,0.0,0.0,0.0,0.0,0.0,0.0,0.0,0.0,0.0,0.0,0.0,0.0,0.0,0.0,0.0,0.0,0.0,0.0,0.0,0.0,0.0,0.0,0.0,0.0,0.0,0.0,0.0,0.0,0.0,1.1297,1.0244,0.9349,0.8507,0.7272,0.4564,0.2891,0.1418,0.0,0.0,-0.2252,-0.1803,-0.1067,-0.0221,0.05,0.0892,0.1118,0.1062,0.0,0.0,0.0,0.0,0.0,0.0,0.0,0.0,0.0,0.0,0.0,0.0,0.0,0.0,0.0,-0.9628,-0.9553,-0.9802,-0.8683,-0.8283,-0.8825,-0.7876,-0.7871,-0.8783,-0.8081,-0.7993,-0.8435,-0.8457,-0.8732,-0.9183,0.0,0.0,0.0,-1.0012,-1.032,-1.0559,-1.1266,-1.1931,-1.2706,-1.3684,-1.4687,-1.568,0.0,0.0,0.0,0.0,0.0,0.0,0.0,1.5627,1.4847,1.5586,1.5095,1.5122,1.6189,1.9341,2.1866,2.3051,0.0,0.0,0.0,0.0,0.0,0.0,0.0,0.0,0.0,0.0,0.0,0.0,0.0,0.0,0.0,0.0,0.0,0.0,0.0,0.0,0.0,0.0,0.0,0.0,0.0,0.0,0.0,0.0,0.0,0.0,0.0,0.0,0.0,0.0,0.0,0.0,0.0,1.7086,1.5708,0.0,1.1797,1.176,0.9075,0.8835,0.8607,0.5493,0.3958,0.2911,0.0,0.0,0.0,0.088,0.1053,0.1276,0.2062,0.1563,0.0838,0.0112,0.0,0.0,0.0,0.0,0.0,0.0,0.0,0.0,0.0,0.0,0.0,0.0,0.0,0.0,0.0,-0.7696,-0.6795,-0.6924,-0.7424,-0.7109,-0.5838,-0.6692,-0.6926,-0.6647,-0.6647,-0.6647,-0.6647,-0.7396,-0.7723,0.0,0.0,0.0,0.0,-0.8804,-0.9211,-0.9865,-1.0568,-1.1216,-1.2061,-1.3982,-1.5016,-1.5755,0.0,0.0,0.0,0.0,0.0,0.0,0.0,1.6448,1.5812,1.5011,1.5492,1.6642,1.8538,2.1045,2.2736,2.3154,0.0,0.0,0.0,0.0,0.0,0.0,0.0,0.0,0.0,0.0,0.0,0.0,0.0,0.0,0.0,0.0,0.0,0.0,0.0,0.0,0.0,0.0,0.0,0.0,0.0,0.0,0.0,0.0,0.0,0.0,0.0,0.0,0.0,0.0,0.0,0.0,0.0,0.0,0.0,1.571,1.4063,1.25,1.1134,0.988,0.8632,0.7063,0.5601,0.4185,0.2872,0.0,0.1895,0.1865,0.2244,0.267,0.2954,0.2399,0.1673,0.1114,0.0447,0.0,0.0,0.0,0.0,0.0,0.0,0.0,0.0,0.0,0.0,0.0,0.0,0.0,0.0,-0.6651,-0.6885,-0.7995,-0.652,-0.6006,-0.6687,-0.5759,-0.5775,-0.6588,-0.6588,-0.6858,-0.7343,-0.7616,0.0,0.0,0.0,0.0,0.0,-0.8049,-0.8725,-0.9865,-1.0517,-1.1216,-1.2012,-1.3511,-1.4937,-1.6181,0.0,0.0,0.0,0.0,0.0,0.0,0.0,1.7633,1.7417,1.6767,1.8421,2.0271,2.1839,2.3233,2.4058,2.4072,0.0,0.0,0.0,0.0,0.0,0.0,0.0,0.0,0.0,0.0,0.0,0.0,0.0,0.0,0.0,0.0,0.0,0.0,0.0,0.0,0.0,0.0,0.0,0.0,0.0,0.0,2.1105,0.0,0.0,0.0,0.0,0.0,0.0,0.0,0.0,0.0,0.0,0.0,0.0,0.0,1.6316,1.4447,0.0,1.1204,0.9903,0.8235,0.7058,0.0,0.0,0.0,0.4155,0.3893,0.3996,0.4168,0.4168,0.3118,0.2119,0.1839,0.0783,0.0,0.0,0.0,0.0,0.0,0.0,0.0,0.0,0.0,0.0,0.0,0.0,0.0,0.0,-0.576,-0.6125,-0.7385,-0.5682,-0.5174,-0.6122,-0.506,-0.4956,-0.5828,-0.5828,-0.6041,-0.6529,-0.674,0.0,0.0,0.0,0.0,0.0,-0.7723,-0.8355,-0.951,-1.0415,-1.1065,-1.1657,-1.3464,-1.4937,-1.615,0.0,0.0,0.0,0.0,0.0,0.0,0.0,0.0,0.0,0.0,2.2896,2.4903,2.5314,2.5414,2.5464,0.0,0.0,0.0,0.0,0.0,0.0,0.0,0.0,0.0,0.0,0.0,0.0,0.7073,0.6252,0.5334,0.4316,0.0,0.0,0.0,0.0,0.0,0.0,0.0,0.0,0.0,0.0,0.0,0.0,0.0,0.0,0.0,0.0,0.0,0.0,0.0,0.0,0.0,0.0,0.0,0.0,0.0,0.0,0.0,0.0,1.2717,0.0,0.0,0.0,0.0,0.0,0.0,0.0,0.6592,0.6036,0.5542,0.5487,0.3776,0.2341,0.2232,0.1006,0.0,0.0,0.0,0.0,0.0,0.0,0.0,0.0,0.0,0.0,0.0,0.0,0.0,0.0,-0.4927,-0.4783,-0.5358,-0.4869,-0.4549,-0.4408,-0.4408,-0.4405,-0.4405,-0.446,-0.4515,-0.4515,-0.5218,0.0,0.0,0.0,0.0,0.0,-0.7616,-0.8049,-0.885,-1.0261,-1.0797,-1.1115,-1.3716,-1.5083,-1.5794,0.0,0.0,0.0,0.0,0.0,0.0,0.0,0.0,0.0,0.0,0.0,2.3489,2.3993,2.4059,0.0,0.0,0.0,0.0,0.0,0.0,0.0,0.0,0.0,0.0,0.0,0.0,0.0,0.8641,0.7365,0.6749,0.6753,0.7372,0.0,0.0,0.0,0.0,0.0,0.0,0.0,0.0,0.0,0.0,0.0,0.0,0.0,0.0,2.0223,1.9886,0.0,0.0,0.0,0.0,0.0,0.0,0.0,0.0,1.9316,1.7691,1.6049,0.0,1.2685,1.1909,1.0839,0.9668,0.0,0.0,0.0,0.0,0.0,0.6145,0.5597,0.4597,0.3495,0.2397,0.1452,0.0,0.0,0.0,0.0,0.0,0.0,0.0,0.0,0.0,0.0,0.0,0.0,0.0,0.0,-0.4591,-0.4297,-0.3909,-0.3767,-0.3708,-0.368,-0.368,-0.3624,-0.3566,-0.4165,-0.4433,-0.4433,-0.5152,0.0,0.0,0.0,0.0,-0.6086,-0.6637,-0.7289,-0.815,-1.0049,-1.083,-1.1211,-1.3729,-1.5322,-1.6441,0.0,0.0,0.0,0.0,0.0,0.0,0.0,0.0,0.0,0.0,0.0,0.0,0.0,0.0,0.0,0.0,0.0,0.0,0.0,0.0,0.0,0.0,0.0,0.0,0.0,0.0,0.0,0.0,0.0,0.8765,0.0,0.0,0.0,0.0,0.0,0.0,0.0,0.0,0.0,0.0,2.0308,0.0,0.0,0.0,0.0,0.0,2.2022,2.1383,0.0,2.0767,2.0895,2.1337,0.0,0.0,0.0,0.0,1.9626,1.8254,1.7495,1.574,1.3926,1.3083,1.2196,1.1235,0.0,0.0,0.0,0.0,0.0,0.0,0.7036,0.0,0.0,0.0,0.0,0.0,0.0,0.0,0.0,0.0,0.0,0.0,0.0,0.0,0.0,0.0,0.0,0.0,0.0,-0.3462,-0.3274,-0.2848,-0.2847,-0.2823,-0.2823,-0.2864,-0.281,-0.2821,-0.3184,-0.3579,-0.3955,-0.3949,-0.4154,0.0,0.0,0.0,-0.5468,-0.6062,-0.681,-0.7789,-0.9593,-1.0538,-1.1165,-1.3802,-1.5223,-1.6153,0.0,0.0,0.0,0.0,0.0,0.0,0.0,0.0,0.0,0.0,0.0,0.0,0.0,0.0,0.0,0.0,0.0,0.0,0.0,0.0,0.0,0.0,0.0,0.0,0.0,0.0,0.0,0.0,0.0,0.0,0.0,0.0,1.3969,0.0,0.0,0.0,0.0,0.0,0.0,0.0,1.9385,0.0,0.0,0.0,0.0,0.0,0.0,0.0,0.0,2.0798,2.0682,2.0926,2.0516,0.0,0.0,0.0,0.0,0.0,1.8118,1.6964,1.5475,1.3817,1.3171,1.2764,0.0,0.0,0.0,0.0,0.0,0.0,0.0,0.0,0.0,0.0,0.0,0.0,0.0,0.0,0.0,0.0,0.0,0.0,0.0,0.0,0.0,0.0,0.0,0.0,0.0,-0.2114,-0.2057,-0.2047,-0.1957,-0.185,-0.1731,-0.1906,-0.202,-0.2014,-0.2014,-0.2401,-0.3044,-0.2344,-0.2754,0.0,0.0,0.0,-0.5015,-0.5606,-0.6427,-0.7448,-0.9158,-1.0248,-1.1221,-1.3894,-1.5212,-1.5905,0.0,0.0,0.0,0.0,0.0,0.0,0.0,0.0,0.0,0.0,0.0,0.0,0.0,0.0,0.0,0.0,0.0,0.0,0.0,0.0,0.0,0.0,0.0,0.0,0.0,0.0,0.0,0.0,0.0,0.0,1.4205,1.32,1.4781,1.8454,0.0,0.0,0.0,0.0,0.0,0.0,0.0,0.0,0.0,0.0,0.0,0.0,0.0,0.0,0.0,2.118,2.0926,2.1007,2.0926,0.0,0.0,0.0,0.0,0.0,1.7585,1.7269,1.6819,1.5543,1.4426,1.3464,0.0,0.0,0.0,0.0,0.0,0.0,0.0,0.0,0.0,0.0,0.0,0.0,0.0,0.0,0.0,0.0,0.0,0.0,0.0,0.0,0.0,0.0,0.0,0.0,0.0,-0.181,-0.1487,-0.1298,-0.0791,-0.0195,0.041,-0.0687,-0.1267,-0.126,-0.126,-0.1314,-0.1473,-0.1458,-0.1515,0.0,0.0,-0.2261,-0.3539,-0.4747,-0.5639,-0.6477,-0.9222,-1.0727,-1.1626,-1.4391,-1.6068,-1.7297,0.0,0.0,0.0,0.0,0.0,0.0,0.0,0.0,0.0,0.0,0.0,0.0,0.0,0.0,0.0,0.0,0.0,0.0,0.0,0.0,0.0,0.0,0.0,0.0,0.0,0.0,0.0,0.0,0.0,1.6048,1.6307,1.5051,1.5661,1.7822,0.0,0.0,0.0,0.0,0.0,0.0,0.0,0.0,0.0,0.0,0.0,0.0,0.0,0.0,0.0,0.0,2.0616,2.0583,2.0379,0.0,0.0,0.0,0.0,0.0,1.7463,1.7115,1.6955,1.7017,1.639,1.5432,0.0,0.0,0.0,0.0,0.0,0.0,0.0,0.0,0.0,0.0,0.0,0.0,0.0,0.0,0.0,0.0,0.0,0.0,0.0,0.0,0.0,0.0,0.0,0.0,0.0,0.0,-0.0269,-0.0129,0.035,0.0781,0.1127,0.0521,0.0269,0.0366,0.0269,0.0045,-0.0282,0.0092,-0.0094,-0.07,0.0,-0.1332,-0.2615,-0.4101,-0.5158,-0.6065,-0.8513,-1.0083,-1.1315,-1.4558,-1.667,-1.8153,0.0,0.0,0.0,0.0,0.0,0.0,0.0,0.0,0.0,0.0,0.0,0.0,0.0,0.0,0.0,0.0,0.0,0.0,0.0,0.0,0.0,0.0,0.0,0.0,0.0,0.0,2.0486,1.9906,1.8328,1.7203,1.6458,1.5866,1.5951,0.0,0.0,0.0,0.0,0.0,0.0,0.0,0.0,0.0,0.0,0.0,0.0,0.0,0.0,0.0,0.0,0.0,0.0,0.0,0.0,0.0,0.0,1.8893,1.8419,1.7947,1.7312,1.694,1.6916,1.7692,0.0,0.0,0.0,0.0,0.0,0.0,0.0,0.0,0.0,0.0,0.0,0.0,0.0,0.0,0.0,0.0,0.0,0.0,0.0,0.0,0.0,0.0,0.0,0.0,0.0,0.0,0.0,0.0,0.0852,0.0822,0.1366,0.1678,0.1678,0.1888,0.1808,0.1528,0.1395,0.1053,0.0645,0.1503,0.1308,0.0286,0.0584,-0.0045,-0.1431,-0.3123,-0.4485,-0.5789,-0.7821,-0.9864,-1.1996,-1.5318,-1.7421,-1.8826,0.0,0.0,0.0,0.0,0.0,0.0,0.0,0.0,0.0,0.0,0.0,0.0,0.0,0.0,0.0,0.0,0.0,0.0,0.0,0.0,0.0,0.0,0.0,0.0,0.0,2.1401,2.0956,1.9981,1.8065,1.6075,1.4057,1.4663,1.5008,1.5155,0.0,0.0,0.0,0.0,0.0,2.1435,0.0,0.0,0.0,0.0,0.0,0.0,0.0,0.0,0.0,0.0,0.0,0.0,0.0,0.0,1.9479,1.8458,1.8145,1.7867,1.6837,1.6955,1.72,1.6741,1.6181,0.0,1.8284,0.0,0.0,0.0,0.0,0.0,0.0,0.0,0.0,0.0,0.0,0.0,0.0,0.0,0.0,0.0,0.0,0.0,0.0,0.0,0.0,0.0,0.0,0.0,0.0,0.0,0.0,0.1252,0.2255,0.279,0.279,0.359,0.3081,0.1337,0.1293,0.1295,0.1263,0.2307,0.2566,0.2226,0.2677,0.205,0.0531,-0.1232,-0.3287,-0.5444,-0.758,-1.1044,-1.5141,-1.7329,-1.8653,-1.9382,0.0,0.0,0.0,0.0,0.0,0.0,0.0,0.0,0.0,0.0,0.0,0.0,0.0,0.0,0.0,0.0,0.0,0.0,0.0,0.0,0.0,0.0,0.0,2.3545,2.2574,2.1698,2.0733,1.9698,1.7031,1.4686,1.2721,1.4096,0.0,0.0,0.0,0.0,0.0,0.0,2.2677,2.3273,2.3366,0.0,0.0,0.0,0.0,0.0,0.0,0.0,0.0,0.0,1.969,1.969,1.969,1.969,1.9566,1.8817,1.838,1.7947,1.7188,1.7186,1.746,1.7575,1.7424,0.0,0.0,0.0,0.0,0.0,0.0,0.0,0.0,0.0,0.0,0.0,0.0,0.0,0.0,0.0,0.0,0.0,0.0,0.0,0.0,0.0,0.0,0.0,0.0,0.0,0.0,0.0,0.0,0.2542,0.3213,0.3569,0.3569,0.4169,0.4091,0.3332,0.3104,0.3022,0.3111,0.3513,0.3684,0.3617,0.3185,0.2284,0.1017,-0.0669,-0.2696,-0.505,-0.8759,-1.1998,-1.4873,-1.715,-1.8378,-1.9069,0.0,0.0,0.0,0.0,0.0,0.0,0.0,0.0,0.0,0.0,0.0,0.0,0.0,0.0,0.0,0.0,0.0,0.0,0.0,0.0,0.0,0.0,0.0,2.4008,2.2963,2.1507,2.0236,1.9158,1.5606,1.3157,1.1847,0.0,0.0,0.0,0.0,0.0,0.0,0.0,2.3583,2.4277,2.3983,2.3475,0.0,0.0,0.0,0.0,0.0,0.0,0.0,0.0,2.012,2.012,2.012,2.012,2.0,1.9325,1.8864,1.843,1.7733,1.7573,1.7718,0.0,0.0,0.0,0.0,0.0,0.0,0.0,0.0,0.0,0.0,0.0,0.0,0.0,0.0,0.0,0.0,0.0,0.0,0.0,0.0,0.0,0.0,0.0,0.0,0.0,0.0,0.0,0.0,0.0,0.0,0.0,0.413,0.443,0.4584,0.5092,0.5359,0.5359,0.5217,0.4907,0.4525,0.4661,0.4732,0.4787,0.4168,0.3291,0.2152,0.0515,-0.2339,-0.6082,-0.9626,-1.2461,-1.4822,-1.6562,-1.747,-1.8003,0.0,0.0,0.0,0.0,0.0,0.0,0.0,0.0,0.0,0.0,0.0,0.0,0.0,0.0,0.0,0.0,0.0,0.0,0.0,0.0,0.0,0.0,0.0,2.384,2.2455,2.0818,1.9451,1.8357,1.383,1.1518,1.1398,1.1477,0.0,0.0,0.0,0.0,0.0,0.0,2.379,2.4076,2.3733,2.3225,2.2617,0.0,0.0,0.0,0.0,0.0,0.0,0.0,2.0991,2.0991,2.0991,2.0991,2.0813,1.9904,1.9621,1.939,1.8391,1.8106,1.8106,0.0,0.0,0.0,0.0,0.0,0.0,0.0,0.0,0.0,0.0,0.0,0.0,0.0,0.0,0.0,0.0,0.0,0.0,0.0,0.0,0.0,0.0,0.0,0.0,0.0,0.0,0.0,0.0,0.0,0.0,0.0,0.501,0.5418,0.5807,0.661,0.7016,0.7025,0.7405,0.6771,0.5235,0.5645,0.5762,0.5746,0.6003,0.5456,0.4281,0.2569,-0.2213,-0.8644,-0.9847,-1.245,-1.5498,-1.5761,-1.6007,-1.6196,0.0,0.0,0.0,0.0,0.0,0.0,0.0,0.0,0.0,0.0,0.0,0.0,0.0,0.0,0.0,0.0,0.0,0.0,0.0,0.0,0.0,0.0,0.0,0.0,0.0,0.0,1.773,1.5145,1.3148,1.1648,0.0,0.0,0.0,1.4624,0.0,0.0,0.0,0.0,2.3744,2.4274,2.3727,2.3041,2.2235,0.0,0.0,0.0,0.0,0.0,0.0,0.0,0.0,0.0,2.0991,2.0991,2.0959,2.0682,2.0112,1.9534,1.9244,1.8896,0.0,0.0,0.0,0.0,0.0,0.0,0.0,0.0,0.0,0.0,0.0,0.0,0.0,0.0,0.0,0.0,0.0,0.0,0.0,0.0,0.0,0.0,0.0,0.0,0.0,0.0,0.0,0.0,0.0,0.0,0.0,0.0,0.6287,0.652,0.664,0.7434,0.7856,0.7856,0.8491,0.8126,0.689,0.7016,0.7059,0.7015,0.6829,0.6199,0.5081,0.197,-0.0297,-0.2563,-0.9901,-1.2827,-1.2964,-1.3469,-1.3958,-1.4357,0.0,0.0,0.0,0.0,0.0,0.0,0.0,0.0,0.0,0.0,1.9704,0.0,0.0,0.0,0.0,0.0,0.0,0.0,0.0,0.0,0.0,0.0,0.0,0.0,0.0,1.9597,1.7049,0.0,0.0,0.0,0.0,0.0,0.0,1.5157,0.0,2.06,0.0,0.0,2.3644,2.4039,2.344,2.2778,2.2164,0.0,0.0,0.0,0.0,0.0,0.0,0.0,0.0,0.0,2.1524,2.1524,2.1493,2.1275,2.0862,2.0369,2.0215,0.0,0.0,0.0,0.0,0.0,0.0,0.0,0.0,0.0,0.0,0.0,0.0,0.0,0.0,0.0,0.0,0.0,0.0,0.0,0.0,0.0,0.0,0.0,0.0,0.0,0.0,0.0,0.0,0.0,0.0,0.0,0.0,0.0,0.7366,0.7607,0.7901,0.8536,0.897,0.9188,0.9805,0.983,0.929,0.8718,0.8426,0.835,0.8186,0.7837,0.7191,0.4341,0.2339,0.0444,-0.5579,-0.8532,-0.9478,-1.0043,-1.066,-1.1276,0.0,0.0,0.0,0.0,0.0,0.0,0.0,0.0,0.0,0.0,1.9528,1.9746,0.0,0.0,0.0,0.0,0.0,0.0,0.0,0.0,0.0,0.0,0.0,0.0,0.0,0.0,0.0,0.0,0.0,0.0,0.0,0.0,1.3313,1.5575,0.0,2.0538,2.2381,2.3192,2.3553,2.3507,2.2935,2.2537,2.231,2.2338,0.0,0.0,0.0,0.0,0.0,0.0,0.0,0.0,2.231,2.2338,2.2248,2.1836,2.1672,2.1582,2.1213,0.0,0.0,0.0,0.0,0.0,0.0,0.0,0.0,0.0,0.0,0.0,0.0,0.0,0.0,0.0,0.0,0.0,0.0,0.0,0.0,0.0,0.0,0.0,0.0,0.0,0.0,0.0,0.0,0.0,0.0,0.0,0.0,0.8291,0.8346,0.8711,0.9405,0.9792,1.0228,1.0805,1.1226,1.1632,1.1956,1.062,0.9938,0.9802,1.0009,1.0187,1.0201,0.8707,0.5684,0.2002,0.1787,-0.0967,-0.4848,-0.5477,-0.6205,-0.7157,0.0,0.0,0.0,0.0,0.0,0.0,0.0,0.0,0.0,0.0,0.0,0.0,0.0,0.0,0.0,0.0,0.0,0.0,0.0,0.0,0.0,0.0,0.0,0.0,0.0,0.0,0.0,0.0,0.0,0.0,0.0,0.0,0.0,1.6598,0.0,2.1514,2.2526,2.3481,2.3626,2.3172,2.2838,2.2537,2.2321,2.2537,2.2625,0.0,0.0,0.0,0.0,0.0,0.0,0.0,2.231,2.2436,2.2582,2.2485,2.2252,2.1955,0.0,2.1381,0.0,0.0,0.0,0.0,0.0,0.0,0.0,0.0,0.0,0.0,0.0,0.0,0.0,0.0,0.0,0.0,0.0,0.0,0.0,0.0,0.0,0.0,0.0,0.0,0.0,0.0,0.0,0.0,0.0,0.0,0.0,0.9073,0.9561,1.0032,1.0395,1.0892,1.1307,0.0,1.2163,1.249,1.2656,1.1939,1.1734,1.1943,1.2195,1.2513,1.2726,1.1496,1.0258,0.8968,0.7584,0.5353,0.2695,0.1009,-0.0465,-0.2021,0.0,0.0,0.0,0.0,0.0,0.0,0.0,0.0,0.0,0.0,0.0,0.0,0.0,0.0,0.0,0.0,0.0,0.0,0.0,0.0,0.0,0.0,2.2329,2.1516,2.0798,1.9529,0.0,0.0,0.0,0.0,0.0,0.0,0.0,1.881,0.0,2.2293,2.2743,2.3471,2.3427,2.29,2.2609,2.2426,2.2321,2.2599,2.2695,2.2695,2.2695,0.0,0.0,0.0,0.0,0.0,0.0,0.0,2.2537,2.2643,2.2548,2.2371,0.0,0.0,0.0,0.0,0.0,0.0,0.0,0.0,0.0,0.0,0.0,0.0,0.0,0.0,0.0,0.0,0.0,0.0,0.0,0.0,0.0,0.0,0.0,0.0,0.0,0.0,0.0,0.0,0.0,0.0,0.0,1.0108,1.0341,1.0395,1.0654,1.1022,1.1508,1.1845,1.2258,1.2756,1.3127,1.3702,1.4404,1.34,1.3232,1.3705,1.3854,1.4194,1.455,1.3277,1.2352,1.1517,1.0016,0.807,0.5962,0.4533,0.3034,0.1501,0.0,0.0,0.0,0.0,0.0,0.0,0.0,0.0,0.0,0.0,0.0,0.0,0.0,0.0,0.0,0.0,0.0,0.0,0.0,0.0,0.0,0.0,2.1537,2.0425,1.9987,1.9311,1.9139,0.0,0.0,0.0,0.0,0.0,0.0,2.0988,0.0,2.2801,2.2828,2.3243,2.3115,2.2625,2.2388,2.231,2.2338,2.2678,2.2797,2.2797,2.2848,2.2855,2.2822,2.2544,0.0,0.0,0.0,0.0,2.249,2.2678,2.2805,2.2855,0.0,0.0,0.0,0.0,0.0,0.0,0.0,0.0,0.0,0.0,0.0,0.0,0.0,0.0,0.0,0.0,0.0,0.0,0.0,0.0,0.0,0.0,0.0,0.0,0.0,0.0,0.0,0.0,0.0,0.0,1.1094,1.115,1.1365,1.1731,1.1662,1.1943,1.2624,1.279,1.3208,1.3854,1.4204,1.5061,1.6283,1.5008,1.4712,1.5212,1.5252,1.5402,1.555,1.4269,1.3033,1.1873,1.0603,0.881,0.6945,0.6307,0.5076,0.3766,0.0,0.0,0.0,0.0,0.0,0.0,0.0,0.0,0.0,0.0,2.1454,0.0,0.0,0.0,0.0,0.0,0.0,0.0,0.0,0.0,0.0,0.0,2.0319,2.0228,1.9899,1.8646,1.9209,0.0,0.0,0.0,0.0,0.0,0.0,2.1522,0.0,0.0,2.2418,2.2877,2.2783,2.2349,2.2293,2.231,2.2349,2.2933,2.3141,0.0,2.3459,2.3566,2.3522,2.3183,2.289,0.0,0.0,0.0,2.3052,2.2893,2.3199,2.3566,0.0,0.0,0.0,0.0,0.0,0.0,0.0,0.0,0.0,0.0,0.0,0.0,0.0,0.0,0.0,0.0,0.0,0.0,0.0,0.0,0.0,0.0,0.0,0.0,0.0,0.0,0.0,0.0,0.0,0.0,1.2539,1.2422,1.2353,1.2285,1.266,1.3075,1.3526,1.3831,1.4136,1.4494,1.5388,1.6307,1.7201,1.6714,1.6477,1.6465,1.6648,1.6115,1.5037,1.4209,1.3,1.1514,1.0157,0.8513,0.6987,0.6897,0.5749,0.424,0.0,0.0,0.0,0.0,0.0,0.0,0.0,0.0,0.0,0.0,0.0,2.0972,0.0,0.0,0.0,0.0,0.0,0.0,0.0,0.0,0.0,0.0,0.0,0.0,1.9286,1.8698,0.0,0.0,0.0,0.0,0.0,2.3798,2.3454,0.0,0.0,0.0,0.0,0.0,2.2634,2.231,2.231,2.231,2.2377,0.0,0.0,0.0,0.0,0.0,0.0,2.3305,2.3093,2.2989,2.3047,0.0,0.0,0.0,2.3541,0.0,2.3868,0.0,0.0,0.0,0.0,0.0,0.0,0.0,0.0,0.0,0.0,0.0,0.0,0.0,0.0,0.0,0.0,0.0,0.0,0.0,0.0,0.0,0.0,0.0,0.0,0.0,0.0,0.0,0.0,1.4767,1.3958,1.376,1.3803,1.4082,1.4217,1.4734,1.5648,1.5847,1.6052,1.6299,1.7185,1.7592,1.7583,1.7658,1.7417,1.6909,1.6622,1.594,1.4932,1.4151,1.3011,1.1645,1.1009,0.96,0.7979,0.8204,0.7141,0.561,0.0,0.0,0.0,0.0,0.0,0.0,0.0,0.0,0.0,0.0,0.0,0.0,0.0,0.0,0.0,0.0,0.0,0.0,0.0,0.0,0.0,0.0,0.0,0.0,1.9081,0.0,0.0,0.0,0.0,0.0,2.4313,2.458,2.4457,0.0,2.3854,0.0,0.0,0.0,0.0,0.0,2.231,2.2349,0.0,0.0,0.0,0.0,0.0,0.0,0.0,0.0,0.0,0.0,0.0,0.0,0.0,0.0,0.0,0.0,0.0,0.0,0.0,0.0,0.0,0.0,0.0,0.0,0.0,0.0,0.0,0.0,0.0,0.0,0.0,0.0,0.0,0.0,0.0,0.0,0.0,0.0,0.0,0.0,0.0,0.0,0.0,0.0,0.0,1.6536,1.5628,1.5061,1.5092,1.5833,1.5566,1.6016,1.7293,1.7359,1.7558,1.7907,1.8388,1.8362,1.7964,1.8093,1.7724,1.6947,1.6271,1.5489,1.4623,1.3782,1.2612,1.1389,1.1201,1.0046,0.8553,0.8854,0.7903,0.6502,0.0,0.0,0.0,0.0,0.0,0.0,0.0,0.0,0.0,0.0,0.0,0.0,0.0,0.0,0.0,2.2905,0.0,0.0,0.0,0.0,0.0,0.0,0.0,0.0,0.0,0.0,0.0,0.0,0.0,0.0,2.3286,2.4051,2.4001,2.3252,2.3252,2.2898,2.2349,0.0,0.0,0.0,0.0,0.0,0.0,0.0,0.0,0.0,0.0,0.0,0.0,0.0,0.0,0.0,0.0,0.0,0.0,0.0,0.0,0.0,0.0,0.0,0.0,0.0,0.0,0.0,0.0,0.0,0.0,0.0,0.0,0.0,0.0,0.0,0.0,0.0,0.0,0.0,0.0,0.0,0.0,0.0,0.0,0.0,0.0,0.0,0.0,0.0,0.0,1.7798,1.7739,1.6281,1.596,1.7065,1.6361,1.6479,1.7572,1.7581,1.7961,1.8725,1.827,1.8249,1.8621,1.802,1.7376,1.6683,1.5933,1.4962,1.3795,1.2854,1.1611,1.0263,0.9804,0.8935,0.7953,0.7976,0.7216,0.6237,0.0,0.0,0.0,0.0,0.0,0.0,0.0,0.0,0.0,0.0,0.0,0.0,0.0,2.43,2.3837,2.2701,2.2781,0.0,0.0,0.0,0.0,0.0,0.0,0.0,0.0,0.0,0.0,0.0,0.0,2.3867,2.4094,2.4316,2.3967,2.3189,2.2972,2.2652,2.231,2.231,0.0,0.0,0.0,0.0,0.0,0.0,0.0,0.0,0.0,0.0,0.0,0.0,0.0,0.0,0.0,0.0,0.0,0.0,0.0,0.0,0.0,0.0,0.0,0.0,0.0,0.0,0.0,0.0,0.0,0.0,0.0,0.0,0.0,0.0,0.0,0.0,0.0,0.0,0.0,0.0,0.0,0.0,0.0,0.0,0.0,0.0,0.0,0.0,0.0,0.0,1.9306,1.872,1.8357,1.829,1.8042,1.832,1.9133,1.8923,1.8897,1.9051,1.848,1.8038,1.7719,1.7266,1.6559,1.565,1.5122,1.4495,1.373,1.2798,1.1732,1.0649,1.0105,0.9286,0.8381,0.8315,0.7744,0.7057,0.0,0.0,0.0,0.0,0.0,0.0,0.0,0.0,0.0,0.0,0.0,0.0,0.0,0.0,2.4362,2.3389,2.3424,2.2929,2.1604,2.1021,0.0,0.0,0.0,0.0,0.0,0.0,0.0,0.0,0.0,0.0,0.0,2.3938,2.3631,2.3074,2.2747,2.2463,0.0,0.0,0.0,2.231,0.0,0.0,2.2463,0.0,0.0,0.0,0.0,0.0,0.0,0.0,0.0,0.0,0.0,0.0,0.0,0.0,0.0,0.0,0.0,0.0,0.0,0.0,0.0,0.0,0.0,0.0,0.0,0.0,0.0,0.0,0.0,0.0,0.0,0.0,0.0,0.0,0.0,0.0,0.0,0.0,0.0,0.0,0.0,0.0,0.0,0.0,0.0,0.0,2.0191,2.0168,1.969,1.873,1.909,1.9449,1.9805,1.953,1.9286,1.907,1.8411,1.7778,1.7181,1.6594,1.5874,1.5074,1.4333,1.3756,1.3264,1.2495,1.1619,1.0718,1.0326,0.9582,0.8708,0.8611,0.8055,0.7315,0.0,0.0,0.0,0.0,0.0,0.0,0.0,0.0,0.0,0.0,0.0,0.0,0.0,0.0,0.0,2.5057,2.4505,2.4073,2.3936,2.3105,0.0,0.0,0.0,0.0,0.0,0.0,0.0,0.0,0.0,0.0,0.0,0.0,2.2968,2.2877,2.2477,2.231,2.2293,0.0,2.231,2.231,0.0,2.2463,2.2695,0.0,0.0,0.0,2.4003,2.4429,0.0,0.0,0.0,0.0,0.0,0.0,0.0,0.0,0.0,0.0,0.0,0.0,0.0,0.0,0.0,0.0,0.0,0.0,0.0,0.0,0.0,0.0,0.0,0.0,0.0,0.0,0.0,0.0,0.0,0.0,0.0,0.0,0.0,0.0,0.0,0.0,0.0,0.0,0.0,2.0399,2.0393,2.0399,1.9778,1.8384,1.935,1.9725,1.9391,1.9236,1.9038,1.8768,1.8028,1.7495,1.7133,1.6076,1.5418,1.4998,1.3677,1.282,1.2354,1.1934,1.118,1.0283,1.0283,0.9637,0.8675,0.8675,0.7972,0.6979,0.0,0.0,0.0,0.0,0.0,0.0,0.0,0.0,0.0,0.0,0.0,0.0,0.0,0.0,0.0,2.4842,2.4721,2.4591,2.4551,2.3521,2.3147,2.374,0.0,0.0,0.0,0.0,0.0,0.0,0.0,0.0,0.0,0.0,0.0,0.0,2.2443,2.2286,2.2287,2.2292,0.0,0.0,2.231,2.2349,0.0,0.0,0.0,0.0,0.0,2.426,0.0,0.0,2.4321,2.4543,0.0,0.0,0.0,0.0,0.0,0.0,2.5452,0.0,0.0,0.0,0.0,0.0,2.4948,2.4597,0.0,0.0,0.0,0.0,0.0,0.0,0.0,0.0,0.0,0.0,0.0,0.0,0.0,0.0,0.0,0.0,0.0,0.0,0.0,0.0,2.0696,2.0504,2.0402,2.0402,2.0083,1.9411,1.9326,1.9314,1.9269,1.8483,1.8069,1.7987,1.7117,1.6638,1.6507,1.5636,1.5045,1.4627,1.3544,1.2671,1.1934,1.1431,1.0878,1.0244,0.9883,0.9319,0.8635,0.8275,0.7648,0.6979,0.0,0.0,0.0,0.0,0.0,0.0,0.0,0.0,0.0,0.0,0.0,0.0,0.0,0.0,0.0,2.4433,2.4542,2.4585,2.4582,2.3929,2.3796,2.4344,2.3494,0.0,0.0,0.0,0.0,0.0,0.0,0.0,0.0,0.0,0.0,0.0,0.0,0.0,0.0,0.0,0.0,0.0,2.2429,0.0,0.0,2.3014,2.3691,0.0,0.0,0.0,2.5411,2.4506,2.4418,0.0,0.0,0.0,0.0,0.0,0.0,0.0,0.0,0.0,0.0,0.0,0.0,0.0,2.482,2.4822,2.4745,0.0,0.0,0.0,0.0,0.0,0.0,0.0,0.0,0.0,0.0,0.0,0.0,0.0,0.0,0.0,0.0,0.0,0.0,2.2539,2.1226,2.0449,2.0353,1.9917,1.9623,1.9593,1.9133,1.8769,1.852,1.7987,1.758,1.7318,1.6659,1.633,1.6317,1.5696,1.485,1.3868,1.3067,1.2234,1.1431,1.0905,1.0534,1.0283,0.9961,0.9359,0.8675,0.8357,0.769,0.7041,0.0,0.0,0.0,0.0,0.0,0.0,0.0,0.0,0.0,0.0,0.0,0.0,0.0,0.0,0.0,0.0,2.4045,2.4169,2.4169,2.4169,0.0,0.0,0.0,2.2324,0.0,0.0,0.0,0.0,0.0,0.0,0.0,0.0,0.0,0.0,0.0,0.0,0.0,0.0,0.0,2.2521,2.2659,2.2703,0.0,0.0,2.4341,0.0,2.4248,2.5201,2.6823,2.4937,2.4563,0.0,0.0,0.0,0.0,0.0,2.5418,0.0,0.0,0.0,0.0,0.0,0.0,0.0,2.4258,2.4783,2.5031,0.0,0.0,0.0,0.0,0.0,0.0,0.0,0.0,0.0,0.0,0.0,0.0,0.0,0.0,0.0,0.0,2.5595,2.5446,2.5033,2.2207,2.0499,2.0471,1.9431,1.9026,1.9449,1.8985,1.8461,1.7856,1.7715,1.7362,1.6755,1.6481,1.6302,1.6215,1.5837,1.4789,1.3204,1.2436,1.1693,1.0992,1.0505,1.0283,1.0283,1.0283,0.9677,0.8797,0.8716,0.8013,0.7145,0.0,0.0,0.0,0.0,0.0,0.0,0.0,0.0,0.0,0.0,0.0,0.0,0.0,0.0,0.0,0.0,2.3053,2.341,2.341,2.341,0.0,0.0,2.2642,2.1653,2.0376,0.0,0.0,0.0,0.0,0.0,0.0,0.0,0.0,0.0,0.0,0.0,0.0,0.0,0.0,2.3777,2.3118,0.0,2.2772,2.3369,2.3943,2.4389,2.4192,2.4622,2.5254,0.0,2.4873,2.4958,0.0,0.0,0.0,0.0,0.0,0.0,0.0,0.0,0.0,0.0,0.0,0.0,2.493,2.5066,2.5163,0.0,0.0,0.0,0.0,0.0,0.0,0.0,0.0,0.0,0.0,0.0,0.0,0.0,0.0,0.0,0.0,2.5556,2.5321,2.4439,2.2779,2.1754,2.1598,2.0717,2.0308,2.0492,1.9947,1.9544,1.937,1.806,1.7145,1.6622,1.6159,1.5651,1.5165,1.49,1.4553,1.4114,1.2277,1.1405,1.1195,1.0564,1.0283,1.0283,1.0283,0.9922,0.9279,0.8878,0.8267,0.7706,0.0,0.0,0.0,0.0,0.0,0.0,0.0,0.0,0.0,0.0,0.0,0.0,0.0,0.0,0.0,0.0,0.0,0.0,0.0,0.0,0.0,0.0,2.1972,2.1252,2.056,2.0605,0.0,0.0,0.0,0.0,0.0,0.0,0.0,0.0,0.0,0.0,0.0,0.0,2.4208,2.4136,2.3486,0.0,2.3165,2.3717,2.4316,2.4801,2.4462,2.4538,2.4851,2.5079,2.5129,0.0,0.0,2.5385,2.5515,0.0,2.5576,2.5554,0.0,0.0,0.0,2.5583,0.0,0.0,0.0,2.4446,2.4788,2.4347,0.0,0.0,0.0,0.0,0.0,0.0,0.0,0.0,0.0,0.0,0.0,0.0,0.0,0.0,0.0,2.5203,2.4939,2.4064,2.3192,2.2521,2.2139,2.091,2.046,2.0882,1.9889,1.9274,1.9107,1.7958,1.7178,1.6731,1.5543,1.4861,1.4688,1.4124,1.3305,1.2353,1.1276,1.0809,1.0766,1.0438,1.0283,1.0283,1.0283,0.9902,0.9381,0.9452,0.8649,0.7478,1.4903,0.0,0.0,0.0,0.0,0.0,0.0,0.0,0.0,0.0,0.0,0.0,0.0,0.0,0.0,0.0,0.0,0.0,0.0,0.0,0.0,0.0,2.1554,2.1023,2.0846,2.0583,2.0429,0.0,0.0,0.0,0.0,0.0,0.0,0.0,0.0,0.0,0.0,0.0,0.0,2.4184,0.0,2.3587,2.3545,2.4058,2.4764,2.5424,2.4876,2.4784,2.4951,2.5229,0.0,2.5372,2.5313,2.5389,0.0,0.0,0.0,0.0,0.0,0.0,0.0,0.0,0.0,2.4835,0.0,0.0,0.0,2.3685,0.0,0.0,0.0,0.0,0.0,0.0,0.0,0.0,0.0,0.0,0.0,0.0,0.0,0.0,0.0,2.4648,2.4351,2.3675,2.3325,2.2873,2.228,2.0945,2.0438,2.0979,1.9767,1.8935,1.8623,1.7942,1.7321,1.6782,1.5269,1.4446,1.4207,1.3144,1.1774,1.0293,1.0316,1.0291,1.0332,1.0371,1.04,1.04,1.04,1.0003,0.9459,1.0004,0.8985,0.7367,1.2196,1.3814,0.0,0.0,0.0,0.0,0.0,0.0,0.0,0.0,0.0,0.0,0.0,0.0,0.0,0.0,0.0,0.0,2.4257,0.0,0.0,0.0,0.0,0.0,2.0322,2.0684,2.0516,1.9707,0.0,0.0,0.0,0.0,0.0,0.0,2.3755,0.0,0.0,0.0,2.4205,0.0,2.4151,2.3858,0.0,2.4211,2.4564,2.4772,2.5157,2.5277,2.5274,0.0,2.5561,2.561,0.0,2.5389,0.0,0.0,0.0,0.0,0.0,0.0,0.0,0.0,2.4988,0.0,0.0,0.0,2.4489,2.4379,0.0,0.0,0.0,0.0,0.0,0.0,0.0,0.0,0.0,0.0,0.0,0.0,0.0,0.0,0.0,0.0,2.348,2.3029,2.2963,2.2705,2.2142,2.1559,2.1182,2.0989,2.0445,1.9897,1.9481,1.8387,1.743,1.6529,1.6193,1.5123,1.3289,1.147,1.0527,1.0301,1.0299,1.0302,1.0312,1.0684,1.084,1.084,1.084,1.058,1.0125,0.9872,0.9229,0.8486,1.1088,1.2944,0.0,0.0,0.0,0.0,0.0,0.0,0.0,0.0,0.0,0.0,0.0,0.0,0.0,0.0,0.0,2.2295,0.0,0.0,0.0,0.0,0.0,0.0,0.0,2.1118,2.1165,2.0766,2.1989,0.0,0.0,0.0,0.0,0.0,2.3789,0.0,2.3773,0.0,0.0,0.0,0.0,0.0,0.0,2.4392,2.4708,2.4939,2.5365,2.549,2.5499,0.0,2.5651,0.0,0.0,0.0,0.0,0.0,0.0,0.0,0.0,0.0,0.0,0.0,0.0,0.0,0.0,0.0,2.4339,0.0,0.0,0.0,0.0,0.0,0.0,0.0,0.0,0.0,0.0,0.0,0.0,0.0,0.0,0.0,0.0,0.0,0.0,0.0,2.2231,2.2086,2.2203,2.1295,2.0765,2.076,1.9949,1.9381,1.9197,1.8106,1.7407,1.713,1.6323,1.5279,1.404,1.2575,1.1683,1.1277,1.1274,1.119,1.1077,1.1253,1.1332,1.1309,1.1148,1.0838,1.0357,0.9502,0.898,0.8756,1.0136,0.0,0.0,0.0,0.0,0.0,0.0,0.0,0.0,0.0,0.0,0.0,1.9158,1.9934,0.0,0.0,0.0,2.3016,0.0,0.0,2.2155,0.0,0.0,0.0,0.0,0.0,0.0,2.1582,0.0,0.0,0.0,0.0,0.0,0.0,0.0,2.3885,2.417,0.0,0.0,2.4211,2.4352,2.4412,2.4398,2.4719,2.5005,2.5236,2.5506,2.5601,2.56,2.5659,2.5664,0.0,2.5657,0.0,0.0,0.0,0.0,0.0,2.5421,0.0,0.0,0.0,0.0,0.0,0.0,0.0,0.0,0.0,0.0,0.0,0.0,0.0,0.0,0.0,0.0,0.0,0.0,0.0,0.0,0.0,0.0,0.0,0.0,0.0,0.0,2.2167,2.1673,2.1493,2.176,2.0728,2.0147,2.0111,1.9479,1.8902,1.8473,1.7745,1.7353,1.7312,1.6338,1.5508,1.4693,1.3775,1.2914,1.2068,1.1937,1.1776,1.1616,1.1734,1.1738,1.1733,1.1481,1.1084,1.0523,0.9454,0.894,0.8786,0.9036,1.1894,0.0,0.0,0.0,0.0,0.0,0.0,0.0,0.0,0.0,0.0,0.0,0.0,0.0,0.0,0.0,2.6412,2.698,0.0,2.3258,0.0,0.0,2.1661,0.0,0.0,0.0,0.0,0.0,0.0,0.0,0.0,0.0,0.0,0.0,2.419,2.419,2.419,2.4192,2.42,2.4217,2.4441,2.4841,0.0,2.547,2.5493,2.5564,0.0,0.0,2.5605,2.5561,0.0,0.0,0.0,0.0,0.0,0.0,0.0,0.0,0.0,0.0,2.4611,0.0,0.0,0.0,0.0,2.3714,0.0,0.0,0.0,0.0,0.0,0.0,0.0,0.0,0.0,0.0,0.0,0.0,0.0,0.0,0.0,0.0,0.0,0.0,2.1702,2.1483,2.11,2.0382,1.9946,1.9466,1.8954,1.9432,1.8917,1.7357,1.7491,1.7229,1.6522,1.6478,1.5876,1.4778,1.4292,1.3433,1.2266,1.1814,1.1606,1.1636,1.2031,1.2161,1.2153,1.1905,1.139,1.073,1.003,0.9349,0.8791,0.0,0.0,0.0,0.0,0.0,0.0,0.0,2.0018,0.0,0.0,0.0,0.0,0.0,0.0,2.5439,0.0,0.0,2.6094,2.6784,2.4876,0.0,0.0,0.0,2.1889,0.0,0.0,0.0,0.0,0.0,0.0,0.0,0.0,0.0,0.0,0.0,2.4321,0.0,0.0,0.0,0.0,0.0,2.5022,2.5158,0.0,0.0,2.5497,2.5523,2.5521,0.0,2.552,2.5546,2.5571,2.5513,2.5537,2.5515,2.5241,2.5101,0.0,0.0,0.0,2.4836,2.4561,0.0,0.0,0.0,0.0,0.0,0.0,0.0,0.0,0.0,0.0,0.0,0.0,0.0,0.0,0.0,0.0,0.0,0.0,0.0,0.0,0.0,0.0,0.0,2.1485,2.1103,2.0857,2.0764,2.0085,1.9381,1.8702,1.8669,1.8226,1.733,1.6608,1.6071,1.5712,1.5437,1.4676,1.3552,1.3914,1.3605,1.2702,1.2525,1.2479,1.2488,1.2598,1.2656,1.2618,1.2024,1.1977,1.2009,1.0616,0.9524,0.8804,1.0982,0.0,0.0,0.0,0.0,0.0,0.0,0.0,0.0,0.0,2.3427,0.0,2.4268,0.0,2.6176,0.0,2.6906,2.6901,2.6632,2.539,0.0,2.3056,2.2849,0.0,0.0,0.0,0.0,0.0,0.0,2.3613,0.0,0.0,0.0,0.0,0.0,0.0,0.0,0.0,2.4639,0.0,0.0,2.5356,0.0,0.0,2.5573,2.5566,0.0,2.5499,2.5496,2.549,2.5492,2.5486,2.5447,2.5345,2.5215,2.5072,2.4924,2.475,2.4511,2.4554,0.0,2.4432,2.4302,0.0,2.3925,0.0,0.0,0.0,0.0,0.0,0.0,0.0,0.0,0.0,0.0,0.0,0.0,2.1521,0.0,0.0,0.0,0.0,0.0,0.0,2.091,2.1005,2.0756,2.0497,0.0,0.0,1.8948,1.8166,1.7987,1.7626,1.7027,1.6275,1.5756,1.539,1.4949,1.4168,1.3236,1.3532,1.3412,1.2881,1.2881,1.2881,1.2881,1.2881,1.2881,1.2832,1.2393,1.2342,1.2308,1.0683,0.9539,0.8804,0.0,0.0,0.0,0.0,1.8846,0.0,0.0,0.0,2.3884,0.0,2.3791,2.4368,2.4883,2.6382,2.7353,2.7248,2.8679,0.0,2.6811,2.6666,0.0,0.0,2.3698,2.3509,2.3036,0.0,0.0,0.0,0.0,0.0,0.0,0.0,0.0,0.0,2.4716,0.0,2.4804,2.4804,2.4872,2.4962,2.5219,2.5473,2.5706,2.5699,2.5683,2.5662,2.5547,2.5498,2.5483,2.5495,2.5404,2.5303,2.5284,2.5056,2.4805,2.4858,2.4745,2.4538,2.4276,2.4344,2.4409,2.4209,0.0,0.0,0.0,0.0,2.2903,0.0,0.0,0.0,0.0,0.0,0.0,0.0,0.0,0.0,0.0,0.0,0.0,0.0,0.0,0.0,0.0,2.0719,2.0492,2.0265,2.0407,2.0025,0.0,0.0,1.8218,1.7353,1.7487,1.7251,1.6522,1.6479,1.6156,1.5551,1.4901,1.4309,1.3732,1.3152,1.2881,1.2881,1.2881,1.2881,1.2881,1.2881,1.2881,1.2881,1.2881,1.2452,1.1616,1.0312,0.9413,0.8864,1.5505,1.7668,1.9293,0.0,2.0273,2.0792,0.0,0.0,0.0,0.0,2.5824,2.649,2.664,2.7708,2.8264,2.785,2.8463,0.0,0.0,0.0,0.0,2.5136,2.5443,2.4878,2.3342,2.3999,0.0,2.3431,0.0,0.0,2.4094,0.0,0.0,0.0,0.0,0.0,2.4804,2.4904,2.5102,2.5354,2.5421,2.5541,0.0,0.0,2.5574,2.5407,2.5479,2.5434,2.536,2.536,2.5332,2.5274,2.5072,2.4911,2.4777,2.4647,2.4569,2.4482,2.4247,2.406,2.3901,2.3837,2.3566,2.3312,0.0,0.0,0.0,0.0,0.0,0.0,0.0,0.0,0.0,0.0,0.0,0.0,0.0,0.0,0.0,0.0,0.0,0.0,1.998,1.9969,1.9899,1.9874,1.939,1.8979,0.0,0.0,0.0,1.7325,1.7487,1.7251,1.6522,1.5897,1.5358,1.4915,1.3879,1.3278,1.3152,1.2978,1.2881,1.2881,1.2881,1.2881,1.2881,1.2881,1.2881,1.2881,1.2881,1.2147,1.1015,1.0661,1.0241,0.9807,1.6035,0.0,0.0,2.222,0.0,0.0,2.4351,0.0,0.0,2.6465,2.7105,0.0,2.7088,2.8224,2.8657,2.7788,2.7988,0.0,2.7652,0.0,0.0,2.5887,2.6109,2.5543,2.401,2.4669,0.0,2.3474,0.0,0.0,2.4339,0.0,0.0,0.0,0.0,2.5096,0.0,2.5135,2.5281,2.5459,2.5513,0.0,0.0,2.5681,2.5532,2.5311,2.5387,2.5369,2.5303,2.5303,2.5292,2.5267,2.5125,2.4822,2.4547,2.4528,2.4465,2.4338,2.4228,2.4049,2.3934,2.3934,2.3494,2.313,2.3397,2.2998,2.2473,0.0,0.0,0.0,0.0,0.0,0.0,0.0,0.0,0.0,0.0,0.0,0.0,0.0,1.8893,0.0,1.9006,1.9207,1.9244,1.9006,1.9038,1.8759,0.0,0.0,0.0,1.6964,1.7059,1.6908,1.6517,1.5553,1.4901,1.4693,1.3474,1.289,1.2881,1.2881,1.2881,1.2881,1.2881,1.2881,1.2881,1.2881,1.2881,1.2881,1.2881,1.2412,1.1742,1.1742,1.0795,0.9598,0.0,0.0,0.0,0.0,0.0,0.0,0.0,2.6676,0.0,2.7798,0.0,2.7709,2.6969,2.8265,2.8656,2.7379,0.0,2.7273,2.6593,2.6601,2.6502,2.6222,2.635,2.5918,2.4898,2.523,0.0,0.0,0.0,0.0,0.0,0.0,0.0,0.0,0.0,0.0,0.0,2.5391,2.5415,0.0,2.5542,2.5561,2.5526,2.5621,2.5511,2.5306,2.5293,2.5303,2.5303,2.5312,2.5305,2.5278,2.5196,2.4712,2.4239,2.4487,2.4374,2.4208,2.4206,2.4135,2.4053,2.405,2.343,2.3033,2.3781,2.3079,2.2265,2.2158,2.1711,2.1521,0.0,0.0,0.0,0.0,0.0,0.0,0.0,0.0,0.0,0.0,0.0,0.0,1.7947,1.843,1.8622,1.8143,1.889,1.8769,0.0,0.0,0.0,1.6522,1.649,1.6512,1.6483,0.0,1.4702,1.4682,1.348,1.2907,1.2881,1.2881,1.2881,1.2881,1.2881,1.2881,1.2881,1.2881,1.2881,1.2881,1.2881,1.2822,1.2774,1.2774,1.1226,0.9221,0.0,0.0,0.0,0.0,0.0,2.6353,2.9163,2.9523,2.916,2.827,2.8871,2.8998,2.7906,2.8186,2.8182,2.7351,2.7365,0.0,0.0,0.0,0.0,2.6262,2.7048,2.6961,2.5796,2.591,2.5687,0.0,0.0,0.0,0.0,0.0,0.0,0.0,0.0,0.0,2.5471,2.5488,0.0,2.5567,2.5521,2.5546,2.5583,2.5554,2.5446,2.5294,2.5293,2.5303,2.5293,2.5302,2.5313,2.5203,2.4572,2.43,2.4215,2.4266,2.4226,2.4186,2.4215,2.3791,2.3342,2.3172,2.2746,2.2456,2.2603,2.2451,2.2113,2.1378,2.1144,2.1086,2.123,0.0,0.0,0.0,0.0,0.0,0.0,0.0,0.0,0.0,0.0,0.0,0.0,0.0,1.8208,1.8131,0.0,0.0,0.0,0.0,0.0,0.0,1.6485,0.0,0.0,0.0,1.468,1.4707,1.3473,1.289,1.2881,1.2881,1.2881,1.2881,1.2881,1.2881,1.2881,1.2881,1.2881,1.2881,1.2881,1.251,1.1972,1.1972,1.1575,1.1003,0.0,0.0,0.0,0.0,0.0,0.0,0.0,3.0889,0.0,2.9462,2.9195,2.8845,2.8297,2.8616,2.8771,2.8419,2.7736,2.7462,2.7721,2.7297,2.6702,2.5924,2.6556,0.0,2.4949,2.5268,2.5136,2.4551,0.0,0.0,0.0,0.0,0.0,0.0,0.0,2.5463,0.0,0.0,0.0,2.5543,2.5545,2.5534,2.5498,2.5499,2.5414,2.5309,2.5301,2.5045,2.4728,2.4739,2.4733,2.4676,2.4313,2.4202,2.4191,2.4191,2.4037,2.3876,2.4122,2.362,2.3045,2.3041,2.2664,2.231,2.231,2.2298,2.2045,2.118,2.0879,2.0711,2.0379,2.0139,0.0,0.0,0.0,0.0,0.0,0.0,0.0,0.0,0.0,0.0,0.0,0.0,0.0,0.0,0.0,0.0,0.0,0.0,0.0,0.0,0.0,0.0,0.0,0.0,0.0,1.378,1.3576,1.3287,1.2936,1.3203,1.3155,1.2881,1.2881,1.2881,1.2881,1.2881,1.2881,1.2881,1.2881,1.2801,1.2654,1.2654,1.2632,1.2549,0.0,2.4582,0.0,0.0,2.6666,0.0,3.1091,3.1257,3.0932,3.044,2.9622,2.8931,2.8643,2.9258,2.9516,2.93,2.8196,2.7664,2.8026,2.6922,2.6152,2.5848,2.6105,2.5594,2.4267,2.4622,2.4536,0.0,0.0,0.0,0.0,0.0,0.0,0.0,0.0,0.0,0.0,0.0,2.5582,2.5526,2.5564,2.5513,2.5418,2.5453,2.5397,2.5271,2.5134,2.4683,2.4201,2.4209,2.4212,2.4193,2.4197,2.4191,2.419,2.4095,2.3787,2.3577,2.3912,2.3446,2.2911,2.3007,2.2521,2.2084,2.2247,2.2304,2.2016,2.0933,2.0575,2.0265,1.9782,1.9782,0.0,0.0,0.0,0.0,0.0,0.0,0.0,0.0,0.0,0.0,0.0,0.0,0.0,0.0,0.0,0.0,0.0,0.0,0.0,0.0,0.0,1.6627,1.6343,0.0,1.4155,1.3462,1.4077,1.4037,1.3439,1.3704,1.3598,1.3273,1.3185,1.3076,1.2881,1.291,1.288,1.289,1.2908,1.308,1.3378,1.3643,1.3755,1.3772,0.0,0.0,0.0,0.0,0.0,0.0,3.1192,3.0532,2.9894,3.016,3.0743,3.0652,2.9508,2.9783,2.9704,2.8939,2.8565,2.8252,2.7848,2.7419,2.7018,2.6616,2.6627,2.6249,2.5359,2.4986,2.4856,0.0,0.0,0.0,0.0,0.0,0.0,0.0,0.0,0.0,0.0,2.5683,2.5642,2.5583,2.5524,2.549,2.5488,2.5369,2.531,2.5206,2.4529,2.4252,2.4209,2.4198,2.4188,2.4202,2.4211,2.419,2.4133,2.3689,2.353,2.3472,2.332,2.3101,2.2825,2.2466,2.1745,2.1338,2.2139,2.2319,2.1829,2.0147,1.9797,1.9756,1.9692,2.0,2.0124,0.0,0.0,0.0,0.0,0.0,0.0,0.0,0.0,0.0,0.0,1.7583,0.0,0.0,0.0,0.0,0.0,0.0,0.0,1.7012,0.0,1.7811,1.5896,1.5859,1.5572,1.5175,1.5221,1.5223,1.5161,1.4384,1.4208,1.443,1.4112,1.3571,1.29,1.2893,1.2916,1.2884,1.2905,1.2938,1.3099,1.4092,1.4478,1.4561,0.0,0.0,0.0,0.0,0.0,0.0,0.0,3.0951,3.0463,2.9816,3.0266,3.0591,3.0587,3.0283,2.9854,2.9403,2.9572,2.9279,2.822,2.7865,2.7162,2.603,2.6177,2.5707,2.4438,2.4541,2.4653,0.0,0.0,0.0,0.0,0.0,0.0,0.0,0.0,2.6463,2.6484,2.6441,2.6071,2.552,2.5477,2.5425,2.5369,2.5146,2.5038,2.4917,2.4389,2.4198,2.42,2.4208,2.421,2.4211,2.4209,2.419,2.4113,2.3741,2.3378,2.3117,2.3028,2.2773,2.2504,2.2338,2.2024,2.1741,2.1565,2.1517,2.1488,2.1311,2.0429,1.9679,1.9707,1.9839,1.9874,0.0,0.0,0.0,0.0,0.0,0.0,0.0,0.0,0.0,0.0,0.0,0.0,0.0,0.0,0.0,0.0,0.0,0.0,1.8624,0.0,1.7885,1.7344,1.6248,1.5588,1.5429,1.5389,1.5229,1.4904,1.4894,1.4755,1.457,1.4245,1.3932,1.3581,1.3124,1.3199,1.3647,1.3641,1.3951,1.4411,1.4296,1.4951,1.5897,2.9086,0.0,3.0449,0.0,3.1483,3.118,3.1239,3.0725,3.0196,3.0006,3.0235,3.057,3.0898,3.0809,3.0538,2.9963,3.0179,2.9852,2.8644,2.8222,2.7496,2.624,2.6183,0.0,2.4324,2.4431,2.4543,2.4651,2.4866,0.0,0.0,0.0,0.0,0.0,2.7109,2.6992,2.6951,2.6646,2.6119,2.5477,2.5421,2.5363,2.5274,2.5,2.4784,2.46,2.4292,2.4185,2.4208,2.4192,2.4133,2.4036,2.4036,2.4036,2.3976,2.3544,2.3141,2.2832,2.2738,2.2508,2.231,2.231,2.2057,2.1634,2.1014,2.075,2.0801,2.1406,2.0565,1.968,1.9702,1.969,1.969,1.969,0.0,0.0,0.0,0.0,0.0,0.0,1.9029,1.9743,1.9696,0.0,0.0,0.0,0.0,0.0,0.0,0.0,0.0,0.0,0.0,0.0,0.0,1.6694,1.5722,1.541,1.541,1.5186,1.4819,1.5256,1.5189,1.4834,1.4612,1.4478,1.4453,1.4414,1.4447,1.4496,1.4468,1.5156,1.6088,1.5491,1.5875,1.6675,2.9333,3.0402,3.1672,3.2598,3.1315,3.0418,3.1261,2.9281,2.8551,3.103,3.1282,3.0885,3.0128,3.147,3.1949,3.0594,3.0147,2.9639,2.9035,2.8612,2.8202,0.0,0.0,2.6293,2.5689,2.4905,2.4648,2.4979,0.0,0.0,2.6802,0.0,2.8262,2.8242,2.7383,2.6969,2.6832,2.5974,2.5531,2.5394,2.5394,2.5363,2.5274,2.5,2.46,2.4218,2.419,2.4209,2.419,2.419,2.3976,2.3714,2.3714,2.3714,2.3566,2.2923,2.2721,2.2634,2.2388,2.231,2.231,2.231,2.147,2.0635,2.0591,2.0137,1.9706,1.9706,1.9706,1.968,1.9702,1.969,1.969,1.969,0.0,0.0,0.0,0.0,0.0,0.0,1.903,1.9916,1.9698,0.0,0.0,0.0,0.0,0.0,0.0,0.0,0.0,1.942,2.0676,0.0,1.8644,1.7469,1.6369,1.541,1.541,1.541,1.54,1.541,1.5407,1.5381,1.5381,1.5355,1.5529,1.7248,1.6911,1.54,1.5396,1.6461,1.7934,1.7945,1.7423,1.6724,3.012,3.1573,3.2628,3.1919,3.1855,3.1739,3.1358,3.0584,3.0482,3.173,3.1832,3.1858,3.2036,3.1321,3.0647,0.0,2.9603,2.9106,0.0,2.8724,2.8572,2.8046,2.7452,2.6749,2.5923,2.5167,2.4853,2.5006,0.0,0.0,0.0,2.7786,2.857,2.9141,2.8281,2.7848,2.773,2.6805,2.6023,2.5406,2.5346,2.5667,2.6084,2.5243,2.5524,2.6205,2.4727,2.4558,2.4924,2.4373,2.3976,2.3671,2.3414,2.3369,2.3259,2.2822,2.2695,2.2634,2.236,2.231,2.2225,2.1906,2.1464,2.1039,2.0697,2.0144,1.9684,1.9723,1.9706,1.968,1.9702,1.969,1.969,1.969,1.939,0.0,0.0,0.0,0.0,0.0,1.8229,1.8727,0.0,1.957,0.0,0.0,0.0,0.0,0.0,0.0,0.0,0.0,2.0335,0.0,1.936,1.8218,1.7181,1.6309,1.5677,1.5384,1.5384,1.5384,1.5629,1.5962,1.5562,1.5635,1.6097,1.7451,1.7667,1.7143,1.7194,1.7524,1.8002,1.8017,1.8056,1.8218,3.0417,3.1645,3.2377,3.1442,3.1976,3.2269,3.1647,3.1606,3.1823,3.2196,3.2528,3.2857,3.3255,3.1862,0.0,3.0279,3.0016,2.9559,2.8821,2.9007,2.8971,2.8652,2.7959,2.7167,2.6246,2.5348,0.0,2.5118,2.5283,2.6049,2.7344,2.8281,2.904,2.957,2.9002,2.852,2.8115,2.7507,2.6895,2.6348,2.6285,2.6542,2.6847,2.605,2.6255,2.6749,2.5202,2.4772,2.4866,2.4218,2.3795,2.3437,2.3117,2.294,2.2807,2.2616,2.2563,2.2456,2.213,2.2051,2.1943,2.1495,2.1183,2.0881,2.0366,1.9958,1.9712,1.9717,1.9718,1.9712,1.9681,1.969,1.9692,1.9693,1.9075,1.8436,1.7963,0.0,0.0,0.0,0.0,0.0,0.0,2.0543,2.0354,0.0,0.0,0.0,0.0,0.0,0.0,2.1393,2.0582,0.0,2.0062,1.8708,1.7745,1.7155,1.6321,1.5823,1.5742,1.5975,1.6138,1.6252,1.5996,1.616,1.6675,1.7604,1.7853,1.7725,1.8165,1.8368,1.8389,1.8821,1.9053,1.9195,3.0289,3.0916,3.1364,0.0,3.1749,0.0,3.2105,3.2335,3.2517,3.255,3.3268,3.3781,3.3798,3.294,3.1952,3.0956,0.0,0.0,0.0,2.9394,2.9457,2.9517,2.8458,2.7475,2.6657,2.5633,2.5217,2.5399,2.5473,2.6392,2.8123,2.9061,2.9531,2.959,2.9478,2.895,2.8188,2.8051,2.7961,2.789,2.7879,2.7757,2.7537,2.7327,2.6892,2.6301,2.5702,2.4992,2.4267,2.3828,2.3495,2.3188,2.2815,2.2561,2.2378,2.2327,2.2282,2.2152,2.1718,2.1578,2.1458,2.1038,2.0584,2.0177,1.9771,1.969,1.969,1.969,1.969,1.969,1.969,1.9735,1.9745,1.967,1.8832,1.8014,1.7613,0.0,0.0,0.0,0.0,0.0,0.0,2.2062,2.2332,0.0,0.0,0.0,0.0,0.0,2.1468,2.2214,2.1296,2.0715,2.0522,1.8843,1.7981,1.794,1.7111,1.665,1.6411,1.689,1.6899,1.6459,1.6709,1.6958,1.7248,1.775,1.7671,1.733,1.8438,1.8882,1.9071,2.0153,2.0222,1.9766,0.0,0.0,3.1972,3.1739,3.178,3.1985,3.2369,3.2468,3.2616,3.2983,3.3188,3.346,3.378,3.3773,3.3124,3.1676,3.1102,3.0389,2.9448,2.9533,2.9691,2.9794,2.8241,2.721,2.6902,2.719,2.704,2.6436,2.587,2.6139,2.7225,2.8162,2.8965,2.957,2.8834,2.8735,2.9049,2.8311,2.7961,2.7879,2.7675,2.7828,2.8161,2.7791,2.7953,2.8143,2.6799,2.6023,2.5443,2.4017,2.3632,2.3615,2.2911,2.2904,2.3038,2.2479,2.2049,2.1718,2.1628,2.1374,2.1014,2.0573,2.0158,1.9822,1.9726,1.969,1.969,1.969,1.969,1.969,1.969,2.0117,2.0167,1.9219,1.8957,1.852,1.7523,1.7613,0.0,0.0,2.0641,2.1659,2.2752,2.316,2.3617,0.0,0.0,0.0,0.0,2.3213,2.277,2.1737,2.2188,2.1667,1.9944,1.8639,1.7742,1.7324,1.7244,1.736,1.7609,1.7278,1.7502,1.8282,1.7841,1.7919,1.8213,1.8045,1.8346,1.8737,1.8691,1.886,1.9235,1.9529,1.9971,2.036,3.0742,3.1444,3.2008,3.1821,3.2144,3.2533,3.2777,3.2965,3.3196,3.3447,3.3465,3.3588,3.3961,3.4179,3.3724,3.2379,3.1688,3.0846,2.9736,2.9763,2.9916,3.012,2.8696,2.739,2.6333,2.7217,2.7225,2.624,2.6643,2.7071,2.7552,2.8476,2.912,2.9544,2.9374,2.9294,2.9271,2.8741,2.8704,2.8994,2.8345,2.8472,2.8945,2.8651,2.8722,2.8828,2.7392,2.6626,2.6075,2.4466,2.3902,2.3819,2.3364,2.3067,2.2789,2.2149,2.1794,2.1552,2.1368,2.1006,2.059,2.0135,1.9879,1.969,1.969,1.969,1.9645,1.9388,1.9781,2.008,1.9834,2.055,2.0754,1.9546,1.943,1.9133,1.8222,1.8668,0.0,2.1153,2.2227,2.3381,2.4773,2.5443,2.5558,2.5057,2.4844,0.0,2.3243,2.4128,2.4024,2.2711,2.3291,2.2486,2.0139,1.8914,1.8134,1.7901,1.8052,1.8337,1.8775,1.8468,1.8506,1.8844,1.8271,1.8361,1.8936,1.9128,1.9174,1.9093,1.9136,1.9222,1.9533,1.9821,2.0159,2.0566,3.1196,3.164,3.1915,3.1986,3.2663,3.3214,3.3273,3.3578,3.3815,3.3868,3.3831,3.3924,3.4223,3.4409,3.4054,3.2959,3.2523,3.1663,3.0079,3.0028,3.0171,3.0381,2.9319,2.7837,2.5929,2.6599,2.659,2.5866,2.7418,2.8254,2.8417,2.9081,2.9427,2.9491,3.0111,2.9958,2.9195,2.9117,2.9525,3.0117,2.914,2.914,2.9678,2.9415,2.92,2.886,2.7749,2.7054,2.6405,2.499,2.4333,2.4046,2.3857,2.3248,2.249,2.1797,2.1535,2.143,2.1023,2.0569,2.0119,1.9803,1.9765,1.9839,1.9867,1.9933,1.9852,1.9417,2.0131,2.072,2.026,2.1093,2.1486,2.0372,2.0278,2.016,1.9549,0.0,2.1429,2.3073,2.4429,2.571,2.6967,2.7915,2.7446,2.5103,2.5826,2.5273,2.27,2.4372,2.5049,2.4287,2.4258,2.3143,2.0805,1.9369,1.8789,1.8987,1.8991,1.9307,1.9807,1.968,1.9409,1.8985,1.8321,1.8505,1.9375,2.0262,2.0012,1.9203,1.9597,1.9761,1.9878,2.0498,2.0664,2.0654,3.1679,3.2074,3.2517,3.2903,3.3105,3.3302,3.3634,3.3762,3.3876,3.4099,3.3937,3.4018,3.4553,3.4756,3.4372,3.323,3.2943,3.1957,3.0026,3.0177,3.0348,3.0393,2.9358,2.8439,2.7707,2.6476,2.6269,2.7128,2.7401,2.8007,2.8886,2.8572,2.8746,2.9327,2.9392,2.9345,2.9193,2.9128,2.9179,2.9252,2.8677,2.8957,2.9661,2.9228,2.904,2.8915,2.8276,2.7507,2.6597,2.5453,2.5033,2.4872,2.4066,2.3947,2.3799,2.1963,2.1272,2.0991,2.0516,2.0124,1.9803,1.9711,2.0131,2.0557,2.0537,2.1003,2.1378,2.1296,2.1431,2.1526,2.1426,2.2049,2.2349,2.1686,2.206,2.2224,2.1699,0.0,2.4312,2.525,2.6788,2.815,2.9063,2.8768,2.8068,2.6877,2.6417,2.5877,2.5071,2.5371,2.5511,2.5351,2.492,2.3665,2.1538,1.9992,1.9285,1.9564,1.9381,1.9687,2.041,1.9478,1.9194,1.9522,1.8452,1.8452,1.9333,2.0222,2.0536,2.0322,1.9839,2.0031,2.0518,2.1075,2.1024,2.0675,3.2144,3.2484,3.2858,3.3154,3.3361,3.3616,3.3986,3.4018,3.4117,3.4423,3.4352,3.444,3.487,3.5092,3.5021,3.4466,3.3492,3.2148,3.0381,3.0389,3.0463,3.0507,3.0032,2.9402,2.8602,2.7254,2.6988,2.7832,2.8743,2.9177,2.9175,2.939,2.9658,2.9943,2.9915,2.9873,2.9814,2.9308,2.9286,2.9518,2.8714,2.8872,2.9513,2.9138,2.8994,2.8929,2.826,2.7754,2.7229,2.6316,2.549,2.4703,2.4019,2.3575,2.3038,2.1591,2.0991,2.0677,2.012,1.9839,1.9831,2.0302,2.0543,2.0812,2.1159,2.1492,2.1599,2.1322,2.2049,2.2629,2.238,2.3408,2.3956,2.3065,2.3453,0.0,0.0,2.4798,2.6242,2.7598,2.8773,2.9832,3.0567,2.998,2.9021,2.7854,2.7031,2.6144,2.5192,2.5456,2.5615,2.5598,2.4074,2.311,2.2689,2.0667,1.9816,2.0183,2.0091,2.0217,2.0589,2.0039,1.9963,2.0158,1.965,1.965,2.0052,2.0456,2.0584,2.0547,2.0332,2.0537,2.1066,2.149,2.1818,2.1945,3.2583,3.2952,3.3214,3.3302,3.3662,3.3961,3.4171,3.4288,3.4423,3.4754,3.4774,3.487,3.5155,3.5379,3.55,3.5512,3.4295,3.2698,3.0723,3.0765,3.0773,3.0637,3.0267,2.9615,2.8656,2.8063,2.7907,2.818,2.9643,3.0093,2.9576,3.0263,3.0545,3.0472,3.0472,3.0346,3.0052,2.9337,2.9296,2.9641,2.8711,2.8765,2.9372,2.9089,2.8994,2.8905,2.8174,2.7897,2.7783,2.6971,2.5946,2.4927,2.4315,2.3506,2.2656,2.1795,2.0991,2.0303,1.9827,1.9794,2.0115,2.0768,2.106,2.1306,2.1824,2.2159,2.2278,2.1859,2.2996,2.3956,2.3591,2.4781,2.5563,2.4813,0.0,0.0,0.0,2.6828,2.8027,2.9464,3.026,3.0953,3.1422,3.0746,2.978,2.8461,2.7554,2.6531,2.5236,2.5594,2.5777,2.5822,2.3549,2.2753,2.3514,2.1182,2.0242,2.0566,2.0566,2.0566,2.0566,2.0703,2.0752,2.0811,2.0625,2.0683,2.0869,2.0869,2.0879,2.0869,2.0968,2.1282,2.1627,2.1937,2.2409,2.2842,3.3136,3.3465,3.3734,3.3734,3.3986,3.4195,3.42,3.4445,3.4754,3.5034,3.4956,3.5021,3.5427,3.5479,3.5498,3.5493,3.5438,3.4032,3.0801,3.1415,3.1526,3.0726,2.9251,2.8163,2.7538,2.8418,2.8622,2.8115,2.8981,2.9726,3.0322,3.0458,3.0463,3.0402,3.0402,2.996,2.9179,2.8925,2.8845,2.8827,2.8333,2.8649,2.9372,2.9089,2.8994,2.8905,2.8174,2.7897,2.7783,2.6971,2.6622,2.6362,2.5407,2.4734,2.4168,2.345,2.1595,1.9752,1.9728,2.0154,2.0647,2.0722,2.1635,2.2559,2.2611,2.3563,2.4357,2.4349,2.4958,2.5453,2.542,2.6009,2.6692,2.721,0.0,0.0,2.9149,2.9803,3.0258,3.038,3.101,3.148,3.1524,3.078,2.994,2.9002,2.8109,2.7249,2.642,2.6389,2.6402,2.6427,2.4459,2.3447,2.3514,2.1562,2.0605,2.0566,2.0566,2.0566,2.0586,2.1113,2.1309,2.1301,2.0784,2.1086,2.1768,2.1788,2.1767,2.1797,2.2103,2.2234,2.2221,2.2399,2.2432,2.2415,3.3522,3.3707,3.3868,3.4018,3.4213,3.4423,3.4696,3.487,3.5034,3.5304,3.5296,3.5326,3.5474,3.5493,3.5509,3.5492,3.5512,3.5085,3.4029,3.2214,3.1075,3.0835,2.9686,2.9166,2.9433,2.9276,2.9322,2.959,2.9902,3.0171,3.0392,3.043,3.0417,3.0398,3.0398,3.0119,2.9652,2.9584,2.9406,2.9174,2.8969,2.8992,2.9156,2.904,2.8839,2.8565,2.8093,2.7754,2.7439,2.6873,2.6386,2.5944,2.5592,2.5002,2.432,2.3481,2.2143,2.0926,2.0923,2.091,2.1128,2.2224,2.2881,2.3385,2.3996,2.4672,2.5227,2.5245,2.6061,2.6834,2.6862,2.7703,2.8532,2.8771,0.0,2.9447,3.0053,3.0349,3.0624,3.1096,3.1319,3.1482,3.1482,3.0573,2.9845,2.9533,2.8559,2.77,2.7036,2.6993,2.6967,2.6967,2.5996,2.4802,2.3526,2.1798,2.0956,2.0986,2.126,2.1387,2.1387,2.1627,2.1715,2.1732,2.152,2.1617,2.1875,2.1922,2.186,2.1885,2.1997,2.2163,2.2418,2.2461,2.2666,2.2823,3.3858,3.3928,3.4012,3.4311,3.4489,3.4734,3.5034,3.5174,3.5289,3.5479,3.5493,3.5501,3.5515,3.5528,3.5512,3.5504,3.5596,3.5749,3.5978,3.2663,3.0741,3.0837,3.0218,3.0138,3.0652,3.0005,2.9919,3.0477,3.0471,3.0448,3.0398,3.0398,3.0398,3.0398,3.0311,3.0163,2.9999,2.9861,2.9643,2.9392,2.931,2.9093,2.8815,2.8815,2.8565,2.821,2.7851,2.753,2.7241,2.6858,2.6353,2.5947,2.5947,2.5494,2.4879,2.4479,2.3617,2.283,2.2899,2.2531,2.2364,2.3017,2.3548,2.4163,2.5167,2.5649,2.592,2.589,2.6994,2.7928,2.7882,2.8981,2.9864,2.9864,3.0223,3.0567,3.0788,3.0985,3.1222,3.1465,3.1482,3.1586,3.1811,3.0587,2.9893,3.0081,2.8834,2.7927,2.7544,2.7528,2.7544,2.7544,2.6955,2.5721,2.3985,2.2631,2.1747,2.1452,2.1753,2.1899,2.1899,2.1992,2.2114,2.209,2.209,2.2158,2.2266,2.2139,2.2158,2.2275,2.2275,2.2461,2.2715,2.2715,2.2891,2.3135,3.4147,3.42,3.4311,3.4653,3.4926,3.5105,3.5105,3.532,3.5493,3.5493,3.5507,3.5534,3.559,3.5591,3.5563,3.5502,3.5812,3.6001,3.5981,3.2675,3.0716,3.0713,3.0693,3.0673,3.0606,3.0479,3.0402,3.0402,3.04,3.0398,3.0398,3.0398,3.0398,3.0398,3.0122,2.9999,2.9969,2.957,2.9412,2.9372,2.9112,2.8749,2.8394,2.8394,2.8183,2.784,2.7439,2.7303,2.7224,2.6841,2.6691,2.6691,2.6708,2.6383,2.6162,2.6904,2.6238,2.5374,2.5493,2.5168,2.4399,2.2715,2.3481,2.4927,2.6044,2.6462,2.6602,2.6602,2.7679,2.8607,2.8607,2.9654,3.0507,3.0507,3.1644,3.2287,3.1571,3.2116,3.2279,3.1584,3.1482,3.1796,3.2463,3.0858,3.012,3.0746,2.9158,2.8089,2.8089,2.8088,2.8109,2.8109,2.7162,2.6071,2.5004,2.3971,2.2992,2.1935,2.1945,2.1945,2.188,2.2323,2.2467,2.2519,2.2519,2.2754,2.3105,2.2685,2.2764,2.3135,2.3135,2.3135,2.3135,2.3135,2.3135,2.3135,3.4176,3.4379,3.4615,3.4812,3.4977,3.5155,3.5354,3.5446,3.5493,3.5493,3.5534,3.5577,3.56,3.5668,3.5742,3.5719,3.5892,3.5613,3.4722,3.3322,3.221,3.1494,3.0884,3.054,3.0529,3.0453,3.04,3.04,3.0402,3.0398,3.0398,3.0209,3.0122,3.0122,2.9877,2.9713,2.957,2.9454,2.9289,2.9112,2.904,2.8749,2.8394,2.8394,2.8029,2.747,2.7348,2.7115,2.6873,2.6758,2.6691,2.6793,2.7317,2.7487,2.7602,2.7833,2.7352,2.6784,2.6812,2.6329,2.5385,2.3629,2.4517,2.6048,2.6983,2.7263,2.7425,2.7904,2.8682,2.943,2.9864,3.0642,3.1375,3.1839,3.2258,3.2437,3.2243,3.2795,3.2946,3.2258,3.2615,3.2986,3.3191,3.1881,3.1158,3.132,2.9675,2.8833,2.9301,2.8863,2.8687,2.8687,2.8748,2.7711,2.5418,2.4465,2.3474,2.2337,2.2629,2.2765,2.2775,2.2843,2.295,2.2949,2.2949,2.3027,2.3125,2.2998,2.3027,2.3135,2.3135,2.3135,2.3135,2.3135,2.3135,2.3135,3.4553,3.4715,3.4925,3.5092,3.52,3.5304,3.5479,3.5493,3.5493,3.5493,3.5554,3.5621,3.5663,3.5742,3.5827,3.5862,3.5875,3.5369,3.414,3.3701,3.3121,3.2269,3.1737,3.1138,3.0462,3.0417,3.0398,3.0398,3.0398,3.0398,3.0398,3.0136,2.9999,2.9984,2.9713,2.9513,2.9392,2.9289,2.9156,2.8994,2.8839,2.8558,2.8166,2.8029,2.7601,2.7051,2.7051,2.6906,2.6691,2.6691,2.6894,2.7266,2.8044,2.8387,2.8565,2.8865,2.8547,2.807,2.7846,2.7727,2.7272,2.5615,2.5738,2.6692,2.8091,2.8182,2.8173,2.8846,2.9505,3.0058,3.0432,3.1061,3.1691,3.2407,3.2736,3.2811,3.2557,3.3051,3.323,3.2552,3.2882,3.3297,3.3858,3.2525,3.1389,3.0918,2.9845,2.9409,2.9779,2.9465,2.9277,2.9277,2.9616,2.8555,2.6013,2.5371,2.4315,2.2764,2.3018,2.3135,2.3135,2.3135,2.3135,2.3135,2.3135,2.3135,2.3135,2.3135,2.3135,2.3135,2.3135,2.3135,2.3135,2.3135,2.3135,2.3135,3.5034,3.5122,3.5245,3.5614,3.5578,3.5553,3.572,3.5624,3.5495,3.5522,3.557,3.5659,3.5788,3.5806,3.5871,3.5996,3.5825,3.5275,3.4205,3.3971,3.3594,3.3038,3.2949,3.2199,3.0648,3.0552,3.0475,3.0398,3.0398,3.0398,3.0355,3.0109,2.9969,2.9939,2.9533,2.9372,2.9351,2.9067,2.8952,2.8905,2.8587,2.8264,2.7917,2.7613,2.7257,2.6894,2.6826,2.6793,2.6793,2.6793,2.7351,2.8146,2.8856,2.9127,2.9313,2.993,2.9715,2.9165,2.863,2.9178,2.9562,2.8152,2.7156,2.7096,2.9176,2.9192,2.8891,2.9535,3.0118,3.0522,3.0582,3.1106,3.1691,3.2407,3.3021,3.3215,3.2677,3.317,3.333,3.2731,3.2763,3.3242,3.4445,3.2851,3.1178,2.9896,2.9792,2.9792,2.9792,2.9792,2.9792,2.9792,2.9702,2.8621,2.6483,2.64,2.5221,2.3135,2.3135,2.3135,2.3135,2.3135,2.3135,2.3135,2.3135,2.3135,2.3135,2.3135,2.3135,2.3135,2.3135,2.3135,2.3135,2.3135,2.3135,2.3135,3.5088,3.5273,3.5753,3.6804,3.6199,3.6057,3.7478,3.6484,3.5601,3.5645,3.5677,3.5691,3.5714,3.5862,3.5975,3.5996,3.5903,3.5685,3.5281,3.4584,3.4116,3.3923,3.3256,3.2737,3.2372,3.1737,3.1083,3.0398,3.0398,3.0299,3.0075,2.9861,2.9678,2.9513,2.9225,2.9089,2.9067,2.8707,2.854,2.8569,2.879,2.8634,2.8352,2.8845,2.8802,2.8399,2.7791,2.7571,2.7571,2.7571,2.8484,2.9634,2.982,3.026,3.0656,3.0335,3.0146,2.992,2.9343,2.9106,2.9136,2.9487,2.8926,2.8636,2.9803,2.9984,2.9937,3.0208,3.0417,3.0672,3.121,3.1377,3.1691,3.2407,3.2632,3.2856,3.323,3.3844,3.4247,3.4077,3.4528,3.4931,3.5275,3.3514,3.1694,2.9934,2.9792,2.9792,2.9792,2.9792,2.9792,2.9792,2.8937,2.7855,2.6472,2.563,2.4467,2.3135,2.3135,2.3135,2.3135,2.3135,2.3135,2.3135,2.3135,2.3135,2.3135,2.3135,2.3135,2.3135,2.3135,2.3135,2.3135,2.3135,2.3135,2.3135,3.5289,3.5436,3.588,3.6979,3.7269,3.7498,3.7851,3.8127,3.8272,3.8322,3.7591,3.7081,3.7072,3.6442,3.6305,3.7035,3.6663,3.632,3.6241,3.5372,3.4866,3.4814,3.4391,3.389,3.3331,3.3269,3.2445,3.0822,3.042,3.0095,2.9845,2.9643,2.9494,2.9392,2.9112,2.8994,2.8989,2.8982,2.8971,2.899,2.917,2.9129,2.8952,2.9179,2.9157,2.8924,2.8518,2.8383,2.8433,2.8789,2.9448,3.0176,3.0514,3.0712,3.0699,3.0393,2.9892,2.9441,2.9453,2.9086,2.8931,3.0036,2.9902,2.9738,3.0618,3.0563,3.0468,3.0881,3.124,3.1539,3.188,3.2227,3.2676,3.3332,3.3442,3.3559,3.3935,3.4295,3.4472,3.4472,3.4801,3.4783,3.4176,3.324,3.1829,2.9934,2.9792,2.9792,2.9792,2.9792,2.9792,2.9792,2.9197,2.8119,2.6483,2.588,2.4808,2.3135,2.3135,2.3135,2.3135,2.3135,2.3135,2.3135,2.3135,2.3135,2.3135,2.3135,2.3135,2.3135,2.3135,2.3135,2.3135,2.3135,2.3135,2.3135,3.5551,3.5815,3.628,3.7036,3.8264,3.8912,3.8237,3.9699,4.0976,4.1172,3.9901,3.8982,3.9043,3.7688,3.7288,3.8557,3.7589,3.6897,3.6864,3.601,3.5493,3.5493,3.5603,3.5129,3.4047,3.4573,3.3606,3.1058,3.0449,2.9978,2.9662,2.9493,2.9372,2.933,2.9026,2.8978,2.9137,2.9305,2.9454,2.9576,2.9617,2.9593,2.9592,2.9425,2.9364,2.9347,2.9211,2.9178,2.9262,2.9888,3.0192,3.0357,3.087,3.0783,3.0432,3.0217,2.9542,2.8943,2.9416,2.9143,2.9041,3.0208,3.0466,3.0586,3.1358,3.108,3.0851,3.1362,3.2063,3.2541,3.273,3.3156,3.3698,3.4263,3.4319,3.4385,3.443,3.4475,3.4502,3.4637,3.4651,3.4103,3.2762,3.2569,3.1829,2.9934,2.9792,2.9792,2.9792,2.9792,2.9792,2.9792,2.9624,2.8621,2.6801,2.6554,2.5473,2.3387,2.3367,2.329,2.3135,2.3135,2.3135,2.3135,2.3135,2.3135,2.3135,2.3135,2.3135,2.3135,2.3135,2.3135,2.3135,2.3135,2.3135,2.3135,3.5734,3.6848,3.7996,3.8163,3.8381,3.9001,4.0487,4.0097,4.0019,4.1055,4.0801,4.0599,4.0819,4.0279,3.9984,4.0179,3.8175,3.6853,3.6722,3.5963,3.5493,3.5493,3.593,3.5795,3.4932,3.4737,3.316,3.0093,3.0544,3.0321,2.9434,2.9394,2.9267,2.9044,2.8639,2.8869,2.9476,2.8815,2.894,2.9535,2.9894,3.0014,3.0082,3.0688,3.0886,3.0818,3.0176,2.9956,2.9973,3.0074,3.0531,3.0977,3.0526,3.0764,3.0952,2.9896,2.9897,3.0156,2.9705,2.9552,2.9624,3.0328,3.0941,3.1332,3.145,3.1435,3.1362,3.1452,3.2063,3.2796,3.3771,3.3729,3.3546,3.3592,3.3621,3.3784,3.4185,3.4259,3.4513,3.5295,3.537,3.4618,3.2804,3.2569,3.1829,2.9934,2.9792,2.9792,2.9792,2.9792,2.9792,2.9792,2.8858,2.8176,2.7936,2.6964,2.588,2.4542,2.4544,2.4053,2.3135,2.3135,2.3135,2.3135,2.3135,2.3135,2.3135,2.3135,2.3135,2.3135,2.3135,2.3135,2.3135,2.3135,2.3135,2.3135,3.7569,3.8045,3.8518,3.9037,3.9186,3.9687,4.0996,4.0742,4.0564,4.1035,4.0948,4.0871,4.0924,4.0681,4.0489,4.0489,3.9113,3.8144,3.7906,3.7079,3.6554,3.6386,3.6415,3.6155,3.5609,3.5277,3.3827,3.1177,3.1339,3.111,3.0531,3.0531,3.0344,2.9995,2.9818,2.9789,2.987,2.9702,2.9816,3.0145,3.0568,3.0717,3.0751,3.1072,3.119,3.1157,3.0835,3.0717,3.0717,3.0717,3.119,3.1702,3.1073,3.1116,3.121,3.0326,3.0017,3.0,3.0108,3.0372,3.0836,3.1465,3.2138,3.2632,3.2632,3.2632,3.2542,3.2302,3.2946,3.3726,3.412,3.4418,3.4622,3.4622,3.4622,3.4696,3.4872,3.4916,3.5036,3.5459,3.5504,3.4876,3.3293,3.2846,3.181,2.9946,2.9792,2.9792,2.9792,2.9792,2.9792,2.9792,2.9287,2.8767,2.8096,2.7602,2.6509,2.4798,2.484,2.4214,2.3135,2.3135,2.3135,2.3135,2.3135,2.3135,2.3135,2.3135,2.3135,2.3135,2.3135,2.3135,2.3135,2.3135,2.3135,2.3135]}]]